[[{"header":{"parameterUnit":"m.s-1","parameterCategory":1,"la1":30.6,"la2":28.766,"lo1":-90.7593,"lo2":-88.6598,"dy":0.0162,"dx":0.0183,"nx":116,"ny":114,"refTime":"2024-06-29T18:00:00:Z","depth":0,"parameterNumber":2,"parameterNumberName":"U-component_of_WINDS"},"data":[0.0,0.0,0.0,0.0,0.0,0.0,0.0,0.0,0.0,0.0,0.0,0.0,0.0,0.0,0.0,0.0,0.0,0.0,0.0,0.0,0.0,0.0,0.0,0.0,0.0,0.0,0.0,0.0,0.0,0.0,0.0,0.0,0.0,0.0,0.0,0.0,0.0,0.0,0.0,0.0,0.0,0.0,0.0,0.0,0.0,0.0,0.0,0.0,0.0,0.0,0.0,0.0,0.0,0.0,0.0,0.0,0.0,0.0,0.0,0.0,0.0,0.0,0.0,0.0,0.0,0.0,0.0,0.0,0.0,0.0,0.0,0.0,0.0,0.0,0.0,0.0,0.0,0.0,0.0,0.0,0.0,0.0,0.0,0.0,0.0,0.0,0.0,0.0,0.0,0.0,0.0,0.0,0.0,0.0,0.0,0.0,0.0,0.0,0.0,0.0,0.0,0.0,0.0,0.0,0.0,0.0,0.0,0.0,0.0,0.0,0.0,0.0,0.0,0.0,0.0,0.0,0.0,0.0,0.0,0.0,0.0,0.0,0.0,0.0,0.0,0.0,0.0,0.0,0.0,0.0,0.0,0.0,0.0,0.0,0.0,0.0,0.0,0.0,0.0,0.0,0.0,0.0,0.0,0.0,0.0,0.0,0.0,0.0,0.0,0.0,0.0,0.0,0.0,0.0,0.0,0.0,0.0,0.0,0.0,0.0,0.0,0.0,0.0,0.0,0.0,0.0,0.0,0.0,0.0,0.0,0.0,0.0,0.0,0.0,0.0,0.0,0.0,0.0,0.0,0.0,0.0,0.0,0.0,0.0,0.0,0.0,0.0,0.0,0.0,0.0,0.0,0.0,0.0,0.0,0.0,0.0,0.0,0.0,0.0,0.0,0.0,0.0,0.0,0.0,0.0,0.0,0.0,0.0,0.0,0.0,0.0,0.0,0.0,0.0,0.0,0.0,0.0,0.0,0.0,0.0,0.0,0.0,0.0,0.0,0.0,0.0,0.0,0.0,0.0,0.0,0.0,0.0,0.0,0.0,0.0,0.0,0.0,0.0,0.0,0.0,0.0,0.0,0.0,0.0,0.0,0.0,0.0,0.0,0.0,0.0,0.0,0.0,0.0,0.0,0.0,0.0,0.0,0.0,0.0,0.0,0.0,0.0,0.0,0.0,0.0,0.0,0.0,0.0,0.0,0.0,0.0,0.0,0.0,0.0,0.0,0.0,0.0,0.0,0.0,0.0,0.0,0.0,0.0,0.0,0.0,0.0,0.0,0.0,0.0,0.0,0.0,0.0,0.0,0.0,0.0,0.0,0.0,0.0,0.0,0.0,0.0,0.0,0.0,0.0,0.0,0.0,0.0,0.0,0.0,0.0,0.0,0.0,0.0,0.0,0.0,0.0,0.0,0.0,0.0,0.0,0.0,0.0,0.0,0.0,0.0,0.0,0.0,0.0,0.0,0.0,0.0,0.0,0.0,0.0,0.0,0.0,0.0,0.0,0.0,0.0,0.0,0.0,0.0,0.0,0.0,0.0,0.0,0.0,0.0,0.0,0.0,0.0,0.0,0.0,0.0,0.0,0.0,0.0,0.0,0.0,0.0,0.0,0.0,0.0,0.0,0.0,0.0,0.0,0.0,0.0,0.0,0.0,0.0,0.0,0.0,0.0,0.0,0.0,0.0,0.0,0.0,0.0,0.0,0.0,0.0,0.0,0.0,0.0,0.0,0.0,0.0,0.0,0.0,0.0,0.0,0.0,0.0,0.0,0.0,0.0,0.0,0.0,0.0,0.0,0.0,0.0,0.0,0.0,0.0,0.0,0.0,0.0,0.0,0.0,0.0,0.0,0.0,0.0,0.0,0.0,0.0,0.0,0.0,0.0,0.0,0.0,0.0,0.0,0.0,0.0,0.0,0.0,0.0,0.0,0.0,0.0,0.0,0.0,0.0,0.0,0.0,0.0,0.0,0.0,0.0,0.0,0.0,0.0,0.0,0.0,0.0,0.0,0.0,0.0,0.0,0.0,0.0,0.0,0.0,0.0,0.0,0.0,0.0,0.0,0.0,0.0,0.0,0.0,0.0,0.0,0.0,0.0,0.0,0.0,0.0,0.0,0.0,0.0,0.0,0.0,0.0,0.0,0.0,0.0,0.0,0.0,0.0,0.0,0.0,0.0,0.0,0.0,0.0,0.0,0.0,0.0,0.0,0.0,0.0,0.0,0.0,0.0,0.0,0.0,0.0,0.0,0.0,0.0,0.0,0.0,0.0,0.0,0.0,0.0,0.0,0.0,0.0,0.0,0.0,0.0,0.0,0.0,0.0,0.0,0.0,0.0,0.0,0.0,0.0,0.0,0.0,0.0,0.0,0.0,0.0,0.0,0.0,0.0,0.0,0.0,0.0,0.0,0.0,0.0,0.0,0.0,0.0,0.0,0.0,0.0,0.0,0.0,0.0,0.0,0.0,0.0,0.0,0.0,0.0,0.0,0.0,0.0,0.0,0.0,0.0,0.0,0.0,0.0,0.0,0.0,0.0,0.0,0.0,0.0,0.0,0.0,0.0,0.0,0.0,0.0,0.0,0.0,0.0,0.0,0.0,0.0,0.0,0.0,0.0,0.0,0.0,0.0,0.0,0.0,0.0,0.0,0.0,0.0,0.0,0.0,0.0,0.0,0.0,0.0,0.0,0.0,0.0,0.0,0.0,0.0,0.0,0.0,0.0,0.0,0.0,0.0,0.0,0.0,0.0,0.0,0.0,0.0,0.0,0.0,0.0,0.0,0.0,0.0,0.0,0.0,0.0,0.0,0.0,0.0,0.0,0.0,0.0,0.0,0.0,0.0,0.0,0.0,0.0,0.0,0.0,0.0,0.0,0.0,0.0,0.0,0.0,0.0,0.0,0.0,0.0,0.0,0.0,0.0,0.0,0.0,0.0,0.0,0.0,0.0,0.0,0.0,0.0,0.0,0.0,0.0,0.0,0.0,0.0,0.0,0.0,0.0,0.0,0.0,0.0,0.0,0.0,0.0,0.0,0.0,0.0,0.0,0.0,0.0,0.0,0.0,0.0,0.0,0.0,0.0,0.0,0.0,0.0,0.0,0.0,0.0,0.0,0.0,0.0,0.0,0.0,0.0,0.0,0.0,0.0,0.0,0.0,0.0,0.0,0.0,0.0,0.0,0.0,0.0,0.0,0.0,0.0,0.0,0.0,0.0,0.0,0.0,0.0,0.0,0.0,0.0,0.0,0.0,0.0,0.0,0.0,0.0,0.0,0.0,0.0,0.0,0.0,0.0,0.0,0.0,0.0,0.0,0.0,0.0,0.0,0.0,0.0,0.0,0.0,0.0,0.0,0.0,0.0,0.0,0.0,0.0,0.0,0.0,0.0,0.0,0.0,0.0,0.0,0.0,0.0,0.0,0.0,0.0,0.0,0.0,0.0,0.0,0.0,0.0,0.0,0.0,0.0,0.0,0.0,0.0,0.0,0.0,0.0,0.0,0.0,0.0,0.0,0.0,0.0,0.0,0.0,0.0,0.0,0.0,0.0,0.0,0.0,0.0,0.0,0.0,0.0,0.0,0.0,0.0,0.0,0.0,0.0,0.0,0.0,0.0,0.0,0.0,0.0,0.0,0.0,0.0,0.0,0.0,0.0,0.0,0.0,0.0,0.0,0.0,0.0,0.0,0.0,0.0,0.0,0.0,0.0,0.0,0.0,0.0,0.0,0.0,0.0,0.0,0.0,0.0,0.0,0.0,0.0,0.0,0.0,0.0,0.0,0.0,0.0,0.0,0.0,0.0,0.0,0.0,0.0,0.0,0.0,0.0,0.0,0.0,0.0,0.0,0.0,0.0,0.0,0.0,0.0,0.0,0.0,0.0,0.0,0.0,0.0,0.0,0.0,0.0,0.0,0.0,0.0,0.0,0.0,0.0,0.0,0.0,0.0,0.0,0.0,0.0,0.0,0.0,0.0,0.0,0.0,0.0,0.0,0.0,0.0,0.0,0.0,0.0,0.0,0.0,0.0,0.0,0.0,0.0,0.0,0.0,0.0,0.0,0.0,0.0,0.0,0.0,0.0,0.0,0.0,0.0,0.0,0.0,0.0,0.0,0.0,0.0,0.0,0.0,0.0,0.0,0.0,0.0,0.0,0.0,0.0,0.0,0.0,0.0,0.0,0.0,0.0,0.0,0.0,0.0,0.0,0.0,0.0,0.0,0.0,0.0,0.0,0.0,0.0,0.0,0.0,0.0,0.0,0.0,0.0,0.0,0.0,0.0,0.0,0.0,0.0,0.0,0.0,0.0,0.0,0.0,0.0,0.0,0.0,0.0,0.0,0.0,0.0,0.0,0.0,0.0,0.0,0.0,0.0,0.0,0.0,0.0,0.0,0.0,0.0,0.0,0.0,0.0,0.0,0.0,0.0,0.0,0.0,0.0,0.0,0.0,0.0,0.0,0.0,0.0,0.0,0.0,0.0,0.0,0.0,0.0,0.0,0.0,0.0,0.0,0.0,0.0,0.0,0.0,0.0,0.0,0.0,0.0,0.0,0.0,0.0,0.0,0.0,0.0,0.0,0.0,0.0,0.0,0.0,0.0,0.0,0.0,0.0,0.0,0.0,0.0,0.0,0.0,0.0,0.0,0.0,0.0,0.0,0.0,0.0,0.0,0.0,0.0,0.0,0.0,0.0,0.0,0.0,0.0,0.0,0.0,0.0,0.0,0.0,0.0,0.0,0.0,0.0,0.0,0.0,0.0,0.0,0.0,0.0,0.0,0.0,0.0,0.0,0.0,0.0,0.0,0.0,0.0,0.0,0.0,0.0,0.0,0.0,0.0,0.0,0.0,0.0,0.0,0.0,0.0,0.0,0.0,0.0,0.0,0.0,0.0,0.0,0.0,0.0,0.0,0.0,0.0,0.0,0.0,0.0,0.0,0.0,0.0,0.0,0.0,0.0,0.0,0.0,0.0,0.0,0.0,0.0,0.0,0.0,0.0,0.0,0.0,0.0,0.0,0.0,0.0,0.0,0.0,0.0,0.0,0.0,0.0,0.0,0.0,0.0,0.0,0.0,0.0,0.0,0.0,0.0,0.0,0.0,0.0,0.0,0.0,0.0,0.0,0.0,0.0,0.0,0.0,0.0,0.0,0.0,0.0,0.0,0.0,0.0,0.0,0.0,0.0,0.0,0.0,0.0,0.0,0.0,0.0,0.0,0.0,0.0,0.0,0.0,0.0,0.0,0.0,0.0,0.0,0.0,0.0,0.0,0.0,0.0,0.0,0.0,0.0,0.0,0.0,0.0,0.0,0.0,0.0,0.0,0.0,0.0,0.0,0.0,0.0,0.0,0.0,0.0,0.0,0.0,0.0,0.0,0.0,0.0,0.0,0.0,0.0,0.0,0.0,0.0,0.0,0.0,0.0,0.0,0.0,0.0,0.0,0.0,0.0,0.0,0.0,0.0,0.0,0.0,0.0,0.0,0.0,0.0,0.0,0.0,0.0,0.0,0.0,0.0,0.0,0.0,0.0,0.0,0.0,0.0,0.0,0.0,0.0,0.0,0.0,0.0,0.0,0.0,0.0,0.0,0.0,0.0,0.0,0.0,0.0,0.0,0.0,0.0,0.0,0.0,0.0,0.0,0.0,0.0,0.0,0.0,0.0,0.0,0.0,0.0,0.0,0.0,0.0,0.0,0.0,0.0,0.0,0.0,0.0,0.0,0.0,0.0,0.0,0.0,0.0,0.0,0.0,0.0,0.0,0.0,0.0,0.0,0.0,0.0,0.0,0.0,0.0,0.0,0.0,0.0,0.0,0.0,0.0,0.0,0.0,0.0,0.0,0.0,0.0,0.0,0.0,0.0,0.0,0.0,0.0,0.0,0.0,0.0,0.0,0.0,0.0,0.0,0.0,0.0,0.0,0.0,0.0,0.0,0.0,0.0,0.0,0.0,0.0,0.0,0.0,0.0,0.0,0.0,0.0,0.0,0.0,0.0,0.0,0.0,0.0,0.0,0.0,0.0,0.0,0.0,0.0,0.0,0.0,0.0,0.0,0.0,0.0,0.0,0.0,0.0,0.0,0.0,0.0,0.0,0.0,0.0,0.0,0.0,0.0,0.0,0.0,-3.6584,0.0,0.0,0.0,0.0,0.0,0.0,0.0,0.0,0.0,0.0,0.0,0.0,0.0,0.0,0.0,0.0,0.0,0.0,0.0,0.0,0.0,0.0,0.0,0.0,-2.5619,-2.5913,-2.6164,-2.6332,-2.6349,-2.6194,0.0,0.0,0.0,0.0,0.0,-2.4799,-2.4606,-2.4639,-2.4922,-2.4642,-2.5049,-2.6134,-2.5804,-2.5272,-2.4557,0.0,0.0,0.0,0.0,0.0,0.0,0.0,0.0,0.0,0.0,0.0,0.0,0.0,0.0,0.0,0.0,0.0,0.0,0.0,0.0,0.0,0.0,0.0,0.0,0.0,0.0,0.0,0.0,0.0,0.0,0.0,0.0,0.0,0.0,0.0,0.0,0.0,0.0,0.0,0.0,0.0,0.0,0.0,0.0,0.0,0.0,0.0,0.0,0.0,0.0,0.0,0.0,0.0,0.0,0.0,0.0,0.0,0.0,0.0,0.0,0.0,0.0,0.0,0.0,0.0,0.0,0.0,0.0,0.0,0.0,0.0,-3.8339,0.0,0.0,0.0,0.0,0.0,0.0,0.0,0.0,0.0,0.0,0.0,0.0,0.0,0.0,0.0,0.0,0.0,0.0,0.0,0.0,0.0,-2.3575,-2.5565,-2.6283,-2.669,-2.6866,-2.7374,-2.7554,-2.7249,0.0,0.0,0.0,0.0,-2.493,-2.4753,-2.4679,-2.4903,-2.5393,-2.5418,-2.5897,-2.6834,-2.6905,-2.6152,-2.48,-2.4616,0.0,0.0,0.0,0.0,0.0,0.0,0.0,0.0,0.0,0.0,0.0,0.0,0.0,0.0,0.0,0.0,0.0,0.0,0.0,0.0,0.0,0.0,0.0,0.0,0.0,0.0,0.0,0.0,0.0,0.0,0.0,0.0,0.0,0.0,0.0,0.0,0.0,0.0,0.0,0.0,0.0,0.0,0.0,0.0,0.0,0.0,0.0,0.0,0.0,0.0,0.0,0.0,0.0,0.0,0.0,0.0,0.0,0.0,0.0,0.0,0.0,0.0,0.0,-4.2615,-4.2989,-4.3547,-4.3547,-4.3547,-4.3412,-4.1304,-4.1027,-4.178,0.0,0.0,0.0,0.0,0.0,0.0,0.0,0.0,0.0,0.0,0.0,0.0,0.0,0.0,0.0,0.0,0.0,0.0,0.0,0.0,-2.3797,-2.6206,-2.6608,-2.724,-2.8613,-2.8827,-2.8887,-2.8878,-2.8816,0.0,0.0,-2.6071,-2.5495,-2.4556,-2.5033,-2.5322,-2.5393,-2.7043,-2.7794,-2.7727,-2.8028,-2.7676,-2.6784,-2.5909,-2.6118,-2.7064,0.0,0.0,0.0,0.0,0.0,0.0,0.0,0.0,0.0,0.0,0.0,0.0,0.0,0.0,0.0,0.0,0.0,0.0,0.0,0.0,0.0,0.0,0.0,0.0,0.0,0.0,0.0,0.0,0.0,0.0,0.0,0.0,0.0,0.0,0.0,0.0,0.0,0.0,0.0,0.0,0.0,-3.5168,-3.5353,0.0,0.0,0.0,0.0,0.0,0.0,0.0,0.0,0.0,0.0,0.0,0.0,0.0,-4.3589,-4.5105,-4.5756,-4.574,-4.5114,-4.5874,-4.5893,-4.5267,-4.5267,-4.5267,-4.5248,-4.4921,0.0,-4.2893,-4.2407,0.0,0.0,0.0,0.0,0.0,0.0,0.0,0.0,0.0,0.0,0.0,0.0,0.0,0.0,0.0,0.0,0.0,0.0,0.0,0.0,0.0,-2.6501,-2.7353,-2.8036,-2.8942,-2.9495,0.0,0.0,0.0,-2.7777,-2.665,-2.6038,-2.6022,-2.5715,-2.6151,-2.731,-2.9107,-2.9809,-2.9468,-2.9386,-2.9176,-2.8783,-2.7935,-2.7344,-2.6941,-2.618,0.0,0.0,0.0,0.0,0.0,0.0,0.0,0.0,0.0,0.0,0.0,0.0,0.0,0.0,0.0,0.0,0.0,0.0,0.0,0.0,0.0,0.0,0.0,0.0,0.0,0.0,0.0,0.0,0.0,0.0,0.0,0.0,0.0,0.0,0.0,0.0,0.0,0.0,0.0,-3.4944,-3.674,-3.7179,-3.7782,-3.7656,0.0,0.0,0.0,0.0,0.0,0.0,0.0,0.0,0.0,-4.5302,-4.5318,-4.5857,-4.7081,-4.7419,-4.7375,-4.7009,-4.7394,-4.7375,-4.7009,-4.7009,-4.6759,-4.6336,-4.6336,-4.5643,-4.4432,-4.3489,-4.2431,-4.1296,0.0,0.0,0.0,0.0,-3.8654,-3.83,0.0,0.0,0.0,0.0,0.0,0.0,0.0,0.0,0.0,0.0,0.0,0.0,-2.5089,-2.6441,-2.7465,-2.8029,0.0,0.0,0.0,0.0,0.0,-2.8398,-2.6869,-2.6276,-2.6884,-2.6732,-2.7706,-2.9879,-3.0819,-3.1259,-3.115,-3.0629,-3.0378,-3.0362,0.0,0.0,0.0,0.0,0.0,0.0,0.0,0.0,0.0,0.0,0.0,0.0,0.0,0.0,0.0,0.0,0.0,0.0,0.0,0.0,0.0,0.0,0.0,0.0,0.0,0.0,0.0,0.0,0.0,0.0,0.0,0.0,0.0,0.0,0.0,0.0,0.0,0.0,0.0,0.0,0.0,0.0,0.0,-3.7032,-3.8489,-3.9302,-4.0268,-4.0195,0.0,0.0,0.0,0.0,0.0,0.0,-4.4083,-4.4332,-4.5391,-4.7471,-4.7548,-4.7932,-4.8759,-4.8779,-4.8644,-4.8432,-4.8432,-4.8317,-4.8105,-4.8105,-4.7778,-4.7201,-4.6981,-4.6528,-4.5817,-4.4355,-4.3605,-4.3278,-4.1978,-4.1343,-4.1247,-4.1893,-4.172,-4.1362,0.0,0.0,0.0,0.0,0.0,0.0,0.0,0.0,0.0,0.0,0.0,-2.3807,-2.5906,0.0,-2.7737,0.0,0.0,0.0,0.0,0.0,0.0,-2.7315,-2.6465,-2.6012,-2.6069,-2.8138,-3.0389,-3.278,-3.1787,-3.1672,-3.2398,-3.1531,0.0,0.0,0.0,0.0,0.0,0.0,0.0,0.0,0.0,0.0,0.0,0.0,0.0,0.0,0.0,0.0,0.0,0.0,0.0,0.0,0.0,0.0,0.0,0.0,0.0,0.0,0.0,0.0,0.0,0.0,0.0,0.0,0.0,0.0,0.0,0.0,0.0,0.0,0.0,0.0,0.0,0.0,0.0,0.0,0.0,0.0,0.0,-4.1993,-4.2943,0.0,0.0,0.0,0.0,-4.3101,-4.4703,-4.5966,-4.6679,-4.7441,-4.8288,-4.924,-4.926,-4.9683,-5.0558,-5.0577,-5.0144,-4.9336,-4.9336,-4.8894,-4.8105,-4.8105,-4.8086,-4.8009,-4.7231,-4.6885,-4.6759,-4.5855,-4.4998,-4.422,-4.4143,-4.3643,-4.297,-4.3028,-4.3008,-4.2989,0.0,0.0,0.0,-2.0404,-2.0537,-2.066,-2.083,-2.1351,-2.1844,-2.2219,-2.2777,-2.3595,0.0,-2.557,0.0,0.0,0.0,0.0,0.0,0.0,-2.8406,-2.8791,-2.7549,-2.7424,-2.867,-3.0391,-3.1936,-3.3318,-3.2963,-3.2664,0.0,0.0,0.0,0.0,0.0,0.0,0.0,0.0,0.0,0.0,0.0,0.0,0.0,0.0,0.0,0.0,0.0,0.0,0.0,0.0,0.0,0.0,0.0,0.0,0.0,0.0,0.0,0.0,0.0,0.0,0.0,0.0,0.0,0.0,0.0,0.0,0.0,0.0,0.0,0.0,0.0,0.0,0.0,0.0,0.0,0.0,0.0,0.0,0.0,-4.3999,-4.5312,0.0,-4.459,-4.5254,-4.5814,-4.5964,-4.6968,-4.7875,-4.8593,-4.9371,-5.0144,-5.0991,-5.1548,-5.1741,-5.1471,-5.1471,-5.1068,-5.025,-5.025,-5.0067,-4.976,-4.976,-4.9471,-4.8894,-4.8048,-4.7394,-4.6827,-4.5951,-4.5421,-4.5152,-4.5152,-4.496,-4.471,-4.471,-4.471,-4.471,-1.8963,-1.9216,0.0,-2.0306,-2.0536,-2.066,-2.0811,-2.1449,-2.1864,-2.178,-2.258,-2.3345,0.0,0.0,0.0,0.0,0.0,0.0,0.0,0.0,-2.8106,-2.882,-2.8558,-2.9133,-3.0732,-3.2178,-3.3288,-3.4064,-3.3777,0.0,0.0,0.0,0.0,0.0,0.0,0.0,0.0,0.0,0.0,0.0,0.0,0.0,-2.6946,0.0,0.0,0.0,0.0,0.0,0.0,0.0,0.0,0.0,0.0,0.0,0.0,0.0,0.0,0.0,0.0,0.0,0.0,0.0,0.0,0.0,0.0,0.0,0.0,0.0,0.0,0.0,0.0,0.0,0.0,0.0,0.0,0.0,0.0,0.0,-4.5117,-4.5391,-4.6973,-4.7695,-4.6816,-4.7539,-4.8102,-4.8261,-4.8971,-4.9703,-5.0419,-5.1189,-5.1837,-5.2318,-5.2895,-5.2933,-5.2327,-5.2038,-5.1615,-5.1106,-5.0827,-5.0712,-5.0712,-5.0712,-5.0385,-4.976,-4.8606,-4.7798,-4.7221,-4.6067,-4.5594,-4.5594,-4.5594,-4.5594,-4.5594,-4.5594,-4.5594,-4.5594,-1.8965,-1.9166,-1.9439,-2.0331,-2.0543,-2.0835,-2.1547,-2.1795,-2.1882,-2.1852,-2.2574,0.0,0.0,0.0,0.0,0.0,0.0,0.0,0.0,-2.7578,-2.7164,-2.7245,-2.9366,-3.099,-3.1963,-3.3371,-3.4461,-3.52,0.0,0.0,0.0,0.0,0.0,0.0,0.0,0.0,0.0,0.0,0.0,0.0,0.0,0.0,-2.877,0.0,0.0,0.0,0.0,0.0,0.0,0.0,0.0,0.0,0.0,0.0,0.0,0.0,0.0,0.0,0.0,0.0,0.0,0.0,0.0,0.0,0.0,0.0,0.0,0.0,0.0,0.0,0.0,0.0,0.0,0.0,0.0,0.0,-4.3567,-4.4504,-4.5449,-4.6328,-4.793,-4.8652,-4.7832,-4.8516,-4.9332,-5.0076,-5.0833,-5.1538,-5.2126,-5.2983,-5.3393,-5.3252,-5.327,-5.327,-5.3251,-5.2375,-5.1923,-5.1885,-5.1087,-5.0712,-5.0712,-5.0712,-5.0712,-5.0596,-4.8894,-4.8125,-4.7971,-4.6317,-4.5614,-4.5594,-4.5594,-4.5594,-4.5594,-4.5594,-4.5594,-4.5594,-1.778,-1.8152,-1.8729,-2.0162,-2.0516,-2.064,-2.0735,-2.1192,-2.141,-2.1017,-2.2002,0.0,0.0,0.0,0.0,0.0,0.0,0.0,-2.7215,-2.617,-2.6358,-2.8221,-3.03,-3.2175,-3.3744,-3.4184,-3.4662,0.0,0.0,0.0,0.0,0.0,0.0,0.0,0.0,0.0,0.0,0.0,0.0,0.0,0.0,0.0,-2.9155,0.0,0.0,0.0,0.0,0.0,0.0,0.0,0.0,0.0,0.0,0.0,0.0,0.0,0.0,0.0,0.0,0.0,0.0,0.0,0.0,0.0,0.0,0.0,0.0,0.0,0.0,0.0,0.0,0.0,0.0,0.0,0.0,-4.5076,-4.536,-4.6808,-4.8144,-4.9023,-5.0078,-5.0879,-5.1269,-5.1504,-5.1992,-5.2848,-5.3022,-5.3161,-5.3327,-5.4076,-5.4464,-5.444,-5.4889,-5.4884,-5.4293,-5.3321,-5.2519,-5.1885,-5.1087,-5.0712,-5.0712,-5.0712,-5.0712,-5.0635,-4.9529,-4.8682,-4.8029,-4.6971,-4.6163,-4.5594,-4.5594,-4.5594,-4.5594,-4.5594,-4.5594,-4.5594,-1.7289,-1.7683,-1.8323,-2.0097,-2.0483,-2.0644,-2.094,-2.1342,-2.1447,-2.0955,-2.1837,0.0,0.0,0.0,0.0,0.0,0.0,0.0,-2.5598,-2.6,-2.7288,-2.964,0.0,-3.3338,-3.4347,-3.4799,-3.5075,0.0,0.0,0.0,0.0,0.0,0.0,0.0,0.0,0.0,0.0,0.0,0.0,0.0,0.0,0.0,-3.0066,-2.9331,-2.9006,-2.879,-2.7833,-2.7721,-2.7962,-2.757,0.0,0.0,0.0,0.0,0.0,0.0,0.0,0.0,0.0,0.0,0.0,0.0,0.0,0.0,0.0,0.0,0.0,0.0,0.0,0.0,0.0,0.0,0.0,0.0,-4.5207,-4.7198,-4.76,-4.8695,-4.9629,-5.0137,-5.0918,-5.1738,-5.2617,-5.2695,-5.3066,-5.3926,-5.4272,-5.439,-5.4345,-5.5099,-5.5496,-5.5438,-5.5812,-5.5798,-5.5339,-5.4321,-5.3387,-5.2518,-5.1626,-5.1029,-5.0712,-5.0712,-5.0712,0.0,-4.9779,-4.8913,-4.8048,-4.7231,-4.6394,0.0,0.0,0.0,0.0,0.0,-4.5594,-4.5594,-1.7255,-1.7642,-1.829,-2.0065,-2.0437,-2.0753,-2.1515,-2.1805,-2.1749,-2.1237,0.0,0.0,0.0,0.0,0.0,0.0,0.0,0.0,0.0,0.0,0.0,-3.1245,-3.319,-3.4275,-3.4307,-3.515,0.0,0.0,0.0,0.0,0.0,0.0,0.0,0.0,0.0,0.0,0.0,0.0,0.0,0.0,0.0,0.0,-3.1184,-3.0482,-3.042,-3.0472,-2.9025,-2.8754,-2.9047,-2.8861,0.0,0.0,0.0,0.0,0.0,0.0,0.0,0.0,0.0,0.0,0.0,0.0,0.0,0.0,0.0,0.0,0.0,0.0,0.0,0.0,0.0,0.0,0.0,0.0,-4.6926,-4.8925,-4.9819,-5.0159,-5.0312,-5.0332,-5.1055,-5.1894,-5.2754,-5.2949,-5.3359,-5.4238,-5.5019,-5.5387,-5.5272,0.0,0.0,0.0,0.0,-5.6217,-5.6217,-5.5229,-5.4284,-5.3412,-5.2419,-5.152,-5.073,-5.0721,-5.0712,-5.0673,-4.9894,-4.899,-4.8048,-4.7336,-4.6471,-4.5594,-4.5594,-4.5594,-4.5594,-4.5594,-4.5594,-4.5594,-1.7195,-1.7968,-1.891,-1.9962,-2.0298,-2.0471,-2.0644,-2.1466,-2.1654,-2.0486,-2.1679,0.0,0.0,0.0,0.0,0.0,0.0,0.0,0.0,0.0,-3.0625,-3.2095,-3.3273,-3.4244,-3.4993,0.0,0.0,0.0,0.0,0.0,0.0,0.0,0.0,0.0,0.0,0.0,0.0,0.0,0.0,0.0,0.0,0.0,-3.1624,-3.1159,-3.1029,-3.097,-3.0085,-2.9984,-3.0229,-2.9968,-2.9638,-2.945,-2.999,0.0,0.0,0.0,0.0,0.0,0.0,0.0,0.0,0.0,0.0,0.0,0.0,0.0,0.0,0.0,0.0,0.0,0.0,0.0,0.0,-4.6953,-4.8489,-4.9737,-5.0709,-5.0933,-5.1057,-5.1152,-5.1933,-5.2793,-5.3652,-5.4375,-5.5156,-5.6035,-5.625,-5.6347,-5.6306,-5.6463,0.0,-5.6516,-5.6419,-5.6368,-5.6368,-5.5351,-5.4422,-5.3541,0.0,0.0,-5.1022,-5.0903,-5.0848,-5.084,-5.0565,-4.9548,-4.8086,-4.7932,-4.6971,-4.5594,-4.5594,-4.5594,-4.5594,-4.5594,-4.5594,-4.5594,-1.7632,-1.8166,-1.8893,-1.9833,-2.0073,-2.0329,-2.0862,-2.1713,-2.1994,-2.1147,-2.1903,0.0,0.0,0.0,0.0,0.0,0.0,0.0,0.0,-2.8294,-3.049,-3.2034,-3.3379,-3.4262,0.0,0.0,0.0,0.0,0.0,0.0,0.0,0.0,0.0,0.0,0.0,0.0,0.0,0.0,0.0,0.0,0.0,0.0,-3.245,-3.2021,-3.186,-3.1808,-3.1426,-3.127,-3.1219,-3.1329,-3.0718,-3.0111,-3.1078,-3.0679,-2.9882,0.0,0.0,0.0,0.0,0.0,0.0,0.0,0.0,0.0,0.0,0.0,0.0,0.0,0.0,-4.107,-4.2913,0.0,-4.677,-4.8222,-4.9464,-5.044,-5.0933,-5.1121,-5.1242,-5.1386,-5.1777,-5.2558,-5.3867,-5.4394,-5.5195,-5.6504,-5.6601,-5.6601,-5.6601,-5.6601,-5.6601,-5.6601,-5.6537,-5.651,-5.651,-5.5945,-5.4983,-5.3697,-5.319,-5.23,-5.1108,-5.1039,-5.0959,-5.0901,-5.0839,-4.9763,-4.8029,-4.7182,-4.6355,-4.5594,-4.5594,-4.5594,-4.5594,-4.5594,-4.5594,-4.5594,-1.8328,-1.8435,-1.8802,-1.969,-2.0025,-2.0469,-2.1343,-2.2255,-2.2658,-2.2149,-2.2319,-2.1955,-2.054,-2.0417,-2.0412,0.0,0.0,0.0,0.0,-2.7844,-3.0062,-3.1879,-3.3375,-3.4056,0.0,0.0,0.0,0.0,0.0,0.0,0.0,0.0,0.0,0.0,0.0,0.0,0.0,0.0,0.0,0.0,0.0,0.0,-3.3255,-3.2726,-3.2524,-3.2483,-3.2324,-3.2019,-3.1742,-3.1978,-3.1243,-3.0457,-3.1647,-3.151,-3.1013,-3.1448,-3.2082,0.0,0.0,0.0,0.0,0.0,0.0,0.0,0.0,0.0,-3.8295,-4.0113,-4.1926,-4.3438,-4.4318,-4.6801,-4.8826,-4.921,-5.0298,-5.1095,-5.1133,-5.1273,-5.1366,-5.1363,-5.1523,-5.2266,-5.3848,-5.4141,-5.4902,-5.6484,-5.6601,-5.6601,-5.6601,-5.6601,-5.6601,-5.6601,-5.6601,-5.6601,-5.6601,-5.6488,-5.5552,-5.3838,-5.3735,-5.2797,-5.116,-5.1139,-5.1058,-5.0919,-5.0538,-4.9495,-4.7971,-4.6278,-4.5594,-4.5594,-4.5594,-4.5594,-4.5594,-4.5594,-4.5594,-4.5594,-1.913,-1.9046,-1.9081,-1.9552,-2.0465,-2.1201,-2.1389,-2.2881,-2.3602,-2.25,-2.2843,-2.2565,-2.0924,-2.0846,-2.0803,-2.0496,0.0,0.0,0.0,-2.7901,-3.0346,-3.2517,-3.3009,0.0,0.0,0.0,0.0,0.0,0.0,0.0,0.0,0.0,0.0,0.0,0.0,0.0,0.0,0.0,0.0,0.0,0.0,0.0,-3.3648,-3.288,-3.2552,-3.2412,-3.1688,-3.1409,-3.127,-3.0663,-3.0588,-3.0758,-3.0988,-3.0864,-3.0842,-3.1895,0.0,-3.1665,-3.2491,-3.3471,-3.4816,-3.7234,-3.7891,-3.8933,0.0,0.0,-4.2047,-4.3687,-4.428,-4.4844,-4.6015,-4.7394,-4.8943,-5.0723,-5.145,-5.1836,-5.1943,-5.1983,-5.1802,-5.1277,-5.2006,-5.2949,-5.3906,-5.4707,-5.5566,-5.6523,-5.6601,-5.6601,-5.6601,-5.6601,-5.6601,-5.6601,-5.6601,-5.6601,-5.6601,-5.6582,-5.5702,-5.3984,-5.3963,-5.3044,-5.1364,-5.1236,-5.1144,-5.098,-4.9196,-4.8287,-4.7971,-4.6278,-4.5594,-4.5594,-4.5594,-4.5594,-4.5594,-4.5594,-4.5594,-4.5594,-1.9101,-1.906,-1.9135,-1.9527,-2.0389,-2.1082,-2.1316,-2.2904,-2.3763,-2.2863,-2.3109,-2.2811,-2.1365,-2.0356,-1.9584,-1.9099,-1.974,-2.0563,-2.1434,-2.5354,-2.8215,-2.9452,0.0,0.0,0.0,0.0,0.0,0.0,0.0,0.0,0.0,0.0,0.0,0.0,0.0,0.0,0.0,0.0,0.0,0.0,0.0,0.0,-3.3073,-3.2729,-3.2165,-3.1509,-3.1187,-3.0894,0.0,0.0,-2.965,-2.9453,-2.9721,-2.9686,-2.9718,-3.0544,-3.1385,0.0,-3.4676,-3.5586,0.0,0.0,-4.0162,-4.1233,-4.3996,-4.3912,-4.3522,-4.446,-4.5213,-4.5791,-4.6091,-4.7518,-4.9179,0.0,-5.1351,-5.1691,-5.1952,-5.2124,-5.1956,-5.1234,-5.162,-5.248,-5.3867,-5.4336,-5.5117,-5.6504,-5.6601,-5.6601,-5.6601,-5.6601,-5.6601,-5.6601,-5.6601,-5.6601,-5.6601,-5.6601,-5.5723,-5.4004,-5.4004,-5.3086,-5.1406,-5.1344,-5.124,-5.0982,-4.9056,-4.818,-4.7971,-4.6278,-4.5594,-4.5594,-4.5594,-4.5594,-4.5594,-4.5594,-4.5594,-4.5594,-1.8993,-1.894,-1.9041,-1.9564,-2.0343,-2.1061,-2.1578,-2.3219,-2.4183,-2.3573,-2.3534,-2.2993,-2.1518,-1.9893,-1.8603,-1.7851,-1.7978,-1.8015,-1.7861,-2.1886,-2.4613,-2.5355,0.0,0.0,0.0,0.0,0.0,0.0,0.0,0.0,0.0,0.0,0.0,0.0,0.0,0.0,0.0,0.0,0.0,0.0,0.0,0.0,-3.257,-3.2253,-3.1351,-3.0229,-3.0229,-3.0087,0.0,0.0,-2.8223,-2.8077,-2.8041,-2.8255,-2.8732,-2.9767,-3.1653,-3.3949,-3.6289,0.0,0.0,-4.0727,-4.2114,-4.3273,-4.475,-4.4715,-4.4476,-4.4795,-4.5504,-4.6067,-4.6041,-4.7412,-4.9062,-5.0553,-5.1329,-5.177,-5.1893,-5.2307,-5.2228,-5.122,-5.1243,-5.2049,-5.3828,-5.3789,-5.4453,-5.6445,-5.6387,-5.6348,-5.6582,-5.6601,-5.6601,-5.6601,-5.6601,-5.6601,-5.6601,-5.6601,-5.5859,-5.4355,-5.4101,-5.3203,-5.1758,-5.1463,-5.1269,-5.1006,-4.9117,-4.8222,-4.7971,-4.6278,-4.5594,-4.5594,-4.5594,-4.5594,-4.5594,-4.5594,-4.5594,-4.5594,-1.8949,-1.8789,-1.8859,-1.9651,-2.05,-2.1422,-2.2405,-2.4219,-2.5286,-2.4814,-2.4297,-2.3226,-2.1223,-1.9745,-1.8449,-1.7322,-1.6632,-1.6114,-1.5726,-1.7736,-1.9484,0.0,0.0,0.0,0.0,0.0,0.0,0.0,0.0,0.0,0.0,0.0,0.0,0.0,0.0,0.0,0.0,0.0,0.0,0.0,0.0,0.0,-3.2483,-3.1379,-2.9953,-2.8569,-2.8569,0.0,0.0,0.0,-2.6122,-2.704,-2.5948,-2.6628,0.0,-3.0339,-3.3123,0.0,0.0,0.0,-4.0054,-4.1893,-4.3633,-4.5115,-4.5884,-4.5691,-4.5348,-4.5293,-4.5268,-4.5456,-4.6243,-4.7129,-4.8408,-5.0474,-5.1785,-5.2401,-5.197,-5.2745,-5.2794,-5.1288,-5.1158,-5.1948,0.0,-5.3242,-5.3808,-5.6406,-5.582,-5.5703,-5.6543,-5.6601,-5.6601,-5.6601,-5.6601,-5.6601,-5.6601,-5.6601,-5.6152,-5.5254,-5.4394,-5.3535,-5.2637,-5.1659,-5.1161,-5.1006,-4.9117,-4.8222,-4.7971,-4.6278,-4.5594,-4.5594,-4.5594,-4.5594,-4.5594,-4.5594,-4.5594,-4.5594,-1.8975,-1.9354,-1.9871,-2.0546,-2.1796,-2.2892,-2.35,-2.4238,-2.4755,-2.4914,-2.3967,0.0,0.0,0.0,0.0,0.0,-1.5578,-1.4324,-1.2905,-1.3922,-1.4561,0.0,0.0,0.0,0.0,0.0,0.0,0.0,0.0,0.0,0.0,0.0,0.0,0.0,0.0,0.0,0.0,0.0,0.0,0.0,0.0,0.0,-3.2169,-3.1205,-2.9229,-2.6961,0.0,0.0,0.0,0.0,0.0,0.0,-2.5491,0.0,0.0,-3.0067,0.0,0.0,0.0,0.0,-4.1119,-4.3416,-4.4506,-4.5215,-4.6032,-4.5972,-4.5659,-4.5413,-4.5478,-4.5588,-4.5612,-4.6527,-4.7892,-4.9709,-5.123,-5.2334,-5.2717,-5.37,-5.3771,-5.209,-5.2584,0.0,0.0,0.0,0.0,-5.6406,-5.5781,-5.5683,-5.6543,-5.6601,-5.6601,-5.6601,-5.6601,-5.6601,-5.6601,-5.6601,-5.5879,-5.4414,-5.2969,-5.2129,-5.1836,-5.1482,-5.1265,-5.106,-4.9231,-4.8366,-4.8095,-4.6328,-4.5594,-4.5594,-4.5594,-4.5594,-4.5594,-4.5594,-4.5594,-4.5594,-1.9192,-1.9685,-2.0317,-2.1204,-2.2311,0.0,0.0,0.0,0.0,0.0,0.0,0.0,0.0,0.0,0.0,0.0,0.0,-1.3973,-1.2288,-1.2706,-1.2826,0.0,0.0,0.0,0.0,0.0,0.0,0.0,0.0,0.0,0.0,0.0,0.0,0.0,0.0,0.0,0.0,0.0,0.0,0.0,0.0,0.0,-3.1119,-3.0445,-2.8534,0.0,0.0,0.0,0.0,0.0,0.0,0.0,0.0,0.0,0.0,0.0,0.0,-3.6645,0.0,-4.0846,-4.2329,-4.4307,-4.5098,-4.5541,-4.6108,-4.6069,-4.575,-4.5195,-4.5323,-4.5425,-4.5034,-4.5869,-4.7185,-4.8852,-5.0619,-5.1992,-5.2641,-5.3974,-5.4371,-5.2937,-5.35,-5.4121,0.0,0.0,0.0,-5.6426,-5.5781,-5.5683,-5.6543,-5.6601,-5.6601,-5.6601,-5.6601,-5.6601,-5.6601,-5.6601,-5.5723,-5.3984,-5.2558,-5.1699,-5.1406,-5.1406,-5.1322,-5.1104,-4.9345,-4.8468,-4.8159,-4.6403,-4.5643,-4.5594,-4.5594,-4.5594,-4.5594,-4.5594,-4.5594,-4.5594,-1.9595,-1.9858,-2.0361,0.0,0.0,0.0,0.0,0.0,0.0,0.0,0.0,0.0,0.0,0.0,0.0,0.0,0.0,0.0,-1.3785,0.0,0.0,0.0,-1.3626,-1.4291,-1.6369,-1.6657,-1.8315,0.0,0.0,0.0,0.0,0.0,0.0,0.0,0.0,0.0,0.0,0.0,0.0,0.0,0.0,0.0,-2.9562,-2.919,0.0,0.0,0.0,0.0,0.0,0.0,0.0,0.0,0.0,0.0,0.0,0.0,0.0,-3.8245,-4.0275,-4.211,-4.3685,-4.4621,-4.5479,-4.6087,-4.6108,-4.5953,-4.5585,-4.4672,-4.4752,-4.4844,0.0,0.0,-4.6237,-4.7923,-4.9929,-5.1441,-5.1902,-5.3703,-5.4649,0.0,0.0,0.0,0.0,0.0,0.0,-5.6484,0.0,-5.5683,-5.6543,-5.6601,-5.6601,-5.6601,-5.6601,-5.6601,-5.6601,-5.6504,-5.5605,-5.3926,-5.3047,-5.2207,-5.1406,-5.1406,-5.1302,-5.1052,-4.9411,-4.8522,-4.8134,-4.6487,-4.5737,-4.5612,-4.5594,-4.5594,-4.5594,-4.5594,-4.5594,-4.5594,0.0,0.0,0.0,0.0,0.0,0.0,0.0,0.0,0.0,0.0,0.0,0.0,0.0,0.0,0.0,0.0,0.0,0.0,0.0,0.0,0.0,0.0,0.0,0.0,-1.5268,-1.7758,0.0,0.0,0.0,0.0,0.0,0.0,0.0,0.0,0.0,0.0,0.0,0.0,0.0,0.0,0.0,0.0,-2.9593,0.0,0.0,0.0,0.0,0.0,0.0,0.0,0.0,0.0,0.0,0.0,-3.4032,0.0,0.0,-3.967,-4.1896,-4.3349,-4.4439,-4.5386,-4.5784,-4.5981,-4.608,-4.5453,-4.4787,-4.4556,-4.3799,-4.3128,-4.3023,0.0,0.0,-4.6548,-4.913,0.0,-5.2698,-5.4602,0.0,0.0,0.0,-5.5762,-5.5332,-5.5683,0.0,0.0,-5.5781,-5.5683,-5.6543,-5.6601,-5.6601,-5.6601,-5.6601,-5.6601,-5.6601,-5.5312,-5.4101,-5.3027,-5.2148,-5.1621,-5.1406,-5.1406,-5.1054,-5.0387,-4.9214,-4.8298,-4.7524,-4.6313,-4.5776,-4.5733,-4.5643,-4.5594,-4.5594,-4.5594,-4.5594,-4.5594,0.0,0.0,0.0,0.0,0.0,0.0,0.0,0.0,0.0,0.0,0.0,0.0,0.0,0.0,0.0,0.0,0.0,0.0,0.0,0.0,0.0,0.0,0.0,0.0,0.0,0.0,0.0,0.0,0.0,0.0,0.0,0.0,0.0,0.0,0.0,0.0,0.0,0.0,0.0,0.0,0.0,0.0,0.0,0.0,0.0,0.0,0.0,0.0,0.0,0.0,0.0,-3.0263,-3.1814,-3.3627,-3.5659,-3.8112,0.0,-4.0729,-4.3012,-4.4299,-4.5128,-4.57,-4.5855,-4.5779,-4.5464,-4.4923,-4.4273,-4.3477,-4.3019,0.0,-4.2065,0.0,0.0,0.0,0.0,0.0,-5.2969,-5.4865,-5.5916,0.0,-5.609,0.0,-5.5918,-5.6308,-5.6601,0.0,-5.6152,-5.6074,-5.6562,-5.6601,-5.6601,-5.6601,-5.6601,-5.6426,-5.6035,-5.4687,-5.3555,-5.2695,-5.1816,-5.1406,-5.1406,-5.1406,-5.0957,-5.0156,0.0,-4.8259,-4.7316,-4.6341,-4.5889,-4.579,-4.5723,-4.564,-4.5594,-4.5594,-4.5594,-4.5594,0.0,0.0,0.0,0.0,0.0,0.0,0.0,0.0,0.0,0.0,0.0,0.0,0.0,0.0,0.0,0.0,0.0,0.0,0.0,0.0,0.0,0.0,0.0,0.0,0.0,0.0,0.0,0.0,0.0,0.0,0.0,0.0,0.0,0.0,0.0,0.0,0.0,0.0,0.0,0.0,0.0,0.0,0.0,0.0,0.0,0.0,0.0,0.0,0.0,0.0,-3.0507,-3.1446,-3.4182,-3.5715,-3.7088,-4.0109,-4.1019,-4.1552,-4.38,-4.4991,-4.5627,-4.5775,-4.5705,-4.5402,-4.4673,-4.4312,-4.3691,-4.2125,0.0,-4.245,-4.139,0.0,-4.4536,-4.5976,0.0,-5.1095,-5.2942,-5.4677,-5.5845,-5.6156,-5.6317,-5.6454,-5.6582,-5.6601,-5.6601,-5.6601,-5.6601,-5.6601,-5.6601,-5.6601,-5.6601,-5.6601,-5.6484,-5.6015,-5.5137,-5.4258,-5.3398,-5.2519,-5.1758,-5.1406,-5.1406,-5.1406,-5.0957,-5.0156,0.0,0.0,-4.735,-4.6464,-4.601,-4.584,-4.5816,-4.5718,-4.5618,-4.5603,-4.5594,-4.5594,0.0,0.0,0.0,0.0,0.0,0.0,0.0,-2.55,-2.5729,-2.6523,-2.5728,0.0,0.0,0.0,0.0,0.0,0.0,0.0,0.0,0.0,0.0,0.0,0.0,0.0,0.0,0.0,0.0,0.0,0.0,0.0,0.0,0.0,0.0,0.0,0.0,0.0,0.0,0.0,0.0,0.0,0.0,0.0,0.0,0.0,0.0,0.0,0.0,0.0,0.0,0.0,-3.0922,-3.3185,-3.5183,-3.6629,-3.8122,-4.0727,-4.1668,-4.2335,-4.4399,-4.5256,-4.5627,-4.5775,-4.5182,-4.4538,-4.4511,-4.3347,0.0,0.0,0.0,-4.0885,-4.0672,-4.1837,0.0,-4.5409,0.0,0.0,0.0,0.0,-5.5232,0.0,0.0,0.0,0.0,0.0,0.0,0.0,0.0,-5.6601,-5.6601,-5.6601,-5.6601,-5.6601,-5.5898,-5.5117,-5.4238,-5.3359,-5.248,-5.1621,-5.1465,-5.1406,-5.1406,-5.1406,-5.0957,-5.0156,-4.9277,0.0,-4.7498,-4.6518,-4.6077,-4.6021,-4.5867,-4.5783,-4.5754,-4.5643,-4.5594,-4.5594,0.0,0.0,0.0,0.0,0.0,0.0,0.0,-2.6142,-2.64,-2.7357,-2.7031,-2.6459,-2.5754,-2.492,-2.4195,0.0,0.0,0.0,0.0,0.0,0.0,0.0,0.0,0.0,0.0,0.0,0.0,0.0,0.0,0.0,0.0,0.0,0.0,0.0,0.0,0.0,0.0,0.0,0.0,0.0,0.0,0.0,0.0,0.0,0.0,0.0,0.0,0.0,0.0,0.0,-3.1143,-3.3459,-3.6132,-3.7605,-3.8828,-4.1464,-4.2179,-4.2539,-4.4554,-4.5342,-4.562,-4.5688,-4.4996,-4.4215,-4.3855,0.0,0.0,0.0,0.0,-3.9996,-4.0419,0.0,0.0,0.0,0.0,0.0,0.0,0.0,0.0,0.0,0.0,0.0,0.0,0.0,0.0,0.0,0.0,-5.6601,-5.6601,-5.6601,-5.6387,-5.5937,-5.5527,-5.4668,-5.334,-5.291,-5.2266,-5.1406,-5.1406,-5.1406,-5.1406,-5.1406,-5.0703,-4.9492,-4.9082,0.0,-4.6894,-4.6401,-4.6152,-4.6084,-4.5986,-4.5885,-4.5803,-4.577,-4.5691,-4.5612,0.0,0.0,0.0,0.0,0.0,0.0,0.0,-2.6601,-2.6996,-2.7872,-2.8041,-2.7843,-2.7242,-2.6093,-2.5132,0.0,0.0,0.0,0.0,0.0,0.0,0.0,0.0,0.0,0.0,0.0,0.0,0.0,0.0,0.0,0.0,0.0,0.0,0.0,0.0,0.0,0.0,0.0,0.0,0.0,0.0,0.0,0.0,0.0,0.0,0.0,0.0,0.0,0.0,0.0,-3.1337,-3.328,-3.6474,-3.7998,-3.9061,-4.1414,-4.2106,-4.2489,-4.4333,-4.5149,-4.5504,-4.5577,-4.4816,-4.3874,-4.3239,-4.1739,0.0,0.0,-3.9996,-3.9746,-4.0381,0.0,0.0,0.0,0.0,0.0,0.0,0.0,0.0,0.0,0.0,0.0,0.0,0.0,0.0,0.0,0.0,0.0,-5.6601,-5.6426,-5.6015,-5.5312,-5.4941,-5.4082,-5.2715,-5.2519,-5.207,-5.1406,-5.1406,-5.1406,-5.1387,-5.1211,-5.043,-4.916,-4.8789,0.0,0.0,-4.6387,-4.6246,-4.6144,-4.6113,-4.5997,-4.5872,-4.5896,-4.5805,-4.5673,0.0,0.0,0.0,0.0,0.0,0.0,0.0,-2.6184,-2.6935,-2.788,-2.8005,-2.8272,-2.8974,-2.8131,-2.7059,0.0,0.0,0.0,0.0,0.0,0.0,0.0,0.0,0.0,0.0,0.0,0.0,0.0,0.0,0.0,0.0,0.0,0.0,0.0,0.0,0.0,0.0,0.0,0.0,0.0,0.0,0.0,0.0,0.0,0.0,0.0,0.0,0.0,0.0,0.0,0.0,-3.3189,-3.5383,-3.7126,-3.8522,-3.9524,0.0,0.0,-4.3599,-4.4516,-4.5222,-4.5522,-4.4393,-4.3181,-4.3124,0.0,0.0,0.0,-4.0439,-4.0419,-4.0496,-4.12,0.0,0.0,0.0,0.0,0.0,0.0,0.0,0.0,0.0,0.0,0.0,0.0,0.0,0.0,0.0,0.0,-5.6601,-5.5859,-5.5371,-5.5293,-5.3769,-5.2851,-5.2695,-5.1914,-5.1484,-5.1406,-5.1406,-5.1406,-5.1387,-5.0644,-5.0234,-4.998,-4.8418,0.0,0.0,-4.6621,-4.6289,-4.6268,-4.6147,-4.6082,-4.6064,-4.5932,-4.5885,-4.5872,0.0,0.0,0.0,0.0,0.0,0.0,-2.6203,-2.6463,-2.7103,-2.8473,-2.8693,-2.9039,-2.9932,-2.9656,-2.8573,-2.6425,0.0,0.0,0.0,0.0,0.0,0.0,0.0,0.0,0.0,0.0,0.0,0.0,0.0,0.0,0.0,0.0,0.0,0.0,0.0,0.0,0.0,0.0,0.0,0.0,0.0,0.0,0.0,0.0,0.0,0.0,0.0,0.0,0.0,0.0,0.0,0.0,-3.4562,-3.6014,0.0,0.0,-4.0155,-4.1328,-4.3281,-4.42,-4.4777,-4.5433,-4.4335,-4.3104,-4.3104,0.0,0.0,-4.04,-4.0112,-3.9938,-4.0419,-4.0785,-4.1585,0.0,-4.3874,0.0,0.0,0.0,0.0,0.0,0.0,0.0,0.0,0.0,0.0,0.0,0.0,0.0,-5.5859,-5.5488,-5.5058,-5.4531,-5.334,-5.2441,-5.1914,-5.1562,-5.1406,-5.1406,-5.1406,-5.1406,-5.1367,-5.0566,-4.9902,-4.9355,-4.8125,0.0,0.0,-4.6445,-4.6308,-4.6289,-4.6246,-4.6173,-4.6091,-4.612,-4.6039,-4.5894,0.0,0.0,0.0,0.0,0.0,-2.5703,-2.6317,-2.6517,-2.7121,-2.8569,-2.8985,-2.9501,-3.0385,-3.0463,-2.9593,-2.7417,-2.6676,0.0,0.0,0.0,0.0,0.0,0.0,0.0,0.0,0.0,0.0,0.0,0.0,0.0,0.0,0.0,0.0,0.0,0.0,0.0,0.0,0.0,0.0,0.0,0.0,0.0,0.0,0.0,0.0,0.0,0.0,0.0,0.0,0.0,0.0,0.0,0.0,0.0,0.0,0.0,-3.9283,-4.0472,-4.2236,-4.3407,-4.4267,-4.4741,-4.397,-4.3028,0.0,0.0,-3.9823,-4.0381,-4.0054,-3.9823,-4.04,-4.0496,-4.1073,0.0,-4.3104,-4.4182,-4.7317,0.0,0.0,0.0,0.0,0.0,0.0,0.0,0.0,0.0,0.0,0.0,0.0,-5.4805,-5.4258,-5.3633,-5.2773,-5.2012,-5.1406,-5.1406,-5.1406,-5.1406,-5.1406,-5.1289,-5.1016,-5.0195,-4.9336,-4.8476,0.0,0.0,0.0,-4.6308,-4.6308,-4.6308,-4.6308,-4.6247,-4.6173,-4.6268,-4.6175,-4.6001,0.0,0.0,0.0,0.0,0.0,0.0,-2.551,-2.6138,-2.6928,-2.7799,-2.8607,-2.9434,-3.0308,-3.0404,-3.0062,-2.9231,-2.8203,0.0,0.0,0.0,0.0,0.0,0.0,0.0,0.0,0.0,0.0,0.0,0.0,0.0,0.0,0.0,0.0,0.0,0.0,0.0,0.0,0.0,0.0,0.0,0.0,0.0,-3.5474,0.0,0.0,0.0,0.0,0.0,0.0,0.0,0.0,0.0,0.0,0.0,0.0,0.0,-3.808,-4.0023,-4.0101,-4.1922,-4.3699,-4.3237,-4.3104,-4.2874,0.0,-4.1123,-4.0496,-4.0496,-4.0496,-4.0496,-4.0496,-4.0496,-4.1073,-4.2816,-4.3104,-4.3989,-4.6538,0.0,0.0,0.0,0.0,0.0,0.0,0.0,0.0,0.0,0.0,0.0,0.0,-5.3652,-5.2715,-5.2715,-5.1875,-5.1406,-5.1406,-5.1406,-5.1406,-5.1406,-5.1406,-5.0976,-5.0176,-4.9316,-4.8437,0.0,0.0,0.0,0.0,-4.6308,-4.6308,-4.6308,-4.6308,-4.6308,-4.6308,-4.6308,-4.6308,-4.6268,0.0,0.0,0.0,0.0,0.0,0.0,0.0,-2.5615,-2.6019,-2.6909,-2.7755,-2.8588,-2.941,-3.0079,-3.0373,-3.0189,-2.9266,0.0,0.0,0.0,0.0,0.0,0.0,0.0,0.0,0.0,0.0,-3.2636,0.0,0.0,0.0,0.0,0.0,0.0,0.0,0.0,0.0,0.0,0.0,0.0,0.0,-3.4784,-3.55,0.0,0.0,0.0,0.0,0.0,0.0,0.0,0.0,0.0,0.0,0.0,0.0,-3.5267,-3.6831,0.0,-3.9394,-4.0526,-4.1513,-4.1357,-4.1324,-4.1247,-4.0969,-4.0708,-4.0496,-4.0496,-4.0496,-4.0496,-4.0496,-4.0496,-4.1247,-4.3547,-4.3912,0.0,0.0,0.0,0.0,0.0,0.0,0.0,0.0,0.0,0.0,0.0,0.0,0.0,0.0,-5.3008,-5.2695,-5.2695,-5.1855,-5.1406,-5.1406,-5.1406,-5.1406,-5.1387,-5.084,-5.0449,-5.0156,-4.8672,0.0,0.0,0.0,0.0,0.0,-4.6308,-4.6308,-4.6308,-4.6308,-4.6308,-4.6308,-4.6308,-4.6308,-4.6269,0.0,0.0,0.0,0.0,0.0,0.0,0.0,-2.5375,-2.5615,-2.6486,-2.7351,-2.8203,-2.9011,-2.9946,-3.0525,-3.0597,-3.0085,0.0,0.0,0.0,0.0,0.0,0.0,0.0,0.0,0.0,-3.2357,-3.3137,-3.4052,0.0,0.0,0.0,0.0,0.0,0.0,0.0,0.0,0.0,0.0,0.0,-3.4337,-3.4886,-3.5007,0.0,0.0,0.0,0.0,0.0,0.0,0.0,0.0,0.0,0.0,0.0,0.0,0.0,-3.5977,-3.7326,0.0,-3.9021,-3.9977,-3.965,-4.0035,-4.0419,-4.0112,-4.0285,-4.0496,-4.0496,-4.0496,-4.0496,-4.0496,-4.0496,-4.1227,-4.347,-4.3855,0.0,0.0,0.0,0.0,0.0,0.0,0.0,0.0,0.0,0.0,0.0,0.0,0.0,0.0,-5.2383,-5.2207,-5.2207,-5.168,-5.1406,-5.1406,-5.1406,-5.125,-5.0937,-5.0449,-4.9863,-4.918,-4.8086,0.0,0.0,0.0,0.0,0.0,-4.6308,-4.6308,-4.6308,-4.6308,-4.6268,-4.6225,-4.6289,-4.6268,-4.6203,0.0,0.0,0.0,0.0,0.0,0.0,0.0,-2.5348,-2.5596,-2.6409,-2.7313,-2.8184,-2.8934,-2.9917,-3.0552,-3.0675,0.0,0.0,0.0,0.0,0.0,0.0,0.0,0.0,0.0,-3.1086,-3.2406,-3.3271,-3.4133,-3.4954,-3.5696,-3.5831,0.0,0.0,0.0,0.0,0.0,0.0,0.0,0.0,-3.4928,-3.504,0.0,0.0,0.0,0.0,0.0,0.0,0.0,0.0,0.0,0.0,0.0,0.0,0.0,0.0,0.0,0.0,0.0,-3.7403,-3.8877,-3.8027,-3.9084,-4.0131,-3.9381,-3.9881,0.0,-4.0496,-4.0496,-4.0516,-4.0573,-4.0593,-4.1189,-4.2989,-4.3278,0.0,0.0,0.0,0.0,0.0,0.0,0.0,0.0,0.0,0.0,0.0,0.0,0.0,0.0,-5.1797,-5.1308,-5.1308,-5.125,-5.1289,-5.1406,-5.1348,-5.0937,-5.0195,-5.0078,-4.918,-4.7598,-4.7539,0.0,0.0,0.0,0.0,0.0,-4.6308,-4.6308,-4.6308,-4.6289,-4.6202,-4.6115,-4.6225,-4.62,-4.6108,0.0,0.0,0.0,0.0,0.0,0.0,0.0,0.0,0.0,0.0,-2.6948,-2.7972,-2.8165,-2.9601,-3.0857,0.0,0.0,0.0,0.0,0.0,0.0,0.0,0.0,0.0,0.0,-3.2174,-3.3137,-3.3969,-3.4832,-3.5397,-3.5621,-3.5712,-3.5685,0.0,0.0,0.0,0.0,0.0,0.0,0.0,-3.518,-3.504,0.0,0.0,0.0,0.0,-3.1747,-3.2344,0.0,0.0,0.0,0.0,0.0,0.0,0.0,0.0,-3.4876,-3.4936,-3.4682,0.0,-3.6854,-3.6234,-3.7353,-3.8546,0.0,-3.9438,-4.0496,-4.0496,0.0,-4.0708,-4.1373,-4.1489,-4.2277,-4.4633,-4.5017,0.0,0.0,0.0,0.0,0.0,0.0,0.0,0.0,0.0,0.0,0.0,0.0,0.0,0.0,-5.0937,-5.0488,-5.0488,-4.9844,-5.0098,-5.1387,-5.0781,-5.0391,-5.0176,-4.8848,-4.8008,-4.7578,-4.6914,0.0,0.0,0.0,0.0,-4.6308,-4.6308,-4.6308,-4.6289,-4.6198,-4.614,-4.6087,-4.6027,-4.6039,-4.6108,0.0,0.0,0.0,0.0,0.0,0.0,0.0,0.0,0.0,0.0,0.0,0.0,0.0,0.0,0.0,0.0,0.0,0.0,0.0,0.0,0.0,0.0,0.0,0.0,0.0,-3.216,-3.2989,-3.4205,-3.4661,-3.513,-3.557,-3.5655,0.0,0.0,0.0,0.0,0.0,0.0,0.0,0.0,-3.5197,0.0,0.0,0.0,0.0,0.0,-3.0756,-3.1421,0.0,-3.2275,-3.343,-3.4891,0.0,0.0,0.0,0.0,-3.4486,-3.4272,-3.4218,-3.5516,-3.6827,-3.6542,-3.7537,-3.8681,-3.9065,0.0,0.0,0.0,0.0,-4.0102,-4.1338,-4.1437,-4.2086,-4.4403,-4.4768,0.0,0.0,0.0,0.0,0.0,0.0,0.0,0.0,0.0,0.0,0.0,0.0,0.0,0.0,-5.0058,-4.9609,-4.9609,-4.9141,-4.9336,-5.0234,-4.9824,-4.9394,-4.9004,-4.8047,-4.7383,-4.6992,-4.6523,-4.6308,0.0,0.0,0.0,-4.6308,-4.6308,-4.6268,-4.62,-4.612,-4.603,-4.5951,-4.5923,-4.5927,-4.5987,0.0,0.0,0.0,0.0,0.0,0.0,0.0,0.0,0.0,0.0,0.0,0.0,0.0,0.0,0.0,0.0,0.0,0.0,0.0,0.0,0.0,0.0,0.0,0.0,0.0,0.0,-3.2621,-3.4271,-3.4433,-3.4908,0.0,0.0,-3.5768,0.0,0.0,0.0,0.0,0.0,0.0,-3.4449,-3.5192,0.0,0.0,0.0,0.0,0.0,0.0,0.0,0.0,-3.2333,-3.3276,-3.4321,-3.4904,0.0,0.0,0.0,0.0,0.0,-3.4241,-3.6053,-3.7766,-3.7478,-3.8418,-3.9565,-4.0181,0.0,0.0,0.0,0.0,0.0,0.0,0.0,0.0,0.0,0.0,0.0,0.0,0.0,0.0,0.0,0.0,0.0,0.0,0.0,0.0,0.0,0.0,0.0,0.0,-4.918,-4.8691,-4.8691,-4.8574,-4.8496,-4.8496,-4.8633,-4.832,-4.7598,-4.7461,-4.7012,-4.6308,-4.6308,-4.6308,0.0,0.0,0.0,-4.6308,-4.6308,-4.6226,-4.614,-4.6082,-4.5963,-4.5808,-4.5836,-4.5836,-4.5828,0.0,0.0,0.0,0.0,0.0,0.0,0.0,0.0,0.0,0.0,0.0,0.0,0.0,0.0,0.0,0.0,0.0,0.0,0.0,0.0,0.0,0.0,0.0,0.0,0.0,0.0,0.0,0.0,0.0,0.0,-3.6184,-3.6609,-3.6063,-3.4755,0.0,0.0,0.0,0.0,0.0,-3.5308,0.0,0.0,0.0,0.0,0.0,0.0,0.0,0.0,0.0,-3.0981,-3.2314,-3.409,-3.3487,0.0,0.0,0.0,0.0,0.0,-3.475,-3.6859,-3.8561,-3.692,-3.8212,-3.9823,-3.9546,0.0,0.0,0.0,0.0,0.0,0.0,0.0,0.0,0.0,0.0,0.0,0.0,0.0,0.0,0.0,0.0,0.0,0.0,0.0,0.0,0.0,0.0,0.0,0.0,-4.8262,-4.7793,-4.7793,-4.707,-4.6699,-4.6699,-4.7422,-4.7734,-4.7598,-4.6855,-4.6426,-4.6308,-4.6308,-4.6308,0.0,0.0,-4.6308,-4.6308,-4.6308,-4.6289,-4.6247,-4.6027,-4.5903,-4.5867,-4.5713,-4.5711,-4.5828,0.0,0.0,0.0,0.0,0.0,0.0,0.0,0.0,0.0,0.0,0.0,0.0,0.0,0.0,0.0,0.0,0.0,0.0,0.0,0.0,0.0,0.0,0.0,0.0,0.0,0.0,0.0,0.0,0.0,-3.6086,-3.5656,-3.6057,-3.56,-3.4441,0.0,0.0,0.0,0.0,0.0,-3.55,0.0,0.0,0.0,0.0,0.0,0.0,0.0,0.0,0.0,0.0,-3.2179,-3.3506,-3.3583,0.0,0.0,0.0,0.0,0.0,-3.3828,-3.6059,-3.8282,-3.7393,-3.9146,-4.1143,-4.139,0.0,0.0,0.0,0.0,0.0,0.0,0.0,0.0,0.0,0.0,0.0,0.0,0.0,0.0,0.0,0.0,0.0,0.0,0.0,0.0,0.0,0.0,0.0,0.0,0.0,-4.6894,-4.6894,-4.6504,-4.6308,-4.6308,-4.6699,-4.6894,-4.6894,-4.6484,-4.6308,-4.6308,-4.6308,-4.6308,-4.6308,0.0,-4.6308,-4.6308,-4.6308,-4.6268,-4.6174,-4.5981,-4.5877,-4.5825,-4.5653,-4.5677,-4.5815,0.0,0.0,0.0,0.0,0.0,0.0,0.0,0.0,0.0,0.0,0.0,0.0,0.0,0.0,0.0,0.0,0.0,0.0,0.0,0.0,0.0,0.0,0.0,0.0,0.0,0.0,-3.3951,-3.4494,-3.5588,-3.5873,-3.5417,-3.5758,-3.5436,0.0,0.0,0.0,0.0,-3.4507,-3.4891,-3.55,0.0,0.0,0.0,0.0,0.0,0.0,0.0,0.0,0.0,0.0,0.0,0.0,0.0,0.0,0.0,-3.4016,-3.4083,-3.4233,-3.3482,-3.5266,-3.7407,-3.774,-3.9567,-4.1613,-4.2737,0.0,0.0,0.0,0.0,0.0,0.0,0.0,0.0,0.0,0.0,0.0,0.0,0.0,0.0,0.0,0.0,0.0,0.0,0.0,0.0,0.0,0.0,0.0,0.0,0.0,-4.6268,-4.6308,-4.6308,-4.6308,-4.6308,-4.6308,-4.6308,-4.6308,-4.6308,-4.6308,-4.6308,-4.6308,-4.6308,-4.6308,-4.6308,-4.6308,-4.6308,-4.6308,-4.6246,-4.612,-4.5951,-4.5839,-4.574,-4.5635,-4.5677,-4.5803,0.0,0.0,0.0,0.0,0.0,0.0,0.0,0.0,0.0,0.0,0.0,0.0,0.0,0.0,0.0,0.0,0.0,0.0,0.0,0.0,0.0,0.0,0.0,0.0,0.0,-3.342,-3.3566,-3.3868,-3.5008,-3.5841,-3.6404,-3.6675,-3.6341,-3.5514,0.0,0.0,0.0,0.0,-3.5442,-3.55,-3.55,0.0,0.0,0.0,0.0,0.0,0.0,0.0,0.0,0.0,0.0,0.0,0.0,0.0,-3.4356,-3.4841,-3.4272,-3.3749,-3.4967,-3.5479,-3.5969,-3.7219,-3.8433,0.0,-4.1663,-4.0813,0.0,0.0,0.0,0.0,0.0,0.0,0.0,0.0,0.0,0.0,0.0,0.0,0.0,0.0,0.0,0.0,0.0,0.0,0.0,0.0,0.0,0.0,0.0,0.0,0.0,-4.6308,-4.6308,-4.6308,-4.6308,-4.6308,-4.6308,-4.6308,-4.6308,-4.6308,-4.6308,-4.6308,-4.6308,-4.6308,-4.6308,-4.6308,-4.6308,-4.6308,-4.6289,-4.6268,-4.5995,-4.5776,-4.5612,-4.5594,-4.5677,-4.5803,0.0,0.0,0.0,0.0,0.0,0.0,0.0,0.0,0.0,0.0,0.0,0.0,0.0,0.0,0.0,0.0,0.0,0.0,0.0,0.0,0.0,0.0,0.0,-3.3914,-3.3402,-3.3929,-3.4068,-3.3807,-3.4612,-3.5749,-3.7185,-3.6992,0.0,0.0,0.0,0.0,0.0,0.0,0.0,-3.55,-3.55,-3.4776,0.0,0.0,0.0,0.0,0.0,0.0,0.0,0.0,-3.125,-3.1814,-3.2449,-3.2987,-3.3301,-3.286,-3.2814,-3.2955,-3.3149,-3.4691,-3.6445,-3.7286,-3.8567,0.0,0.0,-4.1511,-4.1938,0.0,0.0,0.0,0.0,0.0,0.0,0.0,0.0,0.0,0.0,0.0,0.0,0.0,0.0,0.0,0.0,0.0,0.0,0.0,0.0,0.0,0.0,0.0,0.0,-4.6045,-4.6122,-4.6174,-4.6174,-4.6268,-4.6308,-4.6308,-4.6308,-4.6308,-4.6308,-4.6308,-4.6308,-4.6308,-4.6308,-4.6308,-4.6308,-4.6308,-4.6308,-4.6269,-4.5998,-4.5498,-4.4969,-4.5434,-4.4972,-4.4221,0.0,0.0,0.0,0.0,0.0,0.0,0.0,0.0,0.0,0.0,0.0,0.0,0.0,0.0,0.0,0.0,0.0,0.0,0.0,0.0,0.0,0.0,0.0,-3.3213,-3.3147,-3.3739,-3.3836,-3.3421,-3.4285,-3.539,-3.6691,0.0,0.0,0.0,0.0,0.0,0.0,0.0,0.0,0.0,-3.55,-3.4988,0.0,0.0,0.0,0.0,0.0,0.0,0.0,0.0,-3.1019,-3.1385,-3.191,-3.2275,-3.243,-3.1945,-3.2351,-3.2931,-3.2733,-3.4345,-3.6304,-3.726,0.0,0.0,-4.0816,-4.1702,0.0,0.0,0.0,0.0,0.0,0.0,0.0,0.0,0.0,0.0,0.0,0.0,0.0,0.0,0.0,0.0,0.0,0.0,0.0,0.0,0.0,0.0,0.0,0.0,0.0,0.0,-4.5988,-4.6069,-4.6108,-4.6198,-4.6268,-4.6308,-4.6308,-4.6308,-4.6308,-4.6308,-4.6308,-4.6308,-4.6308,-4.6308,-4.6308,-4.6308,-4.6112,-4.5812,-4.5599,-4.4928,-4.415,-4.463,-4.4085,-4.3208,0.0,0.0,0.0,0.0,0.0,0.0,0.0,0.0,0.0,0.0,0.0,0.0,0.0,0.0,0.0,0.0,0.0,0.0,0.0,0.0,0.0,0.0,0.0,-3.307,-3.259,-3.2596,-3.2602,-3.2601,-3.4005,-3.4694,-3.4733,-3.6221,0.0,0.0,0.0,0.0,0.0,0.0,0.0,0.0,-3.55,-3.4988,-3.4129,0.0,0.0,0.0,0.0,0.0,0.0,0.0,-3.1115,-3.0692,-3.2352,-3.2333,-3.1852,-3.2641,-3.3314,-3.3917,-3.4451,-3.4646,-3.5174,0.0,0.0,0.0,-4.0641,0.0,0.0,0.0,0.0,0.0,0.0,0.0,0.0,0.0,0.0,0.0,0.0,0.0,0.0,0.0,0.0,0.0,0.0,0.0,0.0,0.0,0.0,0.0,0.0,0.0,0.0,0.0,-4.5899,-4.5971,-4.6106,-4.6108,-4.6173,-4.6308,-4.6308,-4.6308,-4.6308,-4.6308,-4.6308,-4.6308,-4.6308,-4.6308,-4.6308,-4.6289,-4.5696,-4.4794,-4.472,-4.4079,-4.3189,-4.3127,-4.3094,-4.3111,0.0,0.0,0.0,0.0,0.0,0.0,0.0,0.0,0.0,0.0,0.0,0.0,0.0,0.0,0.0,0.0,0.0,0.0,0.0,0.0,0.0,0.0,0.0,0.0,0.0,0.0,-3.2541,-3.2876,-3.3302,-3.4197,0.0,0.0,0.0,-3.6726,0.0,0.0,0.0,0.0,0.0,0.0,-3.55,-3.5346,-3.4949,0.0,0.0,0.0,0.0,0.0,0.0,0.0,0.0,0.0,-3.0981,-3.1795,-3.2352,-3.1423,-3.2267,-3.3458,-3.318,-3.4579,0.0,-3.7784,0.0,0.0,0.0,0.0,0.0,0.0,0.0,0.0,0.0,0.0,0.0,0.0,0.0,0.0,0.0,0.0,0.0,0.0,0.0,0.0,0.0,0.0,0.0,0.0,0.0,0.0,0.0,0.0,0.0,0.0,-4.5777,-4.5856,-4.588,-4.6037,-4.6117,-4.615,-4.6248,-4.6308,-4.6308,-4.6308,-4.6308,-4.6308,-4.6308,-4.6308,-4.625,-4.5644,-4.5214,-4.4877,-4.4192,-4.3318,-4.2495,-4.3086,-4.2516,-4.1525,0.0,0.0,0.0,0.0,0.0,0.0,0.0,0.0,0.0,0.0,0.0,-3.0404,0.0,0.0,0.0,0.0,0.0,0.0,0.0,0.0,0.0,0.0,0.0,0.0,0.0,-3.2211,-3.2699,0.0,0.0,0.0,0.0,0.0,0.0,-3.6745,0.0,-3.7183,0.0,0.0,0.0,0.0,-3.4824,-3.4824,-3.4671,0.0,0.0,0.0,0.0,0.0,0.0,0.0,0.0,0.0,-3.0404,-3.1096,-3.1833,-3.1481,-3.2735,-3.4262,-3.4431,-3.6234,0.0,-3.9561,-4.1211,-4.2642,0.0,0.0,0.0,0.0,0.0,0.0,0.0,0.0,0.0,0.0,0.0,0.0,0.0,0.0,0.0,0.0,0.0,0.0,0.0,0.0,0.0,0.0,0.0,0.0,0.0,0.0,0.0,0.0,-4.568,-4.5747,-4.5796,-4.5951,-4.6045,-4.611,-4.5874,-4.5781,-4.5801,-4.6133,-4.6308,-4.6289,-4.5937,-4.5781,-4.5723,-4.4844,-4.4277,-4.3906,-4.3317,-4.2495,-4.1711,-4.219,-4.165,-4.0801,0.0,0.0,-2.7974,-2.8426,0.0,0.0,0.0,0.0,0.0,0.0,-3.0404,-3.0404,0.0,0.0,0.0,-3.0461,0.0,0.0,0.0,0.0,0.0,0.0,0.0,0.0,0.0,0.0,0.0,0.0,0.0,0.0,0.0,0.0,-3.7185,-3.6601,0.0,-3.6972,0.0,0.0,0.0,0.0,-3.368,-3.3699,-3.3622,-3.3018,0.0,0.0,0.0,0.0,0.0,0.0,0.0,0.0,-3.05,-3.0577,-3.0904,-3.2275,-3.3993,-3.5724,-3.6882,0.0,0.0,-4.1715,-4.2212,0.0,0.0,0.0,0.0,0.0,0.0,0.0,0.0,0.0,0.0,0.0,0.0,0.0,0.0,0.0,0.0,0.0,0.0,0.0,0.0,0.0,0.0,0.0,0.0,0.0,0.0,0.0,0.0,0.0,-4.5594,-4.5648,-4.5776,-4.5778,-4.5842,0.0,-4.5227,-4.4883,-4.4902,-4.5703,-4.6055,-4.6016,-4.5234,-4.4883,-4.4805,-4.3945,-4.3105,-4.2382,-4.2244,-4.1696,-4.0962,-4.0831,-4.0752,-4.074,0.0,0.0,-2.8128,-2.8452,0.0,0.0,0.0,0.0,-3.0404,-3.0404,-3.0404,-3.0404,-3.0404,-2.9794,0.0,-2.9482,-2.801,0.0,0.0,0.0,0.0,0.0,0.0,0.0,0.0,0.0,0.0,0.0,0.0,0.0,0.0,0.0,0.0,-3.5455,0.0,-3.5364,0.0,0.0,0.0,-3.2549,-3.2765,-3.2859,-3.2779,-3.2192,-3.1852,0.0,0.0,0.0,0.0,0.0,0.0,0.0,-3.1192,-3.1852,-3.2179,-3.1212,-3.295,-3.5138,-3.4954,-3.6985,0.0,0.0,0.0,0.0,0.0,0.0,0.0,0.0,0.0,0.0,0.0,0.0,0.0,0.0,0.0,0.0,0.0,0.0,0.0,0.0,0.0,0.0,0.0,0.0,0.0,0.0,0.0,0.0,0.0,0.0,0.0,-4.5594,-4.5594,-4.562,-4.5643,-4.5073,-4.486,0.0,-4.4246,-4.3936,-4.3984,-4.418,-4.4258,-4.4258,-4.4062,-4.3984,-4.3906,-4.3047,-4.2578,-4.2324,-4.1561,-4.1103,-4.0847,-4.0805,-4.0785,-4.08,0.0,0.0,0.0,0.0,0.0,0.0,0.0,0.0,-3.1308,-3.0519,-3.0404,-3.0231,-2.9813,-2.9371,0.0,0.0,-2.7518,-2.7203,0.0,0.0,0.0,0.0,0.0,0.0,0.0,0.0,0.0,0.0,0.0,0.0,0.0,0.0,0.0,-3.5685,0.0,-3.5097,0.0,0.0,-3.1724,-3.159,-3.176,-3.1887,-3.1962,-3.1763,-3.1448,-3.1019,-3.0558,0.0,0.0,0.0,0.0,0.0,0.0,0.0,-3.1744,-3.1662,-3.3071,-3.486,-3.5775,0.0,0.0,0.0,0.0,0.0,0.0,0.0,0.0,0.0,0.0,0.0,0.0,0.0,0.0,0.0,0.0,0.0,0.0,0.0,0.0,0.0,0.0,0.0,0.0,0.0,0.0,0.0,0.0,0.0,0.0,-4.5594,-4.5594,-4.5594,-4.5594,-4.5402,-4.4979,-4.4662,-4.437,-4.4066,-4.3329,-4.2816,-4.2539,-4.332,-4.3691,-4.3672,-4.3262,-4.3086,-4.3008,-4.2168,-4.1796,-4.1689,-4.1181,-4.0917,-4.0805,-4.087,-4.0857,-4.082,0.0,0.0,0.0,0.0,0.0,0.0,0.0,0.0,0.0,-3.0577,-3.0404,-3.0077,-2.9204,-2.8989,-2.8608,0.0,0.0,0.0,-2.7906,0.0,0.0,0.0,0.0,0.0,0.0,0.0,0.0,0.0,0.0,0.0,0.0,0.0,0.0,-3.5931,0.0,0.0,0.0,0.0,-3.0696,-3.065,-3.0742,-3.0909,-3.1093,-3.1373,-3.1019,-3.0404,-3.0404,-3.0404,-3.0423,-3.0577,0.0,0.0,0.0,0.0,-3.0774,-3.2173,-3.3153,-3.4282,0.0,0.0,0.0,0.0,0.0,0.0,0.0,0.0,0.0,0.0,0.0,0.0,0.0,0.0,0.0,0.0,0.0,0.0,0.0,0.0,0.0,0.0,0.0,0.0,0.0,0.0,0.0,0.0,0.0,0.0,-4.5594,-4.5594,-4.5537,-4.5383,-4.5383,-4.496,-4.4105,-4.4054,-4.3747,-4.3145,-4.2423,-4.176,-4.125,-4.2637,-4.3262,-4.3223,-4.2519,-4.2187,-4.2148,-4.1465,-4.1126,-4.0994,-4.0966,-4.0896,-4.08,-4.0902,-4.0893,-4.0843,0.0,0.0,0.0,0.0,0.0,0.0,0.0,0.0,0.0,0.0,-3.0404,-3.0077,-2.9204,-2.8526,-2.7797,-2.6947,-2.6199,-2.6124,0.0,0.0,0.0,0.0,0.0,0.0,0.0,0.0,0.0,0.0,0.0,0.0,0.0,0.0,0.0,-3.4431,0.0,0.0,0.0,0.0,-2.9612,-2.9622,-2.9794,-2.9991,-3.0192,-3.0478,-3.05,-3.0404,-3.0404,-3.0404,-3.0519,-3.1269,-3.1037,0.0,0.0,0.0,0.0,-3.0837,-3.1487,-3.2348,0.0,0.0,0.0,0.0,0.0,0.0,0.0,0.0,0.0,0.0,0.0,0.0,0.0,0.0,0.0,0.0,0.0,0.0,0.0,0.0,0.0,0.0,0.0,0.0,0.0,0.0,0.0,0.0,0.0,0.0,-4.5594,-4.5594,-4.5248,-4.4489,-4.447,-4.4085,-4.3278,-4.2533,-4.2165,-4.2185,-4.1497,-4.1175,-4.1211,-4.1426,-4.1523,-4.1523,-4.1406,-4.1367,-4.1348,-4.123,-4.1126,-4.099,-4.087,-4.077,-4.0713,-4.0729,-4.0762,-4.0816,0.0,0.0,0.0,0.0,0.0,0.0,0.0,0.0,0.0,0.0,0.0,-3.0077,-2.9204,-2.8444,-2.7659,-2.6788,-2.603,0.0,0.0,0.0,0.0,0.0,0.0,0.0,0.0,0.0,0.0,0.0,0.0,0.0,0.0,-3.359,-3.4375,0.0,0.0,0.0,0.0,0.0,-2.9594,-2.8886,-2.9472,-3.0204,-3.0899,-3.0528,-3.0981,-3.1673,-3.0731,-3.0404,-3.0462,-3.0846,-3.0731,-3.0535,-3.0999,0.0,0.0,0.0,0.0,0.0,-3.4565,0.0,0.0,0.0,0.0,0.0,0.0,0.0,0.0,0.0,0.0,0.0,0.0,0.0,0.0,0.0,0.0,0.0,0.0,0.0,0.0,0.0,0.0,0.0,0.0,0.0,0.0,0.0,0.0,-4.5075,-4.5575,-4.5152,-4.4701,-4.4316,-4.3855,-4.322,-4.2374,-4.1981,-4.1638,-4.132,-4.1106,-4.1077,-4.1191,-4.1191,-4.1191,-4.1191,-4.1191,-4.1191,-4.1191,-4.1126,-4.1019,-4.087,-4.0785,-4.074,-4.0709,-4.0732,-4.0817,-4.0925,0.0,0.0,0.0,0.0,0.0,0.0,0.0,0.0,0.0,0.0,0.0,-3.0077,-2.9204,0.0,0.0,0.0,-2.6039,0.0,0.0,0.0,0.0,0.0,0.0,0.0,0.0,0.0,0.0,0.0,0.0,0.0,-3.4767,-3.3925,-3.5634,0.0,-3.7389,0.0,0.0,0.0,0.0,-2.9405,-3.0072,-3.1009,-3.1987,-3.1769,-3.2462,-3.3333,-3.1635,-3.1038,0.0,0.0,0.0,0.0,0.0,0.0,0.0,0.0,0.0,0.0,0.0,0.0,0.0,0.0,0.0,0.0,0.0,0.0,0.0,0.0,0.0,0.0,0.0,0.0,0.0,0.0,0.0,0.0,0.0,0.0,0.0,0.0,0.0,0.0,0.0,0.0,0.0,0.0,0.0,-4.4374,-4.5229,-4.4451,-4.3893,-4.3662,-4.3085,-4.2354,-4.1489,-4.147,-4.1234,-4.0775,-4.0899,-4.1023,-4.115,-4.1172,-4.1191,-4.1191,-4.1191,-4.1191,-4.1191,-4.1082,-4.0955,-4.0789,-4.0738,-4.0713,-4.0715,-4.0775,-4.088,-4.1023,0.0,0.0,0.0,0.0,0.0,0.0,0.0,0.0,0.0,0.0,0.0,-3.0077,-2.9204,-2.8444,-2.7675,-2.6865,-2.6061,0.0,0.0,0.0,0.0,0.0,0.0,0.0,0.0,0.0,0.0,0.0,0.0,0.0,-3.4982,-3.5173,-3.7047,-4.0119,-3.7483,-3.4972,-3.264,0.0,0.0,-3.1921,-3.2024,-3.2384,-3.3006,-3.4615,-3.5288,-3.5135,-3.3391,0.0,0.0,0.0,0.0,0.0,0.0,0.0,0.0,0.0,0.0,0.0,0.0,0.0,0.0,0.0,0.0,0.0,0.0,0.0,0.0,0.0,0.0,0.0,0.0,0.0,0.0,0.0,0.0,0.0,0.0,0.0,0.0,0.0,0.0,0.0,0.0,0.0,0.0,0.0,0.0,-4.3528,-4.4316,-4.3605,-4.2777,-4.1962,-4.1885,-4.145,-4.0573,-4.0573,-4.0612,-4.0709,-4.0775,-4.0877,-4.1002,-4.1149,-4.1191,-4.1191,-4.1191,-4.1191,-4.1191,-4.1191,-4.1048,-4.0797,-4.0793,-4.0762,-4.0715,-4.0775,-4.088,-4.1023,0.0,0.0,0.0,0.0,0.0,0.0,0.0,0.0,0.0,0.0,0.0,0.0,0.0,-2.8827,-2.7948,-2.7665,-2.6434,0.0,0.0,0.0,0.0,0.0,0.0,0.0,0.0,0.0,0.0,0.0,0.0,-2.8819,-3.2705,-3.3098,-3.412,-3.5628,-3.609,-3.5495,-3.4014,-3.2173,0.0,-3.144,-3.2525,-3.3614,-3.4635,-3.525,-3.6173,-3.6892,0.0,0.0,0.0,0.0,0.0,0.0,0.0,-2.9405,-2.9228,-2.8455,-2.8847,0.0,0.0,0.0,0.0,0.0,0.0,0.0,0.0,0.0,0.0,0.0,0.0,0.0,0.0,0.0,0.0,0.0,0.0,0.0,0.0,0.0,0.0,0.0,0.0,0.0,0.0,0.0,0.0,0.0,0.0,0.0,-4.3462,-4.2739,-4.2124,-4.1808,-4.1258,-4.0823,-4.0496,-4.0496,-4.059,-4.0757,-4.08,-4.0917,-4.1128,-4.1171,-4.1191,-4.1191,-4.1191,-4.1191,-4.1191,-4.1104,-4.1021,-4.092,-4.0824,-4.0836,-4.0903,-4.0914,-4.1,-4.1148,0.0,0.0,0.0,-3.5002,0.0,-3.2248,-3.2711,-3.1424,-3.0519,-3.0808,0.0,0.0,0.0,0.0,-2.8334,-2.809,-2.7112,-2.6395,-2.6129,0.0,0.0,0.0,0.0,0.0,0.0,0.0,0.0,0.0,0.0,0.0,0.0,-3.1463,-3.2334,-3.3272,-3.4328,-3.4728,0.0,0.0,0.0,-3.226,0.0,-3.4937,-3.6038,0.0,-3.8123,-3.8661,0.0,0.0,0.0,0.0,0.0,0.0,0.0,-2.9043,-2.8055,-2.7852,-2.8405,0.0,-3.0777,0.0,0.0,0.0,0.0,0.0,0.0,0.0,0.0,0.0,0.0,0.0,0.0,0.0,0.0,0.0,0.0,0.0,0.0,0.0,0.0,0.0,0.0,0.0,0.0,0.0,0.0,0.0,0.0,0.0,-4.2588,-4.1835,-4.1354,-4.1354,-4.0804,-4.0496,-4.0496,-4.0496,-4.0597,-4.0761,-4.0524,-4.0505,-4.0699,-4.0449,-4.0332,-4.0332,-4.0332,-4.0664,-4.1191,-4.1104,-4.1049,-4.0992,-4.0908,-4.092,-4.0996,-4.0996,-4.1081,-4.1191,-3.6175,-3.5439,-3.4742,-3.4723,-3.3278,-3.2222,-3.2493,-3.1358,-3.0763,-3.1621,0.0,0.0,0.0,0.0,0.0,-2.8096,-2.809,-2.7775,-2.6994,-2.6901,0.0,0.0,0.0,0.0,0.0,0.0,0.0,0.0,0.0,0.0,0.0,0.0,-3.2034,-3.3487,-3.2299,-3.2487,-3.371,0.0,-3.4061,-3.4691,0.0,-3.6298,-3.7135,0.0,0.0,0.0,-3.9631,-3.8777,0.0,-3.6122,0.0,0.0,0.0,-2.8369,-2.5898,-2.6758,-2.7617,0.0,0.0,0.0,0.0,0.0,0.0,0.0,0.0,0.0,0.0,0.0,0.0,0.0,0.0,0.0,0.0,0.0,0.0,0.0,0.0,0.0,0.0,0.0,0.0,0.0,0.0,0.0,0.0,0.0,0.0,-4.0558,-4.1695,-4.0931,-4.0477,-4.0496,-4.0458,-4.0439,-4.0458,-4.0439,-4.0496,-4.0632,-3.9902,-3.9598,-3.9632,-3.8922,-3.8594,-3.8594,-3.8594,-3.9551,-4.1113,-4.1113,-4.1069,-4.0959,-4.0939,-4.0939,-4.0939,-4.0939,-4.1023,-4.1152,-3.582,-3.5793,-3.5664,-3.5085,-3.3914,-3.3129,-3.3405,-3.2562,-3.2077,0.0,0.0,0.0,-3.1737,-3.0185,-2.9102,-2.8944,-2.843,-2.8004,-2.7773,-2.7215,-2.6809,-2.6584,-2.7656,-2.7846,0.0,0.0,0.0,0.0,0.0,0.0,0.0,0.0,0.0,0.0,-3.0763,-3.1277,-3.1484,-3.1484,0.0,0.0,-3.5163,-3.6657,0.0,0.0,0.0,0.0,0.0,-3.965,-3.878,0.0,-3.6234,-3.4312,0.0,0.0,-2.6699,-2.6934,-2.7617,0.0,-2.8573,0.0,0.0,0.0,0.0,0.0,0.0,0.0,0.0,0.0,0.0,0.0,0.0,0.0,0.0,0.0,0.0,0.0,0.0,0.0,0.0,0.0,0.0,0.0,0.0,0.0,0.0,0.0,-4.0024,-3.9986,-4.0539,-3.9967,-3.99,-4.0477,-3.9315,-3.8988,-3.9631,-3.9008,-3.8782,-3.8967,-3.8762,-3.8756,-3.8903,-3.8691,-3.8594,-3.8594,-3.8594,-3.8867,-3.9316,-3.9316,-3.9667,-4.0134,-3.9508,-3.9254,-3.9254,-3.9254,-3.9686,-4.0176,-3.5596,-3.5653,-3.5727,-3.5476,-3.4396,-3.3828,-3.4556,-3.3522,-3.2974,0.0,0.0,0.0,-3.2256,-3.132,-3.0622,-3.0335,-2.955,-2.8776,-2.8099,-2.7626,-2.7054,-2.6397,-2.7236,-2.7636,-2.7493,0.0,0.0,0.0,0.0,0.0,0.0,0.0,0.0,0.0,-2.889,-2.9574,-2.971,-2.9429,0.0,0.0,-3.5652,0.0,0.0,-3.9931,-4.0412,0.0,0.0,0.0,-3.9734,-3.9262,-3.7514,0.0,0.0,-2.9957,-2.8412,-2.7734,-2.8378,0.0,0.0,0.0,0.0,0.0,0.0,0.0,0.0,0.0,0.0,0.0,0.0,0.0,0.0,0.0,0.0,0.0,0.0,0.0,0.0,0.0,0.0,0.0,0.0,0.0,0.0,0.0,0.0,-3.9747,-3.9683,-3.9656,-3.9762,-3.9138,-3.8969,-3.9438,-3.8507,-3.8238,-3.8738,-3.8257,-3.8092,-3.8291,-3.7937,-3.7869,-3.8047,-3.7676,-3.7519,-3.7519,-3.7519,-3.7715,-3.8027,-3.7676,-3.8242,-3.9316,-3.8809,-3.8594,-3.8594,-3.8594,-3.8926,-3.9297,0.0,-3.5304,-3.53,-3.5801,-3.487,-3.4488,-3.5828,-3.4516,-3.3953,0.0,-3.4334,-3.3314,-3.3314,-3.3064,-3.2641,-3.2025,-3.1,-2.9839,-2.85,-2.8154,-2.7365,-2.5935,-2.6535,-2.7293,-2.8125,-2.8242,0.0,0.0,0.0,0.0,0.0,0.0,0.0,0.0,-2.7026,-2.7726,-2.8239,-2.8051,0.0,-3.3764,-3.6129,-3.7507,0.0,0.0,-4.1104,0.0,-4.1373,-4.1162,-4.0496,-4.04,-3.8368,0.0,0.0,-3.1699,-3.0664,-2.9178,-2.9737,0.0,-3.0057,-3.0422,0.0,0.0,0.0,0.0,-3.2832,-3.2637,0.0,0.0,0.0,0.0,0.0,0.0,0.0,0.0,0.0,0.0,0.0,0.0,0.0,0.0,0.0,0.0,0.0,-3.8762,-3.884,-3.9166,-3.9339,-3.9444,-3.9396,-3.8519,-3.8046,-3.8142,-3.7969,-3.7853,-3.7853,-3.7777,-3.7815,-3.7996,-3.723,-3.6967,-3.7129,-3.6348,-3.5996,-3.5996,-3.5996,-3.6445,-3.7109,-3.6328,-3.6973,-3.8457,-3.8359,-3.8301,-3.8301,-3.8301,-3.8379,-3.8437,-3.55,-3.5453,-3.5514,-3.5831,-3.5658,-3.5802,-3.6723,-3.6532,-3.6587,-3.7406,-3.6603,-3.5962,-3.5962,-3.4122,-3.3122,-3.3667,-3.1679,-3.0569,-3.0945,-2.911,-2.7869,-2.7558,-2.7123,-2.6992,-2.7173,-2.7908,-2.7969,0.0,0.0,0.0,0.0,0.0,0.0,0.0,-2.6312,-2.6762,-2.691,-2.9704,0.0,-3.2199,-3.3358,0.0,-3.9111,-3.9604,-4.0092,-4.0516,-4.0689,-4.065,-4.04,0.0,-3.8684,-3.7307,0.0,0.0,0.0,-3.1674,0.0,-3.167,-3.1695,-3.2238,-3.2709,-3.2304,0.0,0.0,0.0,-3.1816,0.0,0.0,0.0,0.0,0.0,0.0,0.0,0.0,0.0,0.0,0.0,0.0,0.0,0.0,0.0,0.0,0.0,-3.9074,-3.8995,-3.9694,-3.8988,-3.8958,-3.989,-3.8703,-3.8315,-3.9015,-3.77,-3.6942,-3.6942,-3.6308,-3.6057,-3.6209,-3.6034,-3.6055,-3.625,-3.6074,-3.5996,-3.5996,-3.5996,-3.6094,-3.623,-3.6074,-3.6601,-3.748,-3.6777,-3.6504,-3.6504,-3.6504,-3.6953,-3.7441,-3.55,-3.55,-3.5714,-3.6369,-3.6287,-3.6551,-3.7887,-3.764,-3.7557,-3.8289,-3.8151,-3.768,-3.6788,-3.5565,-3.4622,-3.4225,-3.2622,-3.1481,-3.1077,-2.9888,-2.8637,-2.7404,-2.7034,-2.7064,-2.7536,-2.8044,-2.8301,-2.8301,0.0,0.0,0.0,0.0,0.0,0.0,-2.6375,-2.7007,-2.8115,0.0,-3.0343,-3.1736,-3.4377,0.0,-3.8738,-3.9573,-4.015,-4.0496,-4.0496,-4.0496,-4.0381,-3.9573,-3.8731,0.0,0.0,-3.5678,-3.4777,0.0,-3.3501,-3.3592,0.0,0.0,-3.3189,-3.2869,0.0,0.0,0.0,0.0,-3.1797,0.0,0.0,0.0,0.0,0.0,0.0,0.0,0.0,0.0,0.0,0.0,0.0,0.0,0.0,0.0,0.0,-3.9135,-3.9061,-3.9468,-3.8771,-3.8642,-3.9404,-3.8115,-3.7546,-3.7988,-3.6769,-3.6096,-3.6096,-3.5692,-3.5574,-3.5707,-3.5707,-3.5804,-3.5996,-3.5996,-3.5996,-3.5996,-3.5996,-3.5996,-3.5996,-3.5996,-3.6269,-3.6601,-3.6172,-3.5996,-3.5996,-3.5996,-3.6289,-3.6582,-3.5455,-3.5453,-3.5733,-3.678,-3.663,-3.6967,-3.8677,-3.8206,-3.7947,-3.8793,-3.9262,-3.8988,-3.7584,0.0,0.0,0.0,0.0,-3.2891,0.0,0.0,-2.9756,-2.7757,-2.7255,-2.7381,-2.8168,-2.841,-2.871,-2.9101,0.0,0.0,0.0,0.0,0.0,0.0,0.0,0.0,0.0,0.0,0.0,-3.2134,0.0,-3.7565,-3.7469,-3.9323,-4.0015,-4.0054,-4.0381,-4.0496,-4.0381,-3.9573,0.0,-3.8075,-3.7125,-3.6947,0.0,0.0,0.0,0.0,0.0,0.0,0.0,0.0,0.0,-3.2538,0.0,0.0,0.0,-3.2676,0.0,0.0,0.0,0.0,0.0,0.0,0.0,0.0,0.0,0.0,0.0,0.0,0.0,0.0,0.0,-3.8544,-3.8465,-3.8633,-3.8078,-3.7961,-3.8451,-3.7436,-3.681,-3.6692,-3.6077,-3.5654,-3.55,-3.55,-3.5562,-3.5678,-3.5696,-3.5797,-3.5975,-3.5996,-3.5996,-3.5996,-3.5996,-3.5996,-3.5996,-3.5996,-3.5996,-3.5996,-3.5996,-3.5996,-3.5996,-3.5996,-3.5996,-3.5996,-3.5299,-3.5304,-3.5399,-3.6243,-3.6545,-3.705,-3.8202,-3.8294,-3.8464,-3.9152,0.0,0.0,0.0,0.0,0.0,0.0,0.0,0.0,-3.5942,0.0,-3.1435,-3.1139,-2.9023,-2.793,-2.811,-2.8939,-2.8681,-2.7305,0.0,0.0,0.0,0.0,-2.6623,-2.6762,-2.7917,0.0,0.0,0.0,-3.1878,0.0,-3.5947,-3.5968,0.0,-3.7353,-3.8277,-3.8469,-3.9977,-4.0496,-4.0381,0.0,-3.9227,-3.889,0.0,-3.7346,0.0,0.0,0.0,0.0,0.0,0.0,0.0,0.0,-3.3789,0.0,0.0,0.0,-3.1894,-3.1309,0.0,0.0,0.0,0.0,0.0,0.0,0.0,0.0,0.0,0.0,0.0,0.0,0.0,0.0,0.0,0.0,-3.6199,-3.6931,-3.6255,-3.6237,-3.7246,-3.7367,-3.719,-3.6731,-3.6615,-3.6212,-3.5519,-3.55,-3.554,-3.5616,-3.5663,-3.5772,-3.5911,-3.5974,-3.5996,-3.5996,-3.5996,-3.5996,-3.5996,-3.5996,-3.5996,-3.5996,-3.5996,-3.5996,-3.5996,-3.5996,-3.5996,-3.5996,-3.5369,-3.5289,-3.5344,-3.6165,-3.6147,-3.6311,-3.723,-3.8352,-3.9509,0.0,0.0,0.0,0.0,0.0,0.0,0.0,0.0,-3.7911,0.0,0.0,0.0,-3.1775,-3.0259,-2.9225,-2.8752,-2.8738,-2.8651,-2.8449,-2.8282,0.0,0.0,0.0,-2.7947,-2.8816,-2.9095,0.0,-3.2164,0.0,0.0,0.0,0.0,0.0,0.0,-3.7918,-3.9457,-3.9534,-4.0246,-4.0496,-4.0381,0.0,-3.895,0.0,0.0,0.0,0.0,0.0,0.0,0.0,0.0,0.0,0.0,0.0,0.0,0.0,-3.1926,0.0,-3.1484,0.0,0.0,0.0,0.0,0.0,0.0,0.0,0.0,0.0,0.0,0.0,0.0,0.0,0.0,0.0,0.0,0.0,0.0,0.0,0.0,-3.613,-3.7052,-3.691,-3.6771,-3.6704,-3.625,-3.5846,-3.55,-3.55,-3.5534,-3.5591,-3.5675,-3.5766,-3.5903,-3.5973,-3.5996,-3.5996,-3.5996,-3.5996,-3.5996,-3.5996,-3.5996,-3.5996,-3.5996,-3.5996,-3.5996,-3.5996,-3.5996,-3.5996,-3.5289,0.0,-3.5198,-3.5851,-3.5706,-3.5882,-3.6994,-3.8855,-4.0544,0.0,0.0,0.0,-4.247,-4.172,0.0,0.0,-4.1477,-4.0335,0.0,0.0,-3.5968,-3.3526,-3.1959,0.0,0.0,-2.958,-2.9315,-2.9508,-2.8849,0.0,0.0,0.0,0.0,-2.9738,0.0,-3.1569,-3.4036,0.0,0.0,-3.4018,-3.4579,-3.4891,-3.5334,-3.8592,-4.0092,-4.0496,-4.0496,-4.0496,-4.0381,-3.9573,-3.8873,0.0,-3.8815,0.0,0.0,0.0,0.0,0.0,-3.5788,0.0,0.0,0.0,0.0,0.0,0.0,0.0,0.0,0.0,0.0,0.0,0.0,0.0,0.0,0.0,0.0,0.0,0.0,0.0,0.0,0.0,0.0,0.0,0.0,0.0,0.0,0.0,0.0,0.0,-3.6506,-3.6397,-3.6313,-3.6358,-3.5808,-3.55,-3.55,-3.55,-3.5528,-3.5571,-3.5648,-3.5719,-3.5816,-3.5893,-3.593,-3.5974,-3.5974,-3.5975,-3.5996,-3.5996,-3.5996,-3.5996,-3.5996,-3.5996,-3.5996,-3.5996,-3.5996,-3.5996,-3.488,-3.4898,0.0,0.0,-3.534,-3.6147,-3.8056,-3.9996,-4.138,0.0,0.0,0.0,0.0,0.0,0.0,0.0,0.0,-4.2624,-4.1692,0.0,-3.7911,-3.7796,-3.4609,-3.2837,0.0,-3.2155,-3.1025,-2.9503,-2.9418,-2.9369,0.0,0.0,0.0,0.0,0.0,-3.1748,-3.2654,-3.397,-3.612,-3.8603,-3.7736,-3.8546,-4.0092,0.0,-3.9084,-4.0496,-4.0496,0.0,0.0,-3.9573,-3.9284,0.0,0.0,0.0,0.0,0.0,0.0,0.0,0.0,0.0,0.0,-3.3372,0.0,0.0,0.0,0.0,-3.2168,0.0,0.0,0.0,0.0,0.0,0.0,0.0,0.0,0.0,0.0,0.0,0.0,0.0,0.0,0.0,0.0,0.0,0.0,0.0,0.0,0.0,-3.5098,-3.5898,-3.6058,-3.5551,-3.5519,-3.55,-3.55,-3.55,-3.55,-3.5494,-3.5566,-3.5616,-3.5606,-3.569,-3.5775,-3.5903,-3.5903,-3.5945,-3.5996,-3.5996,-3.5996,-3.5996,-3.5996,-3.5996,-3.5996,-3.5996,-3.5996,-3.5996,0.0,0.0,0.0,0.0,0.0,-3.5299,-3.806,-3.9628,0.0,0.0,0.0,0.0,0.0,0.0,-4.4355,0.0,0.0,-4.4162,-4.2758,-4.1316,0.0,0.0,0.0,-3.4911,0.0,0.0,-3.1829,-3.0153,-3.0137,-2.9831,0.0,0.0,0.0,0.0,0.0,-3.2689,0.0,0.0,0.0,0.0,0.0,-3.8908,-4.0439,0.0,0.0,-4.0496,-4.0496,-4.0496,0.0,-4.0189,-3.9361,-3.8488,-3.8757,-3.77,-3.6385,-3.6635,-3.6327,0.0,0.0,0.0,-3.5238,-3.4104,0.0,0.0,0.0,0.0,0.0,0.0,0.0,0.0,0.0,0.0,0.0,0.0,0.0,0.0,0.0,0.0,0.0,0.0,0.0,0.0,0.0,0.0,0.0,0.0,0.0,0.0,0.0,-3.5363,-3.5501,-3.5493,-3.55,-3.55,-3.55,-3.55,-3.55,-3.55,-3.5579,-3.5611,-3.5596,-3.5679,-3.5769,-3.5901,-3.5901,-3.5944,-3.5996,-3.5996,-3.5996,-3.5996,-3.5996,-3.5996,-3.5996,-3.5996,-3.5996,-3.5996,-3.613,0.0,0.0,0.0,0.0,0.0,0.0,0.0,0.0,0.0,-4.4316,0.0,-4.5479,0.0,-4.4998,0.0,-4.5594,-4.4902,-4.3201,-4.2566,0.0,-4.0258,-3.8546,0.0,0.0,0.0,-3.3083,-3.1385,-3.1105,-3.0528,0.0,0.0,0.0,0.0,0.0,0.0,0.0,0.0,-3.6869,0.0,0.0,-3.9534,0.0,0.0,-4.0496,-4.0496,0.0,-4.0496,-4.0458,-4.0169,-3.9361,-3.8507,-3.8757,-3.7507,-3.6038,-3.6538,-3.6135,-3.55,-3.55,-3.55,0.0,-3.4471,-3.3851,0.0,-3.2474,0.0,0.0,0.0,0.0,0.0,0.0,0.0,0.0,0.0,0.0,0.0,0.0,0.0,0.0,0.0,0.0,0.0,0.0,0.0,-3.321,-3.4452,0.0,0.0,0.0,0.0,-3.533,-3.5534,-3.5534,-3.5546,-3.5566,-3.5546,-3.5534,-3.554,-3.5564,-3.5568,-3.5574,-3.5606,-3.569,-3.5797,-3.5824,-3.5885,-3.5972,-3.5996,-3.5996,-3.5996,-3.5996,-3.5996,-3.5996,-3.5996,-3.5996,-3.5996,0.0,0.0,0.0,0.0,-3.7257,0.0,0.0,0.0,-4.4509,0.0,-4.5556,-4.5556,-4.5594,-4.5594,-4.5594,-4.5594,-4.5594,0.0,-4.3335,-4.3181,0.0,0.0,-4.0354,-3.9457,-3.9361,0.0,0.0,0.0,-3.2242,-3.1399,0.0,0.0,0.0,0.0,-3.0891,0.0,-3.3134,-3.5856,-3.788,-3.9346,-4.0162,-4.0496,-4.0496,-4.0496,-4.0496,-4.0496,-4.0496,-4.0477,-4.0323,-3.9554,-3.9246,-3.9034,-3.82,-3.7334,-3.6635,-3.6635,-3.6096,-3.55,-3.55,-3.55,-3.5308,-3.4468,0.0,0.0,0.0,0.0,-3.4496,0.0,0.0,0.0,0.0,0.0,0.0,0.0,0.0,0.0,0.0,0.0,0.0,0.0,0.0,0.0,0.0,0.0,-3.2909,-3.5392,-3.4014,0.0,0.0,0.0,-3.5522,-3.5605,-3.5611,-3.5635,-3.5703,-3.5644,-3.5596,-3.5605,-3.5534,-3.5507,-3.55,-3.55,-3.554,-3.5596,-3.5663,-3.5789,-3.5905,-3.5974,-3.5996,-3.5996,-3.5996,-3.5996,-3.5996,-3.5996,-3.5996,-3.5996,-3.7294,-3.7537,-3.7936,0.0,-3.8512,-3.9214,0.0,0.0,0.0,0.0,-4.5037,-4.4874,-4.5537,-4.5594,-4.5594,-4.5594,-4.5594,0.0,0.0,0.0,0.0,-4.3662,-4.2662,-4.1508,-4.0227,-3.8975,0.0,-3.389,0.0,0.0,-3.0403,0.0,0.0,0.0,0.0,0.0,-3.3936,-3.5058,-3.6862,-3.9019,-4.0079,-4.0496,0.0,0.0,-4.0496,-4.0496,-4.0496,-4.0112,-3.9573,-3.9381,-3.843,-3.7334,-3.7103,-3.6462,-3.5808,-3.5808,-3.5654,-3.55,-3.55,-3.55,-3.5442,-3.5212,-3.4687,-3.4166,0.0,0.0,0.0,0.0,0.0,0.0,0.0,0.0,0.0,0.0,0.0,0.0,0.0,0.0,0.0,0.0,0.0,0.0,0.0,-3.2396,-3.3163,-3.3806,-3.4019,0.0,0.0,0.0,0.0,-3.5605,-3.5611,-3.5635,-3.5703,-3.5682,-3.5646,-3.5611,-3.5574,-3.5552,-3.55,-3.55,-3.554,-3.5596,-3.5663,-3.5789,-3.5905,-3.5974,-3.5996,-3.5996,-3.5996,-3.5996,-3.5996,-3.5996,-3.5996,-3.5996,-3.8514,0.0,0.0,-4.0907,0.0,0.0,-4.2745,0.0,0.0,-4.4836,-4.4605,0.0,-4.4979,-4.5364,-4.5594,-4.5594,-4.5594,0.0,0.0,0.0,0.0,-4.4316,-4.3874,-4.2989,-4.167,-4.0458,0.0,-3.4776,0.0,0.0,-3.0385,0.0,0.0,0.0,0.0,-3.1968,0.0,-3.555,-3.7273,-3.8899,-4.0044,0.0,0.0,-4.0496,-4.0285,-3.9977,-3.9977,-3.9688,-3.9188,-3.8411,-3.7507,-3.6635,-3.6288,-3.5865,-3.55,-3.55,-3.55,-3.55,-3.55,-3.55,-3.55,-3.55,-3.5135,-3.4776,-3.4776,-3.4776,-3.4783,0.0,0.0,0.0,0.0,0.0,0.0,0.0,0.0,0.0,0.0,0.0,0.0,0.0,0.0,0.0,0.0,-3.1574,-3.2441,-3.3144,-3.3651,0.0,0.0,0.0,0.0,-3.5648,-3.5638,-3.5709,-3.5836,-3.579,-3.5736,-3.5633,-3.5616,-3.5548,-3.55,-3.55,-3.5515,-3.5556,-3.5626,-3.569,-3.5765,-3.5834,-3.5872,-3.5872,-3.5872,-3.5872,-3.5872,-3.5872,-3.5929,-3.5996,0.0,0.0,0.0,0.0,0.0,0.0,0.0,-4.4357,0.0,-4.4451,0.0,-4.447,-4.447,-4.5152,-4.5594,-4.5594,0.0,-4.5287,-4.4509,-4.519,-4.5267,-4.4489,-4.447,-4.4047,-4.3124,-4.1489,0.0,0.0,0.0,0.0,0.0,0.0,0.0,0.0,0.0,0.0,0.0,-3.6315,-3.8065,0.0,-3.9898,-4.0419,-4.0496,-4.0381,-3.9919,-3.9265,-3.9034,-3.895,-3.8719,-3.7219,-3.6635,-3.6423,-3.5712,-3.55,-3.55,-3.55,-3.55,-3.55,-3.55,-3.55,-3.55,-3.55,-3.55,-3.55,-3.55,-3.55,-3.55,-3.55,-3.5546,-3.5585,0.0,0.0,0.0,0.0,0.0,0.0,0.0,0.0,0.0,0.0,0.0,0.0,0.0,-3.1089,-3.1777,-3.3092,0.0,0.0,0.0,0.0,0.0,-3.5507,-3.5642,0.0,-3.5995,0.0,-3.5845,-3.5703,-3.5629,-3.5571,-3.55,-3.55,-3.55,-3.5488,-3.5566,-3.5611,-3.5601,-3.5663,-3.5707,-3.5707,-3.5707,-3.5707,-3.5707,-3.5707,-3.5806,-3.5955,0.0,0.0,0.0,0.0,0.0,-4.4652,-4.4921,-4.4575,-4.4566,-4.5287,-4.5364,-4.5364,-4.5364,-4.5518,-4.5594,-4.5594,-4.5594,0.0,0.0,0.0,0.0,-4.5383,-4.5364,-4.4662,-4.3124,-4.2104,-3.9577,0.0,-3.4622,-3.2891,0.0,0.0,0.0,0.0,0.0,0.0,-3.3026,-3.5058,0.0,-3.8224,-3.9135,-3.9919,-4.0439,-3.9765,-3.9419,-3.9111,-3.768,-3.7161,-3.7123,-3.6788,-3.625,-3.5692,-3.5538,-3.55,-3.55,-3.55,-3.55,-3.55,-3.55,-3.55,-3.55,-3.55,-3.55,-3.55,-3.55,-3.55,-3.55,-3.55,-3.5508,-3.5534,-3.559,0.0,0.0,0.0,0.0,0.0,0.0,0.0,0.0,0.0,0.0,0.0,0.0,0.0,-3.3782,0.0,0.0,0.0,0.0,0.0,0.0,0.0,-3.5294,0.0,0.0,0.0,-3.5897,-3.5707,-3.5689,-3.5626,-3.55,-3.55,-3.55,-3.5488,-3.5566,-3.5611,-3.5601,-3.5663,-3.5707,-3.5707,-3.5707,-3.5707,-3.5707,-3.5707,-3.5726,-3.575,0.0,0.0,0.0,0.0,0.0,0.0,0.0,-4.513,0.0,-4.494,-4.494,-4.494,-4.494,-4.5325,-4.5594,-4.5594,-4.5594,-4.5594,-4.5594,-4.5594,-4.5594,-4.5594,-4.5594,0.0,-4.3739,-4.2893,-4.0604,-3.6796,-3.5507,-3.3564,0.0,0.0,0.0,0.0,0.0,-3.2141,0.0,0.0,0.0,-3.8104,-3.94,-4.015,-4.0419,-3.9611,-3.9015,-3.845,-3.7161,-3.6423,-3.6077,-3.6077,-3.5827,-3.55,-3.55,-3.55,-3.55,-3.55,-3.55,-3.55,-3.55,-3.5391,-3.5297,-3.5297,-3.519,-3.5122,-3.5266,-3.4933,-3.479,-3.5383,-3.5135,-3.4982,-3.5507,-3.5336,0.0,0.0,0.0,0.0,0.0,0.0,0.0,0.0,0.0,0.0,0.0,0.0,0.0,0.0,0.0,0.0,0.0,0.0,0.0,0.0,0.0,0.0,0.0,0.0,0.0,-3.5707,-3.5707,-3.563,-3.55,-3.55,-3.55,-3.5507,-3.5534,-3.5552,-3.5558,-3.5574,-3.56,-3.56,-3.56,-3.56,-3.56,-3.56,-3.56,-3.5601,0.0,-4.3565,0.0,0.0,-4.4606,0.0,-4.5419,-4.554,-4.5344,-4.4662,-4.4586,-4.4586,-4.4586,-4.519,-4.5594,-4.5594,-4.5594,-4.5594,-4.5594,-4.5594,-4.5594,-4.5594,-4.5594,-4.519,-4.4316,-4.3508,-4.1527,0.0,0.0,0.0,0.0,0.0,-3.0923,-3.0981,0.0,0.0,0.0,0.0,-3.7507,-3.8123,-3.9438,-4.0073,-4.0169,-3.9342,-3.8469,-3.7603,-3.675,-3.6038,-3.55,-3.55,-3.55,-3.55,-3.55,-3.55,-3.5493,-3.5432,-3.5405,-3.5391,-3.5354,-3.5182,-3.5008,-3.5008,-3.486,-3.4716,-3.4725,-3.4251,-3.4047,-3.4961,-3.4787,-3.4719,-3.5468,-3.5611,0.0,0.0,0.0,0.0,0.0,0.0,0.0,0.0,0.0,0.0,0.0,0.0,0.0,0.0,0.0,0.0,0.0,0.0,0.0,0.0,0.0,-3.4885,-3.5678,0.0,-3.5876,0.0,-3.5686,-3.5621,-3.55,-3.55,-3.55,-3.55,-3.55,-3.55,-3.55,-3.55,-3.55,-3.55,-3.55,-3.55,-3.55,-3.55,-3.55,-3.5521,0.0,0.0,0.0,0.0,0.0,0.0,0.0,-4.541,-4.5575,-4.5498,-4.5479,-4.5479,-4.5479,-4.5556,-4.5594,-4.5594,-4.5594,-4.5594,-4.5594,-4.5594,-4.5594,-4.5594,-4.5594,-4.519,-4.4316,-4.3508,-4.1816,0.0,0.0,0.0,0.0,0.0,-3.2679,-3.2679,0.0,0.0,0.0,-3.4417,-3.5892,-3.8007,-3.8161,-3.87,-3.9323,-3.845,-3.7584,-3.6712,-3.5904,-3.5558,-3.55,-3.55,-3.55,-3.55,-3.55,-3.55,-3.5446,-3.5207,-3.513,-3.5088,-3.4832,-3.4773,-3.4734,-3.4734,-3.4714,-3.4497,-3.3734,-3.3672,-3.3835,-3.3941,-3.4728,-3.5419,-3.5565,-3.5611,-3.5597,0.0,0.0,0.0,0.0,0.0,0.0,0.0,0.0,0.0,0.0,0.0,0.0,0.0,0.0,0.0,0.0,0.0,0.0,-3.3062,0.0,-3.461,-3.4648,-3.5479,0.0,-3.5703,-3.5644,-3.5566,-3.55,-3.55,-3.55,-3.55,-3.55,-3.55,-3.55,-3.55,-3.55,-3.55,-3.55,-3.55,-3.55,-3.55,-3.55,-3.5507,0.0,0.0,0.0,0.0,0.0,0.0,0.0,-4.5513,-4.5594,-4.5594,-4.5594,-4.5594,-4.5594,-4.5594,-4.5594,-4.5594,-4.5594,-4.5594,-4.5594,-4.5594,-4.5594,-4.5594,-4.5594,-4.5441,-4.5094,-4.3778,-4.2335,0.0,0.0,0.0,0.0,0.0,0.0,0.0,0.0,-3.5372,-3.5776,-3.6815,-3.7546,-3.8046,-3.8565,-3.8681,-3.8411,-3.7546,-3.7,-3.6596,-3.5788,-3.55,-3.55,-3.55,-3.55,-3.55,-3.55,-3.55,-3.5446,-3.5182,-3.5105,-3.5034,-3.4764,-3.4551,-3.4401,-3.4401,-3.4284,-3.4115,-3.3919,-3.3212,-3.2836,-3.3633,-3.3863,-3.3949,-3.3959,-3.3977,-3.4163,0.0,0.0,0.0,0.0,0.0,0.0,0.0,0.0,0.0,0.0,0.0,0.0,0.0,0.0,-3.22,-3.3519,0.0,0.0,-3.2236,0.0,-3.4534,-3.4507,-3.5352,-3.5733,-3.5648,-3.5616,-3.5548,-3.55,-3.55,-3.55,-3.55,-3.55,-3.55,-3.55,-3.55,-3.55,-3.55,-3.55,-3.55,-3.55,-3.55,-3.55,-3.55,-4.3515,0.0,-4.3695,0.0,-4.4414,-4.4612,-4.5222,-4.5312,-4.5312,-4.5312,-4.5312,-4.5371,-4.5577,-4.5594,-4.5594,-4.5594,-4.5594,-4.5594,-4.5594,-4.5594,-4.5594,-4.5594,-4.5594,0.0,-4.5594,-4.3951,-4.2912,-4.2547,-3.9123,0.0,0.0,-3.5834,0.0,0.0,-3.673,-3.6949,-3.6999,-3.8169,-3.8484,-3.8292,-3.8914,-3.8839,-3.8315,-3.77,-3.7161,-3.6635,-3.6058,-3.5846,-3.5846,-3.5846,-3.6019,-3.6154,-3.5654,-3.5654,-3.5753,-3.5239,-3.5205,-3.522,-3.471,-3.4311,-3.4074,-3.4074,-3.3769,-3.3506,-3.3691,-3.2555,-3.174,-3.2841,-3.2938,-3.2832,-3.2885,-3.2891,-3.3204,-3.4124,0.0,0.0,0.0,0.0,0.0,0.0,0.0,-3.3888,0.0,0.0,0.0,0.0,0.0,-3.2051,-3.3751,0.0,0.0,0.0,0.0,0.0,0.0,-3.5255,-3.5642,-3.5611,-3.5588,-3.5546,-3.55,-3.55,-3.55,-3.55,-3.55,-3.55,-3.55,-3.55,-3.55,-3.55,-3.55,-3.55,-3.55,-3.55,-3.55,-3.55,-4.3515,-4.3515,-4.3614,-4.394,-4.4016,-4.4132,-4.4553,-4.4606,-4.4606,-4.4606,-4.4606,-4.4853,-4.5522,-4.5594,-4.5594,-4.5594,-4.5594,-4.5594,-4.5594,-4.5594,-4.5594,0.0,0.0,-4.5594,-4.5594,-4.3951,-4.347,-4.4259,0.0,0.0,-4.04,-3.8719,-3.7969,-3.7962,-3.7623,-3.7489,-3.748,-3.7221,-3.7766,-3.8785,-3.8804,-3.8997,-3.9284,-3.9265,-3.82,-3.6692,-3.6692,-3.6692,-3.6692,-3.6692,-3.7257,-3.768,-3.6019,-3.6058,-3.6483,-3.542,-3.5477,-3.5644,-3.4498,-3.4006,-3.3802,-3.3802,-3.3201,-3.2619,-3.2632,-3.1577,-3.0748,-3.1232,-3.202,-3.2653,-3.2865,-3.2891,-3.3179,-3.4052,0.0,0.0,0.0,0.0,0.0,0.0,0.0,-3.299,-3.2916,0.0,0.0,0.0,0.0,0.0,-3.5475,0.0,0.0,-3.4154,-3.4384,0.0,-3.4299,-3.5165,-3.5591,-3.5605,-3.5528,-3.55,-3.55,-3.55,-3.55,-3.55,-3.55,-3.55,-3.55,-3.55,-3.55,-3.55,-3.55,-3.55,-3.55,-3.55,-3.55,-3.55,-4.3515,-4.3515,-4.3614,-4.394,-4.4001,-4.415,-4.454,-4.4593,-4.4593,-4.4593,-4.4593,-4.4682,-4.4889,-4.5118,-4.5342,0.0,-4.5594,-4.5594,0.0,-4.5594,-4.5594,-4.5594,-4.5594,-4.5594,-4.5594,-4.4489,-4.3778,-4.347,0.0,0.0,0.0,-3.915,-3.9188,-3.9692,-3.941,-3.9271,-3.9252,-3.8937,-3.8671,-3.8485,-3.8708,-3.8507,-3.8108,-3.8339,-3.8065,-3.7584,-3.7584,-3.7584,-3.7584,-3.7584,-3.7777,-3.7911,-3.7373,-3.7373,-3.749,-3.6965,-3.6369,-3.5775,-3.5231,-3.4463,-3.3807,-3.3807,-3.3605,-3.3275,-3.2729,-3.1559,-3.0646,-3.078,-3.1299,-3.1894,-3.2512,-3.2786,-3.3179,-3.4071,-3.4212,0.0,0.0,0.0,0.0,0.0,0.0,-3.4758,0.0,-3.4013,0.0,0.0,0.0,0.0,0.0,0.0,0.0,0.0,-3.4623,0.0,-3.4248,-3.5104,-3.5528,-3.5528,-3.5508,-3.55,-3.55,-3.55,-3.55,-3.55,-3.55,-3.55,-3.55,-3.55,-3.55,-3.55,-3.55,-3.55,-3.55,-3.55,-3.55,-3.55,-4.3515,-4.3515,-4.3582,-4.3772,-4.382,-4.3896,-4.4154,-4.4198,-4.4198,-4.4198,-4.4198,-4.4237,-4.4346,-4.4695,0.0,-4.5371,-4.5522,-4.5594,-4.5594,-4.5594,-4.5594,-4.5594,-4.5594,-4.5594,-4.5594,0.0,0.0,-4.4028,-4.2316,-4.0881,-3.9746,-3.9746,-4.0015,-4.0481,-4.0101,-3.9912,-3.9891,-3.9451,-3.9014,-3.8631,-3.8818,-3.8658,-3.8316,-3.8517,-3.8409,-3.8113,-3.8113,-3.8113,-3.8113,-3.8113,-3.8332,-3.86,-3.86,-3.86,-3.8494,-3.7925,-3.7091,-3.6279,-3.5784,-3.4742,-3.3807,-3.3807,-3.3568,-3.3146,-3.2339,-3.1752,-3.1288,-3.1083,-3.1269,-3.1696,-3.2368,-3.2641,-3.3062,-3.4038,-3.4205,-3.4507,-3.5385,0.0,0.0,0.0,0.0,0.0,0.0,-3.4582,0.0,0.0,0.0,0.0,0.0,0.0,0.0,-3.4008,-3.5027,0.0,-3.468,-3.5231,-3.55,-3.55,-3.55,-3.55,-3.55,-3.55,-3.55,-3.55,-3.55,-3.55,-3.55,-3.55,-3.55,-3.55,-3.55,-3.55,-3.55,-3.55,-3.55,-3.55,-4.3515,-4.3515,0.0,0.0,-4.3515,0.0,-4.3515,-4.3515,-4.3515,-4.3515,-4.3515,-4.3631,-4.3924,-4.4304,-4.4682,-4.4988,0.0,0.0,0.0,-4.5594,-4.5594,-4.5594,-4.5594,-4.5594,-4.5594,-4.4797,-4.472,-4.5441,-4.3797,-4.2143,-4.0496,-4.0554,-4.0554,-4.0481,-3.9884,-3.9622,-3.9564,-3.8984,-3.8855,-3.9072,-3.9125,-3.9302,-3.9576,-3.9622,-3.912,-3.8396,-3.8396,-3.8396,-3.8396,-3.8396,-3.8916,-3.9599,-3.9599,-3.9599,-3.941,-3.8399,-3.7698,-3.7066,-3.6184,-3.4938,-3.3862,-3.3807,-3.3201,-3.2399,-3.1641,-3.2027,-3.2397,-3.1945,-3.1875,-3.204,-3.256,-3.267,-3.3024,-3.4115,-3.4302,-3.4564,-3.5385,0.0,0.0,0.0,0.0,0.0,0.0,-3.4302,-3.4622,0.0,0.0,0.0,0.0,0.0,-3.4667,-3.5482,-3.5507,-3.55,-3.55,-3.55,-3.55,-3.55,-3.55,-3.55,-3.55,-3.55,-3.55,-3.55,-3.55,-3.55,-3.55,-3.55,-3.5538,-3.5577,-3.5577,-3.5577,-3.5577,-3.5577,-3.5558,-3.55,0.0,0.0,-4.3515,-4.3515,-4.3515,-4.3515,-4.3515,-4.3515,-4.3515,-4.3515,-4.3515,-4.3531,-4.3614,-4.3927,-4.4175,-4.4243,-4.5069,-4.5594,-4.5594,-4.5594,-4.5594,-4.5594,-4.5594,-4.5594,-4.5594,-4.5402,-4.4767,-4.3682,-4.2624,-4.1566,-4.0516,-4.1181,-4.1143,-4.0481,-4.0139,-3.9829,-3.9576,-3.9165,-3.8919,-3.8829,-3.9301,-3.9377,-3.9264,-3.9786,-3.9686,-3.9297,-3.9297,-3.9297,-3.9297,-3.9297,-3.9429,-3.9599,-3.9599,-3.9599,-3.9558,-3.9294,-3.8516,-3.7561,-3.672,-3.5625,-3.4564,-3.3954,-3.3201,-3.2546,-3.2362,-3.199,-3.1813,-3.2317,-3.2573,-3.3026,-3.3997,-3.4346,-3.4636,-3.5126,-3.5192,-3.525,-3.5462,-3.55,0.0,0.0,-3.5192,-3.5192,-3.5192,-3.5192,-3.5269,0.0,0.0,0.0,0.0,-3.5315,-3.5316,-3.5571,-3.5534,-3.55,-3.55,-3.55,-3.55,-3.55,-3.55,-3.55,-3.55,-3.55,-3.55,-3.55,-3.55,-3.55,-3.55,-3.55,-3.5865,-3.6423,-3.6423,-3.6423,-3.6423,-3.6423,-3.6038,-3.55,-4.3515,-4.3515,-4.3515,-4.3515,-4.3515,-4.3515,-4.3515,-4.3515,-4.3515,-4.3515,-4.3515,-4.3515,-4.3515,-4.3804,-4.4001,-4.4001,-4.4846,-4.5362,-4.5362,-4.5513,-4.5594,-4.5594,-4.5594,-4.5594,-4.5594,-4.5594,-4.496,-4.3643,-4.3162,-4.2316,-4.1104,-4.1585,-4.1335,-4.0489,-4.0213,-3.9912,-3.9587,-3.9238,-3.8947,-3.8719,-3.9064,-3.9144,-3.9125,-3.9383,-3.9427,-3.9358,-3.9223,-3.9195,-3.9195,-3.9195,-3.9195,-3.9195,-3.9195,-3.9195,-3.9195,-3.9195,-3.8585,-3.7808,-3.736,-3.6152,-3.4821,-3.4009,-3.3476,-3.3146,-3.3146,-3.2816,-3.2614,-3.3073,-3.3252,-3.3597,-3.4337,-3.4724,-3.4999,-3.5281,-3.5424,-3.55,-3.55,-3.55,0.0,-3.55,-3.55,-3.55,-3.55,-3.55,-3.55,-3.55,0.0,0.0,-3.55,-3.55,-3.5528,-3.5544,-3.5515,-3.55,-3.55,-3.55,-3.55,-3.55,-3.55,-3.55,-3.55,-3.55,-3.55,-3.55,-3.55,-3.55,-3.55,-3.55,-3.575,-3.6192,-3.6558,-3.6481,-3.6192,-3.6558,-3.6192,-3.55,-4.3515,-4.3515,-4.3515,-4.3515,-4.3515,-4.3515,-4.3515,-4.3515,-4.3515,-4.3515,-4.3515,-4.3515,-4.3515,-4.374,-4.3924,-4.3924,-4.4529,-4.4977,-4.5085,-4.5419,-4.5594,-4.5594,-4.5594,-4.5594,-4.5594,-4.5479,-4.5019,-4.4226,-4.428,-4.3508,-4.2,-4.2,-4.1527,-4.0681,-4.0307,-3.9953,-3.9587,-3.9289,-3.9045,-3.8872,-3.8787,-3.8943,-3.9194,-3.9014,-3.8995,-3.9031,-3.8921,-3.8799,-3.8707,-3.8707,-3.8707,-3.8707,-3.8707,-3.8707,-3.8707,-3.8707,-3.8375,-3.7989,-3.7878,-3.6555,-3.5004,-3.4192,-3.399,-3.3954,-3.3825,-3.3807,-3.3807,-3.3807,-3.3807,-3.3876,-3.4159,-3.4423,-3.4734,-3.5062,-3.5289,-3.5446,-3.5493,0.0,-3.55,-3.55,-3.55,-3.55,-3.55,-3.55,-3.55,-3.55,-3.55,-3.55,0.0,-3.55,-3.55,-3.55,-3.55,-3.55,-3.55,-3.55,-3.55,-3.55,-3.55,-3.55,-3.55,-3.55,-3.55,-3.55,-3.55,-3.55,-3.55,-3.55,-3.5654,-3.5942,-3.6635,-3.6558,-3.6154,-3.6846,-3.6481,-3.5673,-4.3515,-4.3515,-4.3515,-4.3515,-4.3515,-4.3515,-4.3515,-4.3515,-4.3515,-4.3515,-4.3515,-4.3515,-4.3515,-4.3548,-4.358,-4.358,-4.3943,-4.4441,-4.5063,-4.5419,-4.5594,-4.5594,-4.5594,-4.5594,-4.5594,-4.4874,-4.4296,-4.389,-4.4162,-4.3816,-4.2893,-4.2893,-4.2431,-4.1558,-4.0784,-4.0129,-3.9599,-3.9534,-3.9594,-3.9675,-3.9225,-3.9326,-3.9786,-3.9981,-3.9501,-3.8854,-3.9491,-3.9276,-3.8707,-3.8707,-3.8707,-3.8707,-3.8707,-3.8707,-3.8707,-3.8707,-3.8643,-3.8431,-3.7746,-3.6857,-3.5899,-3.5023,-3.4821,-3.4637,-3.3954,-3.3807,-3.3807,-3.3807,-3.3807,-3.3876,-3.4159,-3.4235,-3.4467,-3.5016,-3.513,-3.5231,-3.5479,0.0,-3.55,-3.55,-3.55,-3.55,-3.55,-3.55,-3.55,-3.55,-3.55,-3.55,-3.55,-3.55,-3.55,-3.55,-3.55,-3.55,-3.55,-3.55,-3.55,-3.55,-3.55,-3.55,-3.55,-3.55,-3.55,-3.55,-3.55,-3.55,-3.55,-3.55,-3.6327,-3.7623,-3.7757,-3.8161,-3.8719,-3.8854,-3.7892,-3.65,-4.3444,-4.3515,-4.3515,-4.3515,-4.3515,-4.3515,-4.3515,-4.3515,-4.3515,-4.3515,-4.3515,-4.3515,-4.3515,-4.3515,-4.3515,-4.3515,-4.3804,-4.4146,-4.4495,-4.5014,-4.541,-4.5586,-4.5429,-4.5243,-4.5074,-4.4663,-4.4465,-4.4494,-4.4669,-4.4403,-4.3739,-4.3739,-4.3297,-4.2489,-4.2085,-4.1655,-4.1201,-4.1021,-4.0907,-4.0789,-4.034,-4.0433,-4.0814,-4.075,-4.0544,-4.0285,-4.0475,-4.0322,-3.9976,-3.9976,-3.9976,-3.9918,-3.9478,-3.935,-3.9258,-3.8836,-3.8707,-3.8524,-3.7731,-3.7235,-3.6758,-3.5917,-3.5353,-3.4912,-3.4527,-3.4454,-3.4454,-3.4454,-3.4816,-3.5184,-3.5296,-3.5459,-3.5632,-3.5926,-3.5728,0.0,0.0,-3.5568,-3.5289,-3.5289,-3.5289,-3.5223,-3.5088,-3.5198,-3.5289,-3.5289,-3.5424,-3.55,-3.55,-3.55,-3.55,-3.55,-3.55,-3.55,-3.55,-3.55,-3.55,-3.55,-3.55,-3.55,-3.55,-3.55,-3.55,-3.5519,-3.5962,-3.6154,-3.6173,-3.6654,-3.7296,-3.8046,-3.8527,-3.8661,-3.8661,-3.913,-3.8488,-3.7411,-4.3214,-4.3303,-4.3357,-4.3479,-4.3515,-4.3515,-4.3515,-4.3515,-4.3515,-4.3515,-4.3515,-4.3515,-4.3515,-4.3515,-4.3515,-4.3515,-4.3742,-4.3927,-4.3982,-4.4535,-4.5011,-4.5352,-4.5118,-4.4806,-4.4474,-4.4553,-4.4739,-4.4977,-4.5063,-4.4938,-4.4605,-4.4393,-4.397,-4.3374,-4.3181,-4.2907,-4.2571,-4.2233,-4.2012,-4.1837,-4.1306,-4.1362,-4.1738,-4.1482,-4.1433,-4.1479,-4.1392,-4.126,-4.1095,-4.1095,-4.1095,-4.0985,-4.0377,-4.0175,-4.001,-3.9221,-3.8854,-3.8579,-3.7936,-3.7786,-3.7603,-3.6795,-3.6083,-3.5536,-3.5334,-3.5298,-3.5298,-3.5298,-3.5844,-3.6303,-3.6303,-3.6473,-3.6623,-3.6682,0.0,0.0,0.0,-3.5503,-3.4999,-3.4999,-3.4999,-3.4926,-3.4714,-3.4889,-3.5025,-3.5096,-3.5289,-3.5432,-3.55,-3.55,-3.55,-3.55,-3.5439,-3.5376,-3.5312,-3.5376,-3.5417,-3.5417,-3.546,-3.55,-3.55,-3.55,-3.55,-3.5538,-3.6346,-3.6692,-3.6769,-3.7642,-3.8123,-3.8373,-3.9034,-3.9015,-3.8661,-3.9342,-3.8911,-3.8027,-4.2635,-4.2769,-4.292,-4.341,-4.3515,-4.3515,-4.3515,-4.3515,-4.3515,-4.3515,-4.3515,-4.3515,-4.3515,-4.3515,-4.3515,-4.3515,-4.3513,-4.3679,-4.3986,-4.4043,-4.4261,-4.4657,-4.4644,-4.446,-4.4043,-4.4419,-4.4606,-4.465,-4.4943,-4.5244,-4.5498,-4.4682,-4.4259,-4.4182,-4.3431,-4.2907,-4.2571,-4.2233,-4.235,-4.2623,-4.1528,-4.1568,-4.2246,-4.2229,-4.177,-4.1236,-4.1937,-4.1735,-4.1095,-4.1095,-4.1095,-4.1095,-4.1022,-4.1003,-4.0838,-4.0047,-3.9276,-3.8689,-3.8634,-3.8615,-3.8414,-3.7621,-3.7364,-3.7125,-3.6376,-3.6193,-3.6193,-3.6193,-3.6266,-3.6303,-3.6303,-3.6332,-3.6422,-3.6662,0.0,0.0,-3.5889,-3.5243,-3.4724,-3.4724,-3.4724,-3.4714,-3.4694,-3.4714,-3.4822,-3.5088,-3.5113,-3.5231,-3.5493,-3.55,-3.55,-3.55,-3.5266,-3.5008,-3.4754,-3.4999,-3.5122,-3.513,-3.5376,-3.55,-3.55,-3.55,-3.55,-3.5538,-3.6346,-3.6692,-3.6769,-3.7642,-3.8469,-3.9207,-3.9265,-3.9727,-4.0323,-4.04,-3.94,-3.8123,-4.2021,-4.2342,-4.2635,-4.2939,-4.2902,-4.2977,-4.3427,-4.3515,-4.3515,-4.3515,-4.3515,-4.3515,-4.3515,-4.3515,-4.3515,-4.3515,-4.3515,-4.3546,-4.3677,-4.3677,-4.3852,-4.4204,-4.4219,-4.4061,-4.3693,-4.3836,-4.4154,-4.4593,-4.4739,-4.5074,-4.5594,-4.5267,-4.5114,-4.5094,-4.4786,-4.446,-4.4132,-4.3786,-4.3608,-4.3483,-4.2855,-4.2763,-4.3039,-4.3039,-4.2837,-4.2635,-4.2928,-4.2837,-4.2598,-4.2598,-4.2598,-4.2506,-4.2011,-4.1846,-4.1699,-4.0891,-4.0065,-3.9441,-3.9441,-3.9074,-3.8634,-3.8322,-3.7878,-3.7419,-3.7107,-3.7052,-3.7052,-3.7052,-3.7441,-3.779,-3.779,-3.7367,-3.7077,-3.7188,0.0,-3.5303,-3.5617,-3.4933,-3.439,-3.439,-3.439,-3.4311,-3.416,-3.4295,-3.4434,-3.4524,-3.4725,-3.4898,-3.499,-3.4999,-3.4907,-3.4697,-3.4586,-3.4746,-3.5198,-3.513,-3.519,-3.5354,-3.5446,-3.55,-3.55,-3.55,-3.55,-3.5532,-3.6163,-3.6857,-3.7558,-3.8268,-3.9155,-4.0035,-4.0035,-4.0227,-4.0496,-4.0496,-4.0092,-3.9611,-4.1455,-4.1729,-4.2021,-4.2362,-4.246,-4.2656,-4.3178,-4.3392,-4.3515,-4.3515,-4.3515,-4.3515,-4.3515,-4.3515,-4.3515,-4.3515,-4.3515,-4.3515,-4.3515,-4.3515,-4.3614,-4.3833,-4.3833,-4.3742,-4.3515,-4.3515,-4.3807,-4.4419,-4.4419,-4.4769,-4.5438,-4.5438,-4.5504,-4.5605,-4.5495,-4.5322,-4.5074,-4.4618,-4.4247,-4.3971,-4.3629,-4.3515,-4.3515,-4.3515,-4.3515,-4.3515,-4.3515,-4.3515,-4.3515,-4.3515,-4.3515,-4.3387,-4.2837,-4.2506,-4.2194,-4.1644,-4.0726,-3.99,-3.99,-3.9313,-3.8707,-3.8707,-3.8285,-3.7878,-3.7878,-3.7878,-3.7878,-3.7878,-3.8322,-3.8707,-3.8707,-3.8028,-3.7584,-3.7841,-3.6252,-3.5253,-3.602,-3.4933,-3.4173,-3.442,-3.4229,-3.3993,-3.3815,-3.3961,-3.4111,-3.4188,-3.4412,-3.4582,-3.4684,-3.4694,-3.4582,-3.4368,-3.4526,-3.4948,-3.5624,-3.5432,-3.5495,-3.576,-3.5837,-3.5885,-3.5865,-3.5615,-3.55,-3.5532,-3.6064,-3.6897,-3.7901,-3.8618,-3.9485,-4.0381,-4.0473,-4.0496,-4.0496,-4.0496,-4.0342,-4.0169,-4.0935,-4.0897,-4.1087,-4.1686,-4.2302,-4.2692,-4.2692,-4.316,-4.3479,-4.3479,-4.3497,-4.3515,-4.3515,-4.3515,-4.3515,-4.3515,-4.3515,-4.3515,-4.3515,-4.3515,-4.3515,-4.3515,-4.3515,-4.3515,-4.3515,-4.3515,-4.3662,-4.4001,-4.4001,-4.4387,-4.5096,-4.5096,-4.5282,-4.5577,-4.5243,-4.5096,-4.5033,-4.4299,-4.4001,-4.3971,-4.3629,-4.3515,-4.3515,-4.3515,-4.3515,-4.3515,-4.3515,-4.3515,-4.3515,-4.3515,-4.3515,-4.3515,-4.3515,-4.2947,-4.2304,-4.2304,-4.1167,-3.9918,-3.9918,-3.9331,-3.8707,-3.8707,-3.8707,-3.8707,-3.8707,-3.8707,-3.8707,-3.8707,-3.8707,-3.8707,-3.8707,-3.8043,-3.7749,-3.856,-3.6619,-3.5573,-3.7254,-3.5381,-3.4119,-3.4912,-3.4302,-3.3807,-3.3807,-3.3807,-3.3915,-3.4183,-3.4188,-3.4345,-3.4674,-3.4684,-3.4684,-3.4684,-3.521,-3.5628,-3.5889,-3.5893,-3.6035,-3.6296,-3.6566,-3.6692,-3.6654,-3.5865,-3.55,-3.5525,-3.6056,-3.6755,-3.7565,-3.8507,-3.9366,-4.0129,-4.0389,-4.0496,-4.0496,-4.0496,-3.9996,-3.9419,-4.1223,-4.112,-4.1131,-4.1169,-4.1313,-4.1578,-4.2,-4.256,-4.2939,-4.2939,-4.3268,-4.3515,-4.3515,-4.3515,-4.3515,-4.3515,-4.3515,-4.3515,-4.3515,-4.3515,-4.3515,-4.3515,-4.3515,-4.3515,-4.3515,-4.3515,-4.3662,-4.4001,-4.4001,-4.4387,-4.5096,-4.5096,-4.514,-4.5243,-4.514,-4.4818,-4.4299,-4.4087,-4.3865,-4.3629,-4.3548,-4.3515,-4.3515,-4.3515,-4.3515,-4.3515,-4.3515,-4.3515,-4.3515,-4.3515,-4.3515,-4.3515,-4.3515,-4.3332,-4.313,-4.313,-4.2396,-4.157,-4.157,-4.0579,-3.9405,-3.8836,-3.8707,-3.8707,-3.8707,-3.8707,-3.8707,-3.8707,-3.8707,-3.8707,-3.8707,-3.7569,-3.6923,-3.7731,-3.6252,-3.5389,-3.6486,-3.5495,-3.4729,-3.4968,-3.4302,-3.3807,-3.3807,-3.3807,-3.3829,-3.3915,-3.3928,-3.3948,-3.4049,-3.408,-3.408,-3.408,-3.4761,-3.5303,-3.5617,-3.6177,-3.6411,-3.6307,-3.6377,-3.6224,-3.5858,-3.5997,-3.5761,-3.5237,-3.5593,-3.6301,-3.7236,-3.7561,-3.8659,-4.0129,-4.0389,-4.0496,-4.0496,-4.0496,-4.0342,-4.0189,-4.1339,-4.0967,-4.0722,-4.059,-4.0756,-4.1018,-4.1402,-4.1958,-4.244,-4.2655,-4.2976,-4.3268,-4.3479,-4.3515,-4.3515,-4.3515,-4.3515,-4.3515,-4.3515,-4.3515,-4.3515,-4.3515,-4.3515,-4.3515,-4.3515,-4.3515,-4.3597,-4.3804,-4.3804,-4.4106,-4.4663,-4.4663,-4.4757,-4.4896,-4.4745,-4.4428,-4.4001,-4.3849,-4.3695,-4.3515,-4.3515,-4.3515,-4.3515,-4.3515,-4.3515,-4.3515,-4.3515,-4.3515,-4.3515,-4.3515,-4.3515,-4.3515,-4.3515,-4.3515,-4.3515,-4.3515,-4.2928,-4.2304,-4.2304,-4.1368,-4.0267,-3.9756,-3.9184,-3.8707,-3.8707,-3.8707,-3.8707,-3.8707,-3.8707,-3.8707,-3.8707,-3.7643,-3.7052,-3.7826,-3.6597,-3.5922,-3.7092,-3.6248,-3.5628,-3.5954,-3.4968,-3.427,-3.427,-3.427,-3.4431,-3.4761,-3.4798,-3.4798,-3.4798,-3.4798,-3.4798,-3.4798,-3.5569,-3.5924,-3.5821,-3.6924,-3.7206,-3.6615,-3.6615,-3.6282,-3.5668,-3.5664,-3.5456,-3.5117,-3.5509,-3.6209,-3.7136,-3.7664,-3.8676,-3.9943,-4.0336,-4.0496,-4.0496,-4.0496,-4.0496,-4.0496,-4.1457,-4.0747,-4.0265,-4.013,-4.0504,-4.0827,-4.0827,-4.1335,-4.1916,-4.246,-4.2635,-4.2883,-4.3375,-4.3462,-4.3515,-4.3515,-4.3515,-4.3515,-4.3515,-4.3515,-4.3515,-4.3515,-4.3515,-4.3515,-4.3515,-4.3515,-4.3515,-4.3515,-4.3515,-4.3679,-4.4001,-4.4001,-4.4209,-4.4527,-4.4161,-4.3967,-4.3943,-4.3629,-4.3515,-4.3515,-4.3515,-4.3515,-4.3515,-4.3515,-4.3515,-4.3515,-4.3515,-4.3515,-4.3515,-4.3515,-4.3515,-4.3515,-4.3515,-4.3515,-4.3515,-4.3515,-4.2983,-4.2415,-4.2415,-4.1827,-4.1205,-4.1205,-4.0065,-3.8909,-3.8817,-3.8762,-3.8707,-3.8707,-3.8707,-3.8707,-3.8707,-3.8028,-3.7768,-3.8579,-3.7404,-3.6945,-3.8487,-3.7386,-3.667,-3.7419,-3.6101,-3.5133,-3.5133,-3.5133,-3.5408,-3.6138,-3.6266,-3.6303,-3.6303,-3.6303,-3.6303,-3.6303,-3.7088,-3.7144,-3.6413,-3.7936,-3.815,-3.7057,-3.7057,-3.6702,-3.5979,-3.522,-3.5011,-3.5265,-3.5833,-3.6478,-3.7235,-3.8413,-3.9172,-3.9668,-4.0266,-4.0496,-4.0496,-4.0496,-4.0496,-4.0496,-4.232,-4.1914,-4.1467,-4.0299,-4.0204,-4.0262,-4.0262,-4.075,-4.1155,-4.1251,-4.2121,-4.2732,-4.2864,-4.325,-4.3515,-4.3515,-4.3515,-4.3515,-4.3515,-4.3515,-4.3515,-4.3515,-4.3515,-4.3515,-4.3515,-4.3515,-4.3515,-4.3515,-4.3515,-4.3679,-4.4001,-4.4001,-4.4061,-4.4136,-4.4028,-4.3849,-4.3614,-4.3531,-4.3515,-4.3515,-4.3515,-4.3515,-4.3515,-4.3515,-4.3515,-4.3515,-4.3515,-4.3515,-4.3515,-4.3515,-4.3515,-4.3515,-4.3515,-4.3515,-4.3515,-4.3515,-4.3386,-4.3239,-4.3239,-4.2653,-4.2047,-4.2047,-4.1297,-4.0398,-3.9772,-3.9148,-3.8707,-3.8707,-3.8707,-3.8707,-3.8707,-3.8028,-3.7768,-3.8579,-3.7881,-3.7584,-3.856,-3.7845,-3.7309,-3.7474,-3.6615,-3.6028,-3.6028,-3.6028,-3.5807,-3.5316,-3.5917,-3.6303,-3.6303,-3.6303,-3.6303,-3.6303,-3.7088,-3.7419,-3.7235,-3.8212,-3.8065,-3.6802,-3.6802,-3.681,-3.6828,-3.6431,-3.6303,-3.64,-3.715,-3.7458,-3.7479,-3.8479,-3.9172,-3.9668,-4.0266,-4.0496,-4.0496,-4.0496,-4.0496,-4.0496,-4.298,-4.254,-4.1948,-4.0815,-4.0612,-4.0493,-4.0146,-4.0343,-4.0625,-4.0874,-4.1446,-4.2059,-4.2635,-4.2939,-4.3214,-4.3479,-4.3515,-4.3515,-4.3515,-4.3515,-4.3515,-4.3515,-4.3515,-4.3515,-4.3515,-4.3515,-4.3515,-4.3515,-4.3515,-4.3597,-4.3756,-4.3756,-4.3756,-4.3756,-4.3756,-4.3662,-4.3515,-4.3515,-4.3515,-4.3515,-4.3515,-4.3515,-4.3515,-4.3515,-4.3515,-4.3515,-4.3515,-4.3515,-4.3515,-4.3515,-4.3515,-4.3515,-4.3515,-4.3515,-4.3515,-4.3515,-4.3515,-4.3515,-4.3515,-4.3185,-4.2873,-4.2873,-4.2268,-4.1368,-4.0175,-3.957,-3.9166,-3.8781,-3.8707,-3.8707,-3.8707,-3.8358,-3.8212,-3.8634,-3.834,-3.8212,-3.8652,-3.834,-3.8065,-3.8065,-3.7364,-3.6868,-3.6868,-3.6868,-3.6835,-3.6765,-3.7202,-3.7441,-3.7441,-3.7441,-3.7441,-3.7441,-3.7845,-3.7896,-3.7492,-3.8303,-3.8155,-3.7082,-3.668,-3.657,-3.6689,-3.6131,-3.62,-3.6732,-3.7553,-3.7819,-3.7785,-3.898,-3.9523,-3.9668,-4.0266,-4.0414,-4.033,-4.0457,-4.0496,-4.0496,-4.3426,-4.2912,-4.2219,-4.1356,-4.1204,-4.095,-4.0214,-4.0096,-4.0262,-4.0703,-4.0833,-4.1335,-4.244,-4.2713,-4.3014,-4.3462,-4.3515,-4.3515,-4.3515,-4.3515,-4.3515,-4.3515,-4.3515,-4.3515,-4.3515,-4.3515,-4.3515,-4.3515,-4.3515,-4.3515,-4.3515,-4.3515,-4.3515,-4.3515,-4.3515,-4.3515,-4.3515,-4.3515,-4.3515,-4.3515,-4.3515,-4.3515,-4.3515,-4.3515,-4.3515,-4.3515,-4.3515,-4.3515,-4.3515,-4.3515,-4.3515,-4.3515,-4.3515,-4.3515,-4.3515,-4.3515,-4.3515,-4.3515,-4.3515,-4.3515,-4.3515,-4.3515,-4.3002,-4.2121,-4.0653,-4.0194,-3.9918,-3.9258,-3.9001,-3.8909,-3.8909,-3.8799,-3.8707,-3.8707,-3.8707,-3.8707,-3.8707,-3.8707,-3.8707,-3.8707,-3.8102,-3.7658,-3.7511,-3.7621,-3.7918,-3.8469,-3.8615,-3.8707,-3.8707,-3.8707,-3.8707,-3.8707,-3.8707,-3.8377,-3.7713,-3.8377,-3.8377,-3.7694,-3.6905,-3.6578,-3.667,-3.5811,-3.6016,-3.7082,-3.7806,-3.809,-3.8138,-3.9478,-3.9808,-3.9557,-4.0138,-4.0203,-4.0042,-4.0257,-4.0345,-4.0353,-4.3527,-4.3308,-4.2828,-4.1441,-4.1204,-4.095,-4.0214,-4.0096,-4.0121,-4.0204,-4.0625,-4.1155,-4.1853,-4.2791,-4.3427,-4.3479,-4.3515,-4.3515,-4.3515,-4.3515,-4.3515,-4.3515,-4.3515,-4.3515,-4.3515,-4.3515,-4.3515,-4.3515,-4.3515,-4.3515,-4.3515,-4.3515,-4.3515,-4.3515,-4.3515,-4.3515,-4.3515,-4.3515,-4.3515,-4.3515,-4.3515,-4.3515,-4.3515,-4.3515,-4.3515,-4.3515,-4.3515,-4.3515,-4.3515,-4.3515,-4.3515,-4.3515,-4.3515,-4.3515,-4.3515,-4.3515,-4.3515,-4.3515,-4.3515,-4.3515,-4.3515,-4.3515,-4.3423,-4.3111,-4.2176,-4.1442,-4.0912,-4.0802,-4.023,-3.9735,-3.9735,-3.9166,-3.8707,-3.8707,-3.8707,-3.8707,-3.8707,-3.8707,-3.8707,-3.8707,-3.8597,-3.8267,-3.7566,-3.812,-3.8285,-3.7713,-3.8303,-3.8707,-3.8707,-3.8707,-3.8707,-3.8707,-3.8707,-3.8652,-3.8542,-3.8652,-3.8652,-3.8524,-3.7731,-3.7698,-3.8358,-3.7533,-3.7636,-3.8449,-3.8795,-3.8809,-3.8659,-3.9377,-3.9462,-3.9199,-3.9569,-3.9701,-3.9668,-3.9712,-3.9724,-3.9757,-4.413,-4.4062,-4.3589,-4.2083,-4.1813,-4.1424,-4.0282,-4.0096,-4.0096,-4.0096,-4.0311,-4.0797,-4.1703,-4.281,-4.3515,-4.3515,-4.3515,-4.3515,-4.3515,-4.3515,-4.3515,-4.3515,-4.3515,-4.3515,-4.3515,-4.3515,-4.3515,-4.3515,-4.3515,-4.3515,-4.3515,-4.3515,-4.3515,-4.3515,-4.3515,-4.3515,-4.3515,-4.3515,-4.3515,-4.3515,-4.3515,-4.3515,-4.3515,-4.3515,-4.3515,-4.3515,-4.3515,-4.3515,-4.3515,-4.3515,-4.3515,-4.3515,-4.3515,-4.3515,-4.3515,-4.3515,-4.3515,-4.3515,-4.3515,-4.3515,-4.3515,-4.3515,-4.3515,-4.3423,-4.3039,-4.269,-4.2194,-4.1279,-4.0469,-3.99,-3.99,-3.9239,-3.8707,-3.8707,-3.8707,-3.8707,-3.8707,-3.8707,-3.8707,-3.8707,-3.8707,-3.856,-3.8193,-3.8487,-3.856,-3.8193,-3.8505,-3.8707,-3.8707,-3.8707,-3.8707,-3.8707,-3.8707,-3.8707,-3.8707,-3.8707,-3.8707,-3.8707,-3.834,-3.8358,-3.867,-3.7404,-3.7514,-3.867,-3.835,-3.8376,-3.8735,-3.9144,-3.9225,-3.912,-3.9481,-3.9599,-3.9576,-3.9389,-3.9426,-3.9622]},{"header":{"parameterUnit":"m.s-1","parameterCategory":1,"la1":30.6,"la2":28.766,"lo1":-90.7593,"lo2":-88.6598,"dy":0.0162,"dx":0.0183,"nx":116,"ny":114,"refTime":"2024-06-29T18:00:00:Z","depth":0,"parameterNumber":3,"parameterNumberName":"V-component_of_WINDS"},"data":[0.0,0.0,0.0,0.0,0.0,0.0,0.0,0.0,0.0,0.0,0.0,0.0,0.0,0.0,0.0,0.0,0.0,0.0,0.0,0.0,0.0,0.0,0.0,0.0,0.0,0.0,0.0,0.0,0.0,0.0,0.0,0.0,0.0,0.0,0.0,0.0,0.0,0.0,0.0,0.0,0.0,0.0,0.0,0.0,0.0,0.0,0.0,0.0,0.0,0.0,0.0,0.0,0.0,0.0,0.0,0.0,0.0,0.0,0.0,0.0,0.0,0.0,0.0,0.0,0.0,0.0,0.0,0.0,0.0,0.0,0.0,0.0,0.0,0.0,0.0,0.0,0.0,0.0,0.0,0.0,0.0,0.0,0.0,0.0,0.0,0.0,0.0,0.0,0.0,0.0,0.0,0.0,0.0,0.0,0.0,0.0,0.0,0.0,0.0,0.0,0.0,0.0,0.0,0.0,0.0,0.0,0.0,0.0,0.0,0.0,0.0,0.0,0.0,0.0,0.0,0.0,0.0,0.0,0.0,0.0,0.0,0.0,0.0,0.0,0.0,0.0,0.0,0.0,0.0,0.0,0.0,0.0,0.0,0.0,0.0,0.0,0.0,0.0,0.0,0.0,0.0,0.0,0.0,0.0,0.0,0.0,0.0,0.0,0.0,0.0,0.0,0.0,0.0,0.0,0.0,0.0,0.0,0.0,0.0,0.0,0.0,0.0,0.0,0.0,0.0,0.0,0.0,0.0,0.0,0.0,0.0,0.0,0.0,0.0,0.0,0.0,0.0,0.0,0.0,0.0,0.0,0.0,0.0,0.0,0.0,0.0,0.0,0.0,0.0,0.0,0.0,0.0,0.0,0.0,0.0,0.0,0.0,0.0,0.0,0.0,0.0,0.0,0.0,0.0,0.0,0.0,0.0,0.0,0.0,0.0,0.0,0.0,0.0,0.0,0.0,0.0,0.0,0.0,0.0,0.0,0.0,0.0,0.0,0.0,0.0,0.0,0.0,0.0,0.0,0.0,0.0,0.0,0.0,0.0,0.0,0.0,0.0,0.0,0.0,0.0,0.0,0.0,0.0,0.0,0.0,0.0,0.0,0.0,0.0,0.0,0.0,0.0,0.0,0.0,0.0,0.0,0.0,0.0,0.0,0.0,0.0,0.0,0.0,0.0,0.0,0.0,0.0,0.0,0.0,0.0,0.0,0.0,0.0,0.0,0.0,0.0,0.0,0.0,0.0,0.0,0.0,0.0,0.0,0.0,0.0,0.0,0.0,0.0,0.0,0.0,0.0,0.0,0.0,0.0,0.0,0.0,0.0,0.0,0.0,0.0,0.0,0.0,0.0,0.0,0.0,0.0,0.0,0.0,0.0,0.0,0.0,0.0,0.0,0.0,0.0,0.0,0.0,0.0,0.0,0.0,0.0,0.0,0.0,0.0,0.0,0.0,0.0,0.0,0.0,0.0,0.0,0.0,0.0,0.0,0.0,0.0,0.0,0.0,0.0,0.0,0.0,0.0,0.0,0.0,0.0,0.0,0.0,0.0,0.0,0.0,0.0,0.0,0.0,0.0,0.0,0.0,0.0,0.0,0.0,0.0,0.0,0.0,0.0,0.0,0.0,0.0,0.0,0.0,0.0,0.0,0.0,0.0,0.0,0.0,0.0,0.0,0.0,0.0,0.0,0.0,0.0,0.0,0.0,0.0,0.0,0.0,0.0,0.0,0.0,0.0,0.0,0.0,0.0,0.0,0.0,0.0,0.0,0.0,0.0,0.0,0.0,0.0,0.0,0.0,0.0,0.0,0.0,0.0,0.0,0.0,0.0,0.0,0.0,0.0,0.0,0.0,0.0,0.0,0.0,0.0,0.0,0.0,0.0,0.0,0.0,0.0,0.0,0.0,0.0,0.0,0.0,0.0,0.0,0.0,0.0,0.0,0.0,0.0,0.0,0.0,0.0,0.0,0.0,0.0,0.0,0.0,0.0,0.0,0.0,0.0,0.0,0.0,0.0,0.0,0.0,0.0,0.0,0.0,0.0,0.0,0.0,0.0,0.0,0.0,0.0,0.0,0.0,0.0,0.0,0.0,0.0,0.0,0.0,0.0,0.0,0.0,0.0,0.0,0.0,0.0,0.0,0.0,0.0,0.0,0.0,0.0,0.0,0.0,0.0,0.0,0.0,0.0,0.0,0.0,0.0,0.0,0.0,0.0,0.0,0.0,0.0,0.0,0.0,0.0,0.0,0.0,0.0,0.0,0.0,0.0,0.0,0.0,0.0,0.0,0.0,0.0,0.0,0.0,0.0,0.0,0.0,0.0,0.0,0.0,0.0,0.0,0.0,0.0,0.0,0.0,0.0,0.0,0.0,0.0,0.0,0.0,0.0,0.0,0.0,0.0,0.0,0.0,0.0,0.0,0.0,0.0,0.0,0.0,0.0,0.0,0.0,0.0,0.0,0.0,0.0,0.0,0.0,0.0,0.0,0.0,0.0,0.0,0.0,0.0,0.0,0.0,0.0,0.0,0.0,0.0,0.0,0.0,0.0,0.0,0.0,0.0,0.0,0.0,0.0,0.0,0.0,0.0,0.0,0.0,0.0,0.0,0.0,0.0,0.0,0.0,0.0,0.0,0.0,0.0,0.0,0.0,0.0,0.0,0.0,0.0,0.0,0.0,0.0,0.0,0.0,0.0,0.0,0.0,0.0,0.0,0.0,0.0,0.0,0.0,0.0,0.0,0.0,0.0,0.0,0.0,0.0,0.0,0.0,0.0,0.0,0.0,0.0,0.0,0.0,0.0,0.0,0.0,0.0,0.0,0.0,0.0,0.0,0.0,0.0,0.0,0.0,0.0,0.0,0.0,0.0,0.0,0.0,0.0,0.0,0.0,0.0,0.0,0.0,0.0,0.0,0.0,0.0,0.0,0.0,0.0,0.0,0.0,0.0,0.0,0.0,0.0,0.0,0.0,0.0,0.0,0.0,0.0,0.0,0.0,0.0,0.0,0.0,0.0,0.0,0.0,0.0,0.0,0.0,0.0,0.0,0.0,0.0,0.0,0.0,0.0,0.0,0.0,0.0,0.0,0.0,0.0,0.0,0.0,0.0,0.0,0.0,0.0,0.0,0.0,0.0,0.0,0.0,0.0,0.0,0.0,0.0,0.0,0.0,0.0,0.0,0.0,0.0,0.0,0.0,0.0,0.0,0.0,0.0,0.0,0.0,0.0,0.0,0.0,0.0,0.0,0.0,0.0,0.0,0.0,0.0,0.0,0.0,0.0,0.0,0.0,0.0,0.0,0.0,0.0,0.0,0.0,0.0,0.0,0.0,0.0,0.0,0.0,0.0,0.0,0.0,0.0,0.0,0.0,0.0,0.0,0.0,0.0,0.0,0.0,0.0,0.0,0.0,0.0,0.0,0.0,0.0,0.0,0.0,0.0,0.0,0.0,0.0,0.0,0.0,0.0,0.0,0.0,0.0,0.0,0.0,0.0,0.0,0.0,0.0,0.0,0.0,0.0,0.0,0.0,0.0,0.0,0.0,0.0,0.0,0.0,0.0,0.0,0.0,0.0,0.0,0.0,0.0,0.0,0.0,0.0,0.0,0.0,0.0,0.0,0.0,0.0,0.0,0.0,0.0,0.0,0.0,0.0,0.0,0.0,0.0,0.0,0.0,0.0,0.0,0.0,0.0,0.0,0.0,0.0,0.0,0.0,0.0,0.0,0.0,0.0,0.0,0.0,0.0,0.0,0.0,0.0,0.0,0.0,0.0,0.0,0.0,0.0,0.0,0.0,0.0,0.0,0.0,0.0,0.0,0.0,0.0,0.0,0.0,0.0,0.0,0.0,0.0,0.0,0.0,0.0,0.0,0.0,0.0,0.0,0.0,0.0,0.0,0.0,0.0,0.0,0.0,0.0,0.0,0.0,0.0,0.0,0.0,0.0,0.0,0.0,0.0,0.0,0.0,0.0,0.0,0.0,0.0,0.0,0.0,0.0,0.0,0.0,0.0,0.0,0.0,0.0,0.0,0.0,0.0,0.0,0.0,0.0,0.0,0.0,0.0,0.0,0.0,0.0,0.0,0.0,0.0,0.0,0.0,0.0,0.0,0.0,0.0,0.0,0.0,0.0,0.0,0.0,0.0,0.0,0.0,0.0,0.0,0.0,0.0,0.0,0.0,0.0,0.0,0.0,0.0,0.0,0.0,0.0,0.0,0.0,0.0,0.0,0.0,0.0,0.0,0.0,0.0,0.0,0.0,0.0,0.0,0.0,0.0,0.0,0.0,0.0,0.0,0.0,0.0,0.0,0.0,0.0,0.0,0.0,0.0,0.0,0.0,0.0,0.0,0.0,0.0,0.0,0.0,0.0,0.0,0.0,0.0,0.0,0.0,0.0,0.0,0.0,0.0,0.0,0.0,0.0,0.0,0.0,0.0,0.0,0.0,0.0,0.0,0.0,0.0,0.0,0.0,0.0,0.0,0.0,0.0,0.0,0.0,0.0,0.0,0.0,0.0,0.0,0.0,0.0,0.0,0.0,0.0,0.0,0.0,0.0,0.0,0.0,0.0,0.0,0.0,0.0,0.0,0.0,0.0,0.0,0.0,0.0,0.0,0.0,0.0,0.0,0.0,0.0,0.0,0.0,0.0,0.0,0.0,0.0,0.0,0.0,0.0,0.0,0.0,0.0,0.0,0.0,0.0,0.0,0.0,0.0,0.0,0.0,0.0,0.0,0.0,0.0,0.0,0.0,0.0,0.0,0.0,0.0,0.0,0.0,0.0,0.0,0.0,0.0,0.0,0.0,0.0,0.0,0.0,0.0,0.0,0.0,0.0,0.0,0.0,0.0,0.0,0.0,0.0,0.0,0.0,0.0,0.0,0.0,0.0,0.0,0.0,0.0,0.0,0.0,0.0,0.0,0.0,0.0,0.0,0.0,0.0,0.0,0.0,0.0,0.0,0.0,0.0,0.0,0.0,0.0,0.0,0.0,0.0,0.0,0.0,0.0,0.0,0.0,0.0,0.0,0.0,0.0,0.0,0.0,0.0,0.0,0.0,0.0,0.0,0.0,0.0,0.0,0.0,0.0,0.0,0.0,0.0,0.0,0.0,0.0,0.0,0.0,0.0,0.0,0.0,0.0,0.0,0.0,0.0,0.0,0.0,0.0,0.0,0.0,0.0,0.0,0.0,0.0,0.0,0.0,0.0,0.0,0.0,0.0,0.0,0.0,0.0,0.0,0.0,0.0,0.0,0.0,0.0,0.0,0.0,0.0,0.0,0.0,0.0,0.0,0.0,0.0,0.0,0.0,0.0,0.0,0.0,0.0,0.0,0.0,0.0,0.0,0.0,0.0,0.0,0.0,0.0,0.0,0.0,0.0,0.0,0.0,0.0,0.0,0.0,0.0,0.0,0.0,0.0,0.0,0.0,0.0,0.0,0.0,0.0,0.0,0.0,0.0,0.0,0.0,0.0,0.0,0.0,0.0,0.0,0.0,0.0,0.0,0.0,0.0,0.0,0.0,0.0,0.0,0.0,0.0,0.0,0.0,0.0,0.0,0.0,0.0,0.0,0.0,0.0,0.0,0.0,0.0,0.0,0.0,0.0,0.0,0.0,0.0,0.0,0.0,0.0,0.0,0.0,0.0,0.0,0.0,0.0,0.0,0.0,0.0,0.0,0.0,0.0,0.0,0.0,0.0,0.0,0.0,0.0,0.0,0.0,0.0,0.0,0.0,0.0,0.0,0.0,0.0,0.0,0.0,0.0,0.0,0.0,0.0,0.0,0.0,0.0,0.0,0.0,0.0,0.0,0.0,0.0,0.0,0.0,0.0,0.0,0.0,0.0,0.0,0.0,0.0,0.0,0.0,0.0,0.0,0.0,0.0,0.0,0.0,0.0,0.0,0.0,0.0,0.0,0.0,0.0,0.0,0.0,0.0,0.0,0.0,0.0,0.0,0.0,0.0,0.0,0.0,0.0,0.0,0.0,0.0,0.0,0.0,0.0,0.0,0.0,0.0,0.0,0.0,0.0,0.0,0.0,0.0,0.0,0.0,0.0,0.0,0.0,0.0,0.0,0.0,0.0,0.0,0.0,0.0,0.0,0.0,0.0,0.0,0.0,0.0,-0.6451,0.0,0.0,0.0,0.0,0.0,0.0,0.0,0.0,0.0,0.0,0.0,0.0,0.0,0.0,0.0,0.0,0.0,0.0,0.0,0.0,0.0,0.0,0.0,0.0,-0.2891,-0.3671,-0.4466,-0.5178,-0.5391,-0.4855,0.0,0.0,0.0,0.0,0.0,0.3734,0.5596,0.7182,0.8429,0.9213,0.9899,1.0393,0.9841,0.8671,0.7042,0.0,0.0,0.0,0.0,0.0,0.0,0.0,0.0,0.0,0.0,0.0,0.0,0.0,0.0,0.0,0.0,0.0,0.0,0.0,0.0,0.0,0.0,0.0,0.0,0.0,0.0,0.0,0.0,0.0,0.0,0.0,0.0,0.0,0.0,0.0,0.0,0.0,0.0,0.0,0.0,0.0,0.0,0.0,0.0,0.0,0.0,0.0,0.0,0.0,0.0,0.0,0.0,0.0,0.0,0.0,0.0,0.0,0.0,0.0,0.0,0.0,0.0,0.0,0.0,0.0,0.0,0.0,0.0,0.0,0.0,0.0,-0.7063,0.0,0.0,0.0,0.0,0.0,0.0,0.0,0.0,0.0,0.0,0.0,0.0,0.0,0.0,0.0,0.0,0.0,0.0,0.0,0.0,0.0,0.1907,-0.0251,-0.1148,-0.1603,-0.1614,-0.2184,-0.238,-0.2025,0.0,0.0,0.0,0.0,0.3781,0.5828,0.7252,0.8363,0.9211,1.0237,1.1462,1.2835,1.305,1.161,0.8782,0.8356,0.0,0.0,0.0,0.0,0.0,0.0,0.0,0.0,0.0,0.0,0.0,0.0,0.0,0.0,0.0,0.0,0.0,0.0,0.0,0.0,0.0,0.0,0.0,0.0,0.0,0.0,0.0,0.0,0.0,0.0,0.0,0.0,0.0,0.0,0.0,0.0,0.0,0.0,0.0,0.0,0.0,0.0,0.0,0.0,0.0,0.0,0.0,0.0,0.0,0.0,0.0,0.0,0.0,0.0,0.0,0.0,0.0,0.0,0.0,0.0,0.0,0.0,0.0,-0.7562,-0.758,-0.7678,-0.7678,-0.7678,-0.7655,-0.7237,-0.7234,-0.7461,0.0,0.0,0.0,0.0,0.0,0.0,0.0,0.0,0.0,0.0,0.0,0.0,0.0,0.0,0.0,0.0,0.0,0.0,0.0,0.0,0.2659,0.2091,0.1307,0.0594,-0.0031,-0.0189,0.0063,0.0725,0.0849,0.0,0.0,0.4773,0.5915,0.7391,0.8467,0.906,0.9211,1.096,1.2194,1.3003,1.4127,1.4216,1.3427,1.1434,1.0222,0.9584,0.0,0.0,0.0,0.0,0.0,0.0,0.0,0.0,0.0,0.0,0.0,0.0,0.0,0.0,0.0,0.0,0.0,0.0,0.0,0.0,0.0,0.0,0.0,0.0,0.0,0.0,0.0,0.0,0.0,0.0,0.0,0.0,0.0,0.0,0.0,0.0,0.0,0.0,0.0,0.0,0.0,0.3193,0.3093,0.0,0.0,0.0,0.0,0.0,0.0,0.0,0.0,0.0,0.0,0.0,0.0,0.0,-0.6029,-0.6189,-0.7503,-0.8065,-0.7904,-0.8089,-0.8092,-0.7931,-0.7931,-0.7931,-0.7928,-0.787,0.0,-0.7563,-0.7621,0.0,0.0,0.0,0.0,0.0,0.0,0.0,0.0,0.0,0.0,0.0,0.0,0.0,0.0,0.0,0.0,0.0,0.0,0.0,0.0,0.0,0.3401,0.3359,0.3567,0.3714,0.4145,0.0,0.0,0.0,0.562,0.6122,0.6734,0.7462,0.8139,0.8941,0.994,1.2355,1.39,1.4652,1.579,1.6214,1.6037,1.4775,1.3263,1.161,0.9951,0.0,0.0,0.0,0.0,0.0,0.0,0.0,0.0,0.0,0.0,0.0,0.0,0.0,0.0,0.0,0.0,0.0,0.0,0.0,0.0,0.0,0.0,0.0,0.0,0.0,0.0,0.0,0.0,0.0,0.0,0.0,0.0,0.0,0.0,0.0,0.0,0.0,0.0,0.0,0.2827,0.2046,0.2233,0.0907,0.0,0.0,0.0,0.0,0.0,0.0,0.0,0.0,0.0,0.0,-0.6468,-0.7026,-0.7366,-0.7509,-0.8095,-0.8353,-0.8289,-0.8357,-0.8353,-0.8289,-0.8289,-0.8245,-0.817,-0.817,-0.8048,-0.7834,-0.7668,-0.7482,-0.7282,0.0,0.0,0.0,0.0,-0.7077,-0.7272,0.0,0.0,0.0,0.0,0.0,0.0,0.0,0.0,0.0,0.0,0.0,0.0,0.5763,0.5711,0.6057,0.6988,0.0,0.0,0.0,0.0,0.0,0.6622,0.6793,0.6979,0.7203,0.7887,0.8969,1.0471,1.332,1.5036,1.5743,1.6978,1.7539,1.7529,0.0,0.0,0.0,0.0,0.0,0.0,0.0,0.0,0.0,0.0,0.0,0.0,0.0,0.0,0.0,0.0,0.0,0.0,0.0,0.0,0.0,0.0,0.0,0.0,0.0,0.0,0.0,0.0,0.0,0.0,0.0,0.0,0.0,0.0,0.0,0.0,0.0,0.0,0.0,0.0,0.0,0.0,0.0,0.2062,0.1428,0.163,0.0659,0.0,0.0,0.0,0.0,0.0,0.0,0.0,-0.6441,-0.6625,-0.7189,-0.837,-0.8384,-0.8452,-0.8598,-0.8601,-0.8577,-0.854,-0.854,-0.852,-0.8482,-0.8482,-0.8425,-0.8323,-0.8337,-0.8204,-0.8079,-0.7821,-0.7689,-0.7631,-0.7355,-0.7243,-0.7227,-0.7387,-0.7356,-0.7247,0.0,0.0,0.0,0.0,0.0,0.0,0.0,0.0,0.0,0.0,0.0,0.7821,0.911,0.0,0.848,0.0,0.0,0.0,0.0,0.0,0.0,0.7255,0.7029,0.6909,0.6924,0.8435,0.9618,1.0414,1.3289,1.4895,1.528,1.712,0.0,0.0,0.0,0.0,0.0,0.0,0.0,0.0,0.0,0.0,0.0,0.0,0.0,0.0,0.0,0.0,0.0,0.0,0.0,0.0,0.0,0.0,0.0,0.0,0.0,0.0,0.0,0.0,0.0,0.0,0.0,0.0,0.0,0.0,0.0,0.0,0.0,0.0,0.0,0.0,0.0,0.0,0.0,0.0,0.0,0.0,0.0,0.1788,0.075,0.0,0.0,0.0,0.0,-0.3723,-0.4009,-0.5288,-0.8021,-0.8312,-0.846,-0.8682,-0.8686,-0.876,-0.8858,-0.8861,-0.8842,-0.8699,-0.8699,-0.8621,-0.8482,-0.8482,-0.8479,-0.8465,-0.8381,-0.832,-0.8245,-0.8085,-0.7884,-0.7797,-0.7784,-0.7695,-0.7577,-0.7587,-0.7584,-0.758,0.0,0.0,0.0,-0.136,-0.065,0.0428,0.1685,0.3406,0.5144,0.6687,0.8459,0.9894,0.0,1.069,0.0,0.0,0.0,0.0,0.0,0.0,0.8145,0.7782,0.7285,0.6584,0.5638,0.7191,0.8185,0.8539,1.1592,1.3823,0.0,0.0,0.0,0.0,0.0,0.0,0.0,0.0,0.0,0.0,0.0,0.0,0.0,0.0,0.0,0.0,0.0,0.0,0.0,0.0,0.0,0.0,0.0,0.0,0.0,0.0,0.0,0.0,0.0,0.0,0.0,0.0,0.0,0.0,0.0,0.0,0.0,0.0,0.0,0.0,0.0,0.0,0.0,0.0,0.0,0.0,0.0,0.0,0.0,0.0624,0.0247,0.0,0.0,0.0,-0.075,-0.256,-0.3645,-0.5085,-0.7046,-0.8151,-0.8842,-0.8991,-0.9089,-0.9123,-0.9076,-0.9076,-0.9005,-0.8804,-0.8804,-0.8828,-0.8774,-0.8774,-0.8723,-0.8621,-0.8472,-0.8357,-0.831,-0.8102,-0.7958,-0.7911,-0.7911,-0.7877,-0.7833,-0.7833,-0.7833,-0.7833,-0.1742,-0.0923,0.0,-0.1353,-0.0672,0.0428,0.1684,0.3879,0.6012,0.7713,1.0172,1.2088,0.0,0.0,0.0,0.0,0.0,0.0,0.0,0.0,0.9064,0.7824,0.6626,0.5399,0.4182,0.5565,0.6546,0.7047,1.0166,0.0,0.0,0.0,0.0,0.0,0.0,0.0,0.0,0.0,0.0,0.0,0.0,0.0,1.1196,0.0,0.0,0.0,0.0,0.0,0.0,0.0,0.0,0.0,0.0,0.0,0.0,0.0,0.0,0.0,0.0,0.0,0.0,0.0,0.0,0.0,0.0,0.0,0.0,0.0,0.0,0.0,0.0,0.0,0.0,0.0,0.0,0.0,0.0,0.0,0.0,0.0,0.0,0.0,0.0,0.0,-0.0577,-0.1949,-0.2995,-0.4458,-0.6526,-0.765,-0.8558,-0.9225,-0.9327,-0.9334,-0.9286,-0.9234,-0.9159,-0.9011,-0.8905,-0.8885,-0.8885,-0.8885,-0.8828,-0.8774,-0.857,-0.8428,-0.8326,-0.8123,-0.7988,-0.7988,-0.7988,-0.7988,-0.7988,-0.7988,-0.7988,-0.7988,-0.1722,-0.113,-0.0743,-0.091,-0.0403,0.0455,0.179,0.3941,0.6378,0.9051,1.1877,0.0,0.0,0.0,0.0,0.0,0.0,0.0,0.0,1.1458,1.0055,0.7364,0.498,0.336,0.2621,0.3692,0.4881,0.6088,0.0,0.0,0.0,0.0,0.0,0.0,0.0,0.0,0.0,0.0,0.0,0.0,0.0,0.0,1.3723,0.0,0.0,0.0,0.0,0.0,0.0,0.0,0.0,0.0,0.0,0.0,0.0,0.0,0.0,0.0,0.0,0.0,0.0,0.0,0.0,0.0,0.0,0.0,0.0,0.0,0.0,0.0,0.0,0.0,0.0,0.0,0.0,0.0,0.1997,0.0825,0.0,0.0,0.0,0.0,0.0,0.0,-0.0592,-0.2022,-0.2164,-0.3547,-0.6574,-0.6799,-0.7563,-0.921,-0.9333,-0.9333,-0.933,-0.9235,-0.9214,-0.9207,-0.9008,-0.8885,-0.8885,-0.8885,-0.8885,-0.8865,-0.8621,-0.8486,-0.8459,-0.8167,-0.7992,-0.7988,-0.7988,-0.7988,-0.7988,-0.7988,-0.7988,-0.7988,-0.2598,-0.1608,-0.0879,-0.1454,-0.0694,0.0428,0.1655,0.4287,0.6853,0.8921,1.2196,0.0,0.0,0.0,0.0,0.0,0.0,0.0,1.2295,1.1176,0.9237,0.6256,0.3385,0.144,0.0626,0.1007,0.212,0.0,0.0,0.0,0.0,0.0,0.0,0.0,0.0,0.0,0.0,0.0,0.0,0.0,0.0,0.0,1.5097,0.0,0.0,0.0,0.0,0.0,0.0,0.0,0.0,0.0,0.0,0.0,0.0,0.0,0.0,0.0,0.0,0.0,0.0,0.0,0.0,0.0,0.0,0.0,0.0,0.0,0.0,0.0,0.0,0.0,0.0,0.0,0.0,0.3004,0.2129,0.0868,0.0,0.0,0.0,0.0,0.0,0.0,-0.017,-0.0577,-0.162,-0.2554,-0.3437,-0.4672,-0.5544,-0.5962,-0.7287,-0.7897,-0.7751,-0.8803,-0.932,-0.9207,-0.9008,-0.8885,-0.8885,-0.8885,-0.8885,-0.8871,-0.8733,-0.8584,-0.8469,-0.8282,-0.814,-0.7988,-0.7988,-0.7988,-0.7988,-0.7988,-0.7988,-0.7988,-0.3282,-0.2446,-0.1663,-0.178,-0.1006,0.0023,0.1235,0.4028,0.6737,0.8868,1.2292,0.0,0.0,0.0,0.0,0.0,0.0,0.0,1.252,1.0571,0.8278,0.5661,0.0,0.0364,-0.1387,-0.1329,-0.0497,0.0,0.0,0.0,0.0,0.0,0.0,0.0,0.0,0.0,0.0,0.0,0.0,0.0,0.0,0.0,1.6623,1.6217,1.5423,1.4393,1.3463,1.2597,1.1654,1.0137,0.0,0.0,0.0,0.0,0.0,0.0,0.0,0.0,0.0,0.0,0.0,0.0,0.0,0.0,0.0,0.0,0.0,0.0,0.0,0.0,0.0,0.0,0.0,0.0,0.5551,0.3715,0.3016,0.1222,0.0,0.0,0.0,0.0,0.0,0.0,0.0,0.0,-0.077,-0.1602,-0.2313,-0.3249,-0.4063,-0.4789,-0.5805,-0.6296,-0.6183,-0.7695,-0.8396,-0.8259,-0.8755,-0.8998,-0.8885,-0.8885,-0.8885,0.0,-0.8777,-0.8625,-0.8472,-0.8381,-0.818,0.0,0.0,0.0,0.0,0.0,-0.7988,-0.7988,-0.3924,-0.3409,-0.2754,-0.2109,-0.1451,-0.0589,0.061,0.3283,0.6134,0.8851,0.0,0.0,0.0,0.0,0.0,0.0,0.0,0.0,0.0,0.0,0.0,0.5229,0.2466,-0.0411,-0.3379,-0.3578,0.0,0.0,0.0,0.0,0.0,0.0,0.0,0.0,0.0,0.0,0.0,0.0,0.0,0.0,0.0,0.0,1.7823,1.7555,1.6992,1.6245,1.5595,1.4809,1.3777,1.1881,0.0,0.0,0.0,0.0,0.0,0.0,0.0,0.0,0.0,0.0,0.0,0.0,0.0,0.0,0.0,0.0,0.0,0.0,0.0,0.0,0.0,0.0,0.0,0.0,0.597,0.4388,0.4249,0.1916,0.0165,0.0,0.0,0.0,0.0,0.0,0.0,0.0,0.0,-0.0665,-0.2111,0.0,0.0,0.0,0.0,-0.461,-0.461,-0.611,-0.6786,-0.6677,-0.801,-0.8564,-0.8432,-0.8602,-0.8657,-0.865,-0.8685,-0.8638,-0.8472,-0.8347,-0.8194,-0.7988,-0.7988,-0.7988,-0.7988,-0.7988,-0.7988,-0.7988,-0.5012,-0.4045,-0.3207,-0.3184,-0.2313,-0.123,0.0,0.2233,0.5099,0.8722,1.1771,0.0,0.0,0.0,0.0,0.0,0.0,0.0,0.0,0.0,0.7636,0.4154,0.0726,-0.2507,-0.5542,0.0,0.0,0.0,0.0,0.0,0.0,0.0,0.0,0.0,0.0,0.0,0.0,0.0,0.0,0.0,0.0,0.0,1.6948,1.7629,1.7779,1.7567,1.7108,1.6407,1.5444,1.3974,1.2352,1.0683,0.9456,0.0,0.0,0.0,0.0,0.0,0.0,0.0,0.0,0.0,0.0,0.0,0.0,0.0,0.0,0.0,0.0,0.0,0.0,0.0,0.0,0.8491,0.7085,0.5667,0.4604,0.2892,0.1337,0.0167,0.0,0.0,0.0,0.0,0.0,0.0,0.0,-0.0123,-0.0491,-0.0493,0.0,-0.0925,-0.2278,-0.2954,-0.2954,-0.4417,-0.518,-0.5155,0.0,0.0,-0.5419,-0.6589,-0.7146,-0.7202,-0.8348,-0.8737,-0.8479,-0.8452,-0.8282,-0.7988,-0.7988,-0.7988,-0.7988,-0.7988,-0.7988,-0.7988,-0.5964,-0.5166,-0.4383,-0.4012,-0.3472,-0.2699,-0.1527,0.0497,0.3336,0.7333,1.0243,0.0,0.0,0.0,0.0,0.0,0.0,0.0,0.0,1.172,0.8527,0.4466,0.0073,-0.3979,0.0,0.0,0.0,0.0,0.0,0.0,0.0,0.0,0.0,0.0,0.0,0.0,0.0,0.0,0.0,0.0,0.0,0.0,1.5261,1.6228,1.6585,1.6558,1.636,1.6322,1.6165,1.5027,1.3838,1.2588,1.135,0.9343,0.7139,0.0,0.0,0.0,0.0,0.0,0.0,0.0,0.0,0.0,0.0,0.0,0.0,0.0,0.0,1.2019,1.175,0.0,1.0208,0.9756,0.7945,0.6361,0.5691,0.3631,0.1677,0.0168,0.0,0.0,0.0,0.0,0.0,0.0,0.0,0.0,0.0,0.0,0.0,0.0,-0.0802,-0.1233,-0.1233,-0.281,-0.3544,-0.3461,-0.4245,-0.4576,-0.4528,-0.5252,-0.5975,-0.6758,-0.7485,-0.8049,-0.8469,-0.8319,-0.8174,-0.7988,-0.7988,-0.7988,-0.7988,-0.7988,-0.7988,-0.7988,-0.6693,-0.6393,-0.5838,-0.4909,-0.46,-0.4118,-0.3071,-0.1166,0.1609,0.5702,0.8512,1.1459,1.5026,1.542,1.5557,0.0,0.0,0.0,0.0,1.2984,0.9551,0.4978,-0.051,-0.547,0.0,0.0,0.0,0.0,0.0,0.0,0.0,0.0,0.0,0.0,0.0,0.0,0.0,0.0,0.0,0.0,0.0,0.0,1.352,1.4272,1.4822,1.519,1.5116,1.5573,1.6086,1.5253,1.4569,1.38,1.2546,1.0467,0.8165,0.6577,0.5549,0.0,0.0,0.0,0.0,0.0,0.0,0.0,0.0,0.0,1.1071,1.103,1.2568,1.3957,1.4026,1.2485,1.1216,1.1022,0.8869,0.7067,0.6789,0.4655,0.2467,0.0616,0.0169,0.0,0.0,0.0,0.0,0.0,0.0,0.0,0.0,0.0,0.0,0.0,0.0,0.0,0.0,-0.1356,-0.194,-0.1762,-0.3169,-0.375,-0.3634,-0.3913,-0.486,-0.6308,-0.6822,-0.7618,-0.8459,-0.816,-0.7988,-0.7988,-0.7988,-0.7988,-0.7988,-0.7988,-0.7988,-0.7988,-0.7058,-0.7335,-0.7301,-0.6188,-0.5269,-0.4434,-0.3771,-0.2002,0.0721,0.4808,0.7312,1.0254,1.428,1.4767,1.5393,1.6896,0.0,0.0,0.0,1.4796,1.0191,0.4534,-0.1947,0.0,0.0,0.0,0.0,0.0,0.0,0.0,0.0,0.0,0.0,0.0,0.0,0.0,0.0,0.0,0.0,0.0,0.0,0.0,1.2455,1.2334,1.3484,1.5157,1.4861,1.4813,1.4831,1.438,1.3699,1.3016,1.2717,1.1196,0.9209,0.7621,0.0,0.6299,0.4856,0.4332,0.4121,0.3544,0.344,0.3835,0.0,0.0,1.0095,1.1502,1.4015,1.566,1.4619,1.3422,1.2316,1.1419,0.9943,0.8442,0.7069,0.6613,0.5273,0.2295,0.0794,0.0,0.0,0.0,0.0,0.0,0.0,0.0,0.0,0.0,0.0,0.0,0.0,0.0,0.0,-0.0185,-0.0243,-0.0236,-0.0412,-0.0521,-0.056,-0.1845,-0.3296,-0.4853,-0.7243,-0.8351,-0.8459,-0.816,-0.7988,-0.7988,-0.7988,-0.7988,-0.7988,-0.7988,-0.7988,-0.7988,-0.7572,-0.7725,-0.7538,-0.6392,-0.5919,-0.5379,-0.4458,-0.3041,-0.057,0.3596,0.6273,0.939,1.3611,1.5339,1.6616,1.7578,1.861,1.9302,1.9598,1.7142,1.2305,0.4698,0.0,0.0,0.0,0.0,0.0,0.0,0.0,0.0,0.0,0.0,0.0,0.0,0.0,0.0,0.0,0.0,0.0,0.0,0.0,0.0,1.2037,1.1953,1.267,1.3741,1.3601,1.3876,0.0,0.0,1.4461,1.3969,1.3388,1.1768,0.9728,0.8184,0.7318,0.0,0.5028,0.4094,0.0,0.0,0.3249,0.3562,0.443,0.6661,0.8954,1.0418,1.3232,1.5488,1.5758,1.4982,1.3928,0.0,1.1384,0.9931,0.8461,0.6747,0.5117,0.3695,0.1464,0.0,0.0,0.0,0.0,0.0,0.0,0.0,0.0,0.0,0.0,0.0,0.0,0.0,0.0,0.0,0.0,0.0,0.0,0.0,0.0,-0.0616,-0.2237,-0.4628,-0.6404,-0.7685,-0.8459,-0.816,-0.7988,-0.7988,-0.7988,-0.7988,-0.7988,-0.7988,-0.7988,-0.7988,-0.794,-0.8015,-0.7669,-0.6215,-0.6074,-0.5841,-0.4907,-0.36,-0.132,0.2556,0.5379,0.8826,1.3478,1.5966,1.7538,1.8166,1.9792,2.0907,2.1192,1.9534,1.4282,0.4671,0.0,0.0,0.0,0.0,0.0,0.0,0.0,0.0,0.0,0.0,0.0,0.0,0.0,0.0,0.0,0.0,0.0,0.0,0.0,0.0,1.1935,1.2059,1.2231,1.2406,1.2406,1.3043,0.0,0.0,1.4303,1.3808,1.33,1.1812,0.9963,0.843,0.7199,0.5986,0.4617,0.0,0.0,0.2446,0.2484,0.2741,0.3178,0.5391,0.7692,0.9063,1.2193,1.4968,1.5966,1.5692,1.4883,1.3723,1.2264,1.0827,0.9384,0.7002,0.5144,0.4594,0.2181,0.0454,0.0059,0.0,0.0,0.0,0.0,0.0,0.0,0.0,0.0,0.0,0.0,0.0,0.0,0.0,0.0,0.0,0.0,0.0,0.0,-0.0449,-0.2014,-0.4575,-0.5759,-0.7153,-0.8459,-0.816,-0.7988,-0.7988,-0.7988,-0.7988,-0.7988,-0.7988,-0.7988,-0.7988,-0.7995,-0.8316,-0.7957,-0.5728,-0.5445,-0.5391,-0.4967,-0.3377,-0.1159,0.1844,0.4695,0.854,1.408,1.6241,1.77,1.8698,2.0131,2.1776,2.3647,2.1853,1.5602,0.0,0.0,0.0,0.0,0.0,0.0,0.0,0.0,0.0,0.0,0.0,0.0,0.0,0.0,0.0,0.0,0.0,0.0,0.0,0.0,0.0,1.1943,1.2479,1.2254,1.1615,1.1615,0.0,0.0,0.0,1.2285,1.1478,1.1825,1.1098,0.0,0.8414,0.6476,0.0,0.0,0.0,0.1399,0.0366,0.0095,0.0443,0.1753,0.4148,0.6424,0.7783,1.1392,1.4441,1.4803,1.4916,1.4684,1.3643,1.2373,1.0959,0.9398,0.7942,0.6424,0.4713,0.3073,0.1587,0.0,0.0,0.0,0.0,0.0,0.0,0.0,0.0,0.0,0.0,0.0,0.0,0.0,0.0,0.0,0.0,0.0,0.0,-0.0057,-0.1466,-0.3017,-0.4575,-0.5759,-0.7153,-0.8459,-0.816,-0.7988,-0.7988,-0.7988,-0.7988,-0.7988,-0.7988,-0.7988,-0.7988,-0.7933,-0.819,-0.7802,-0.5795,-0.5738,-0.5628,-0.4595,-0.3083,-0.1216,0.1169,0.6003,0.0,0.0,0.0,0.0,0.0,2.0957,2.2647,2.4018,2.3693,1.6973,0.0,0.0,0.0,0.0,0.0,0.0,0.0,0.0,0.0,0.0,0.0,0.0,0.0,0.0,0.0,0.0,0.0,0.0,0.0,0.0,0.0,1.2712,1.2806,1.2861,1.2932,0.0,0.0,0.0,0.0,0.0,0.0,1.2159,0.0,0.0,0.8657,0.0,0.0,0.0,0.0,0.166,0.1374,0.068,0.0099,0.0552,0.2761,0.5051,0.6382,1.0082,1.3342,1.4272,1.5568,1.5734,1.3552,1.307,1.2082,0.9652,0.7189,0.5414,0.4729,0.2353,0.0,0.0,0.0,0.0,0.0,0.0,0.0,0.0,0.0,0.0,0.0,0.0,0.0,0.0,0.0,0.0,0.0,0.0,0.0,0.0,-0.0505,-0.1566,-0.3067,-0.4253,-0.5618,-0.7081,-0.7753,-0.7988,-0.7988,-0.7988,-0.7988,-0.7988,-0.7988,-0.7988,-0.7988,-0.837,-0.8508,-0.8054,-0.6331,-0.6083,0.0,0.0,0.0,0.0,0.0,0.0,0.0,0.0,0.0,0.0,0.0,0.0,2.2199,2.3417,2.377,1.6943,0.0,0.0,0.0,0.0,0.0,0.0,0.0,0.0,0.0,0.0,0.0,0.0,0.0,0.0,0.0,0.0,0.0,0.0,0.0,0.0,0.0,1.281,1.3002,1.3306,0.0,0.0,0.0,0.0,0.0,0.0,0.0,0.0,0.0,0.0,0.0,0.0,0.6214,0.0,0.3933,0.2496,0.208,0.1329,0.0696,0.0704,0.2414,0.4355,0.5649,0.8913,1.1959,1.3286,1.4627,1.4934,1.3204,1.2856,1.2003,0.9638,0.6747,0.4876,0.469,0.1927,0.0,0.0,0.0,0.0,0.0,0.0,0.0,0.0,0.0,0.0,0.0,0.0,0.0,0.0,0.0,0.0,0.0,0.0,0.0,0.0,0.0,-0.0784,-0.2231,-0.2964,-0.4454,-0.634,-0.7038,-0.7587,-0.7988,-0.7988,-0.7988,-0.7988,-0.7988,-0.7988,-0.7988,-0.9137,-0.9128,-0.8617,0.0,0.0,0.0,0.0,0.0,0.0,0.0,0.0,0.0,0.0,0.0,0.0,0.0,0.0,0.0,2.1902,0.0,0.0,0.0,-0.0848,-0.8974,-2.5327,-2.5466,-2.4471,0.0,0.0,0.0,0.0,0.0,0.0,0.0,0.0,0.0,0.0,0.0,0.0,0.0,0.0,0.0,1.2434,1.3188,0.0,0.0,0.0,0.0,0.0,0.0,0.0,0.0,0.0,0.0,0.0,0.0,0.0,0.6701,0.575,0.4798,0.3774,0.2436,0.2085,0.2063,0.2013,0.3062,0.444,0.5584,0.8042,1.0405,0.0,0.0,1.2551,1.2673,1.1987,1.0875,0.9444,0.6713,0.4841,0.0,0.0,0.0,0.0,0.0,0.0,0.0,0.0,0.0,0.0,0.0,0.0,0.0,0.0,0.0,0.0,0.0,0.0,0.0,0.0,0.0,0.0,0.0,-0.0784,-0.2062,-0.2049,-0.3553,-0.607,-0.6017,-0.6734,-0.7889,-0.7988,-0.7988,-0.7988,-0.7988,-0.7988,-0.7988,0.0,0.0,0.0,0.0,0.0,0.0,0.0,0.0,0.0,0.0,0.0,0.0,0.0,0.0,0.0,0.0,0.0,0.0,0.0,0.0,0.0,0.0,0.0,0.0,-2.116,-2.1734,0.0,0.0,0.0,0.0,0.0,0.0,0.0,0.0,0.0,0.0,0.0,0.0,0.0,0.0,0.0,0.0,1.4354,0.0,0.0,0.0,0.0,0.0,0.0,0.0,0.0,0.0,0.0,0.0,1.2766,0.0,0.0,0.9113,0.7482,0.6189,0.5063,0.3821,0.3503,0.3215,0.2213,0.3727,0.545,0.5718,0.7822,0.9759,1.013,0.0,0.0,1.1175,1.1965,0.0,0.9648,0.6765,0.0,0.0,0.0,0.0,0.0,0.0,0.0,0.0,0.0,0.0,0.0,0.0,0.0,0.0,0.0,0.0,0.0,0.0,0.0,0.0,0.0,0.0,0.0,0.0,-0.0223,-0.0605,-0.1557,-0.2426,-0.3271,-0.5174,-0.6179,-0.6631,-0.7587,-0.7988,-0.7988,-0.7988,-0.7988,-0.7988,0.0,0.0,0.0,0.0,0.0,0.0,0.0,0.0,0.0,0.0,0.0,0.0,0.0,0.0,0.0,0.0,0.0,0.0,0.0,0.0,0.0,0.0,0.0,0.0,0.0,0.0,0.0,0.0,0.0,0.0,0.0,0.0,0.0,0.0,0.0,0.0,0.0,0.0,0.0,0.0,0.0,0.0,0.0,0.0,0.0,0.0,0.0,0.0,0.0,0.0,0.0,1.5462,1.4962,1.4404,1.3377,1.0929,0.0,1.0061,0.8215,0.7215,0.6443,0.5207,0.487,0.466,0.3828,0.4771,0.5927,0.6401,0.7634,0.0,0.9325,0.0,0.0,0.0,0.0,0.0,0.9578,0.7467,0.5754,0.0,0.2633,0.0,0.0061,0.0,0.0,0.0,0.0,0.0,0.0,0.0,0.0,0.0,0.0,0.0,0.0,0.0,0.0,0.0,0.0,0.0,0.0,0.0,0.0,-0.0055,0.0,-0.1474,-0.2118,-0.3647,-0.4924,-0.6079,-0.6833,-0.7484,-0.7988,-0.7988,-0.7988,-0.7988,0.0,0.0,0.0,0.0,0.0,0.0,0.0,0.0,0.0,0.0,0.0,0.0,0.0,0.0,0.0,0.0,0.0,0.0,0.0,0.0,0.0,0.0,0.0,0.0,0.0,0.0,0.0,0.0,0.0,0.0,0.0,0.0,0.0,0.0,0.0,0.0,0.0,0.0,0.0,0.0,0.0,0.0,0.0,0.0,0.0,0.0,0.0,0.0,0.0,0.0,1.7746,1.6066,1.6076,1.4931,1.3225,1.1548,1.0895,1.0312,0.8563,0.8034,0.7686,0.6331,0.6119,0.6179,0.5881,0.5932,0.6286,0.7191,0.0,0.782,0.8845,0.0,0.8455,0.972,0.0,0.9182,0.9395,0.8232,0.6733,0.5098,0.3506,0.1848,0.0185,0.0,0.0,0.0,0.0,0.0,0.0,0.0,0.0,0.0,0.0,0.0,0.0,0.0,0.0,0.0,0.0,0.0,0.0,0.0,0.0,0.0,0.0,0.0,-0.1757,-0.1927,-0.3369,-0.5527,-0.5879,-0.6731,-0.7736,-0.7939,-0.7988,-0.7988,0.0,0.0,0.0,0.0,0.0,0.0,0.0,0.2091,0.2591,0.1448,0.2789,0.0,0.0,0.0,0.0,0.0,0.0,0.0,0.0,0.0,0.0,0.0,0.0,0.0,0.0,0.0,0.0,0.0,0.0,0.0,0.0,0.0,0.0,0.0,0.0,0.0,0.0,0.0,0.0,0.0,0.0,0.0,0.0,0.0,0.0,0.0,0.0,0.0,0.0,0.0,1.8351,1.8206,1.697,1.5974,1.492,1.3135,1.185,1.0801,0.9894,0.8848,0.7686,0.6331,0.6752,0.7204,0.6058,0.6478,0.0,0.0,0.0,0.7255,0.7446,0.8417,0.0,0.8467,0.0,0.0,0.0,0.0,0.6598,0.0,0.0,0.0,0.0,0.0,0.0,0.0,0.0,0.0,0.0,0.0,0.0,0.0,0.0,0.0,0.0,0.0,0.0,0.0,0.0,0.0,0.0,0.0,0.0,0.0,0.0,0.0,-0.0415,-0.1523,-0.2264,-0.2916,-0.5125,-0.6129,-0.6481,-0.7587,-0.7988,-0.7988,0.0,0.0,0.0,0.0,0.0,0.0,0.0,0.2776,0.3271,0.2604,0.2722,0.3102,0.3677,0.5354,0.7167,0.0,0.0,0.0,0.0,0.0,0.0,0.0,0.0,0.0,0.0,0.0,0.0,0.0,0.0,0.0,0.0,0.0,0.0,0.0,0.0,0.0,0.0,0.0,0.0,0.0,0.0,0.0,0.0,0.0,0.0,0.0,0.0,0.0,0.0,0.0,1.6646,1.6139,1.6181,1.5576,1.4662,1.3522,1.2194,1.0952,1.0184,0.9019,0.7839,0.7185,0.7429,0.7598,0.6897,0.0,0.0,0.0,0.0,0.7007,0.7082,0.0,0.0,0.0,0.0,0.0,0.0,0.0,0.0,0.0,0.0,0.0,0.0,0.0,0.0,0.0,0.0,0.0,0.0,0.0,0.0,0.0,0.0,0.0,0.0,0.0,0.0,0.0,0.0,0.0,0.0,0.0,0.0,0.0,0.0,0.0,-0.0051,-0.0709,-0.136,-0.2113,-0.3417,-0.4772,-0.5979,-0.5924,-0.6778,-0.7889,0.0,0.0,0.0,0.0,0.0,0.0,0.0,0.3237,0.3824,0.3762,0.3195,0.265,0.2353,0.3929,0.5572,0.0,0.0,0.0,0.0,0.0,0.0,0.0,0.0,0.0,0.0,0.0,0.0,0.0,0.0,0.0,0.0,0.0,0.0,0.0,0.0,0.0,0.0,0.0,0.0,0.0,0.0,0.0,0.0,0.0,0.0,0.0,0.0,0.0,0.0,0.0,1.4034,1.2984,1.4092,1.3924,1.3259,1.2909,1.2024,1.0988,1.0184,0.9186,0.8382,0.8088,0.7902,0.7736,0.7624,0.736,0.0,0.0,0.7007,0.6964,0.7075,0.0,0.0,0.0,0.0,0.0,0.0,0.0,0.0,0.0,0.0,0.0,0.0,0.0,0.0,0.0,0.0,0.0,0.0,0.0,0.0,0.0,0.0,0.0,0.0,0.0,0.0,0.0,0.0,0.0,0.0,0.0,0.0,0.0,0.0,0.0,0.0,0.0,-0.0605,-0.1611,-0.1913,-0.3267,-0.5074,-0.4268,-0.532,-0.703,0.0,0.0,0.0,0.0,0.0,0.0,0.0,0.3564,0.4356,0.3701,0.3656,0.3409,0.2726,0.3267,0.4195,0.0,0.0,0.0,0.0,0.0,0.0,0.0,0.0,0.0,0.0,0.0,0.0,0.0,0.0,0.0,0.0,0.0,0.0,0.0,0.0,0.0,0.0,0.0,0.0,0.0,0.0,0.0,0.0,0.0,0.0,0.0,0.0,0.0,0.0,0.0,0.0,1.0544,1.0313,1.0471,1.0774,1.0961,0.0,0.0,1.0066,0.9818,0.9509,0.8283,0.7828,0.7614,0.7604,0.0,0.0,0.0,0.7085,0.7082,0.7095,0.7265,0.0,0.0,0.0,0.0,0.0,0.0,0.0,0.0,0.0,0.0,0.0,0.0,0.0,0.0,0.0,0.0,0.0,0.0,0.0,0.0,0.0,0.0,0.0,0.0,0.0,0.0,0.0,0.0,0.0,0.0,0.0,0.0,0.0,0.0,0.0,0.0,-0.005,-0.0303,-0.1511,-0.2163,-0.2515,-0.3615,-0.4166,-0.4518,0.0,0.0,0.0,0.0,0.0,0.0,0.235,0.369,0.4657,0.451,0.4096,0.3726,0.351,0.3674,0.4111,0.4898,0.0,0.0,0.0,0.0,0.0,0.0,0.0,0.0,0.0,0.0,0.0,0.0,0.0,0.0,0.0,0.0,0.0,0.0,0.0,0.0,0.0,0.0,0.0,0.0,0.0,0.0,0.0,0.0,0.0,0.0,0.0,0.0,0.0,0.0,0.0,0.0,0.7702,0.7737,0.0,0.0,1.0338,0.9827,0.9793,0.9244,0.8552,0.8113,0.7818,0.76,0.76,0.0,0.0,0.7078,0.7028,0.6997,0.7082,0.7146,0.7333,0.0,0.7736,0.0,0.0,0.0,0.0,0.0,0.0,0.0,0.0,0.0,0.0,0.0,0.0,0.0,0.0,0.0,0.0,0.0,0.0,0.0,0.0,0.0,0.0,0.0,0.0,0.0,0.0,0.0,0.0,0.0,0.0,0.0,0.0,0.0,0.0,-0.005,-0.0605,-0.131,-0.1962,-0.1711,-0.2614,-0.4066,0.0,0.0,0.0,0.0,0.0,0.2249,0.2389,0.3727,0.4782,0.5005,0.4526,0.4245,0.4406,0.4417,0.4423,0.4434,0.5731,0.0,0.0,0.0,0.0,0.0,0.0,0.0,0.0,0.0,0.0,0.0,0.0,0.0,0.0,0.0,0.0,0.0,0.0,0.0,0.0,0.0,0.0,0.0,0.0,0.0,0.0,0.0,0.0,0.0,0.0,0.0,0.0,0.0,0.0,0.0,0.0,0.0,0.0,0.0,0.9476,0.9019,0.9364,0.893,0.8304,0.799,0.7753,0.7587,0.0,0.0,0.6977,0.7075,0.7018,0.6977,0.7078,0.7095,0.7196,0.0,0.76,0.779,0.8343,0.0,0.0,0.0,0.0,0.0,0.0,0.0,0.0,0.0,0.0,0.0,0.0,0.0,0.0,0.0,0.0,0.0,0.0,0.0,0.0,0.0,0.0,0.0,0.0,0.0,0.0,0.0,0.0,0.0,0.0,0.0,0.0,0.0,0.0,-0.0555,-0.131,-0.0353,-0.1209,-0.2914,0.0,0.0,0.0,0.0,0.0,0.0,0.2204,0.3615,0.4748,0.487,0.5012,0.5157,0.5378,0.5395,0.4963,0.3913,0.5164,0.0,0.0,0.0,0.0,0.0,0.0,0.0,0.0,0.0,0.0,0.0,0.0,0.0,0.0,0.0,0.0,0.0,0.0,0.0,0.0,0.0,0.0,0.0,0.0,0.0,0.6335,0.0,0.0,0.0,0.0,0.0,0.0,0.0,0.0,0.0,0.0,0.0,0.0,0.0,0.8529,0.9056,0.8798,0.9246,0.9438,0.7965,0.76,0.756,0.0,0.7251,0.7095,0.7095,0.7095,0.7095,0.7095,0.7095,0.7196,0.755,0.76,0.7756,0.8258,0.0,0.0,0.0,0.0,0.0,0.0,0.0,0.0,0.0,0.0,0.0,0.0,0.0,0.0,0.0,0.0,0.0,0.0,0.0,0.0,0.0,0.0,0.0,0.0,0.0,0.0,0.0,0.0,0.0,0.0,0.0,0.0,0.0,0.0,0.0,0.0,0.0,0.0,-0.0404,0.0,0.0,0.0,0.0,0.0,0.0,0.0,0.3543,0.4617,0.4745,0.4894,0.5009,0.5186,0.473,0.4066,0.314,0.395,0.0,0.0,0.0,0.0,0.0,0.0,0.0,0.0,0.0,0.0,-0.0178,0.0,0.0,0.0,0.0,0.0,0.0,0.0,0.0,0.0,0.0,0.0,0.0,0.0,0.5237,0.63,0.0,0.0,0.0,0.0,0.0,0.0,0.0,0.0,0.0,0.0,0.0,0.0,0.8385,0.8207,0.0,0.7479,0.7694,0.7835,0.7385,0.724,0.7227,0.7224,0.7132,0.7095,0.7095,0.7095,0.7095,0.7095,0.7095,0.7227,0.7678,0.7743,0.0,0.0,0.0,0.0,0.0,0.0,0.0,0.0,0.0,0.0,0.0,0.0,0.0,0.0,0.0,0.0,0.0,0.0,0.0,0.0,0.0,0.0,0.0,0.0,0.0,0.0,0.0,0.0,0.0,0.0,0.0,0.0,0.0,0.0,0.0,0.0,0.0,0.0,0.0,0.0,-0.0252,0.0,0.0,0.0,0.0,0.0,0.0,0.0,0.3707,0.4545,0.467,0.4823,0.4941,0.5083,0.4442,0.3647,0.2778,0.2798,0.0,0.0,0.0,0.0,0.0,0.0,0.0,0.0,0.0,0.205,0.2099,0.2717,0.0,0.0,0.0,0.0,0.0,0.0,0.0,0.0,0.0,0.0,0.0,0.433,0.5214,0.6173,0.0,0.0,0.0,0.0,0.0,0.0,0.0,0.0,0.0,0.0,0.0,0.0,0.0,0.8265,0.7764,0.0,0.7453,0.7004,0.6947,0.7014,0.7082,0.7028,0.7058,0.7095,0.7095,0.7095,0.7095,0.7095,0.7095,0.7223,0.7665,0.7733,0.0,0.0,0.0,0.0,0.0,0.0,0.0,0.0,0.0,0.0,0.0,0.0,0.0,0.0,0.0,0.0,0.0,0.0,0.0,0.0,0.0,0.0,0.0,0.0,0.0,0.0,0.0,0.0,0.0,0.0,0.0,0.0,0.0,0.0,0.0,0.0,-0.0303,-0.0706,-0.0202,-0.0303,-0.0857,0.0,0.0,0.0,0.0,0.0,0.0,0.0,0.4015,0.4542,0.4657,0.4816,0.4938,0.5069,0.4371,0.3582,0.2785,0.0,0.0,0.0,0.0,0.0,0.0,0.0,0.0,0.0,0.3199,0.2942,0.313,0.3136,0.3173,0.3202,0.2192,0.0,0.0,0.0,0.0,0.0,0.0,0.0,0.0,0.4637,0.5237,0.0,0.0,0.0,0.0,0.0,0.0,0.0,0.0,0.0,0.0,0.0,0.0,0.0,0.0,0.0,0.0,0.0,0.8335,0.6943,0.6705,0.6892,0.7031,0.69,0.6987,0.0,0.7095,0.7095,0.7098,0.7109,0.7112,0.7216,0.758,0.7631,0.0,0.0,0.0,0.0,0.0,0.0,0.0,0.0,0.0,0.0,0.0,0.0,0.0,0.0,0.0,0.0,0.0,0.0,0.0,0.0,0.0,0.0,0.0,0.0,0.0,0.0,0.0,0.0,0.0,0.0,0.0,0.0,0.0,0.0,0.0,-0.0101,-0.0907,-0.1862,-0.0706,-0.1008,-0.2013,0.0,0.0,0.0,0.0,0.0,0.0,0.0,0.0,0.0,0.0,0.4752,0.4901,0.4935,0.3799,0.2937,0.0,0.0,0.0,0.0,0.0,0.0,0.0,0.0,0.0,0.0,0.445,0.4473,0.5266,0.5439,0.5093,0.4295,0.3242,0.2339,0.0,0.0,0.0,0.0,0.0,0.0,0.0,0.4671,0.5237,0.0,0.0,0.0,0.0,0.6387,0.6287,0.0,0.0,0.0,0.0,0.0,0.0,0.0,0.0,0.9142,0.9525,1.0273,0.0,0.754,0.6634,0.6586,0.6797,0.0,0.691,0.7095,0.7095,0.0,0.7132,0.7295,0.7316,0.7455,0.782,0.7887,0.0,0.0,0.0,0.0,0.0,0.0,0.0,0.0,0.0,0.0,0.0,0.0,0.0,0.0,0.0,0.0,0.0,0.0,0.0,0.0,0.0,0.0,0.0,0.0,0.0,0.0,0.0,0.0,0.0,0.0,0.0,0.0,0.0,0.0,-0.0101,-0.1109,-0.1712,-0.2063,-0.2815,-0.2614,-0.2013,0.0,0.0,0.0,0.0,0.0,0.0,0.0,0.0,0.0,0.0,0.0,0.0,0.0,0.0,0.0,0.0,0.0,0.0,0.0,0.0,0.0,0.0,0.0,0.0,0.0,0.5202,0.5336,0.5993,0.6112,0.5918,0.5395,0.3826,0.0,0.0,0.0,0.0,0.0,0.0,0.0,0.0,0.5378,0.0,0.0,0.0,0.0,0.0,0.6643,0.6321,0.0,0.5691,0.5895,0.6152,0.0,0.0,0.0,0.0,0.997,1.0683,1.0789,0.9475,0.7954,0.731,0.6999,0.682,0.6888,0.0,0.0,0.0,0.0,0.7931,0.8223,0.8713,0.9042,0.8832,0.8803,0.0,0.0,0.0,0.0,0.0,0.0,0.0,0.0,0.0,0.0,0.0,0.0,0.0,0.0,0.0,0.0,0.0,0.0,0.0,0.0,0.0,0.0,0.0,0.0,0.0,0.0,0.0,0.0,0.0,0.0,0.0,0.0,0.0,-0.0353,-0.1008,-0.1711,-0.2765,-0.3869,-0.3967,-0.3917,-0.367,0.0,0.0,0.0,0.0,0.0,0.0,0.0,0.0,0.0,0.0,0.0,0.0,0.0,0.0,0.0,0.0,0.0,0.0,0.0,0.0,0.0,0.0,0.0,0.0,0.0,0.0,0.6083,0.6506,0.6382,0.6391,0.0,0.0,0.3051,0.0,0.0,0.0,0.0,0.0,0.0,0.6074,0.6245,0.0,0.0,0.0,0.0,0.0,0.0,0.0,0.0,0.5701,0.5867,0.6013,0.6194,0.0,0.0,0.0,0.0,0.0,1.1291,0.9956,0.8676,0.8266,0.7685,0.7199,0.7085,0.0,0.0,0.0,0.0,0.0,0.0,0.0,0.0,0.0,0.0,0.0,0.0,0.0,0.0,0.0,0.0,0.0,0.0,0.0,0.0,0.0,0.0,0.0,0.0,0.0,0.0,0.0,0.0,0.0,0.0,0.0,0.0,0.0,0.0,0.0,0.0,0.0,0.0,0.0,0.0,0.0,0.0,0.0,-0.0656,-0.1712,-0.2163,-0.3718,-0.5625,-0.4868,-0.5222,-0.5627,0.0,0.0,0.0,0.0,0.0,0.0,0.0,0.0,0.0,0.0,0.0,0.0,0.0,0.0,0.0,0.0,0.0,0.0,0.0,0.0,0.0,0.0,0.0,0.0,0.0,0.0,0.0,0.0,0.0,0.0,0.7691,0.4738,0.2799,0.1859,0.0,0.0,0.0,0.0,0.0,0.6265,0.0,0.0,0.0,0.0,0.0,0.0,0.0,0.0,0.0,0.5498,0.5698,0.5973,0.5905,0.0,0.0,0.0,0.0,0.0,1.222,1.2021,1.0921,0.8608,0.8384,0.8419,0.7196,0.0,0.0,0.0,0.0,0.0,0.0,0.0,0.0,0.0,0.0,0.0,0.0,0.0,0.0,0.0,0.0,0.0,0.0,0.0,0.0,0.0,0.0,0.0,0.0,0.0,0.0,0.0,0.0,0.0,0.0,0.0,0.0,0.0,0.0,0.0,0.0,0.0,0.0,0.0,0.0,0.0,0.0,0.0,-0.0101,-0.0555,-0.2815,-0.3966,-0.4568,-0.6628,-0.6781,-0.5627,0.0,0.0,0.0,0.0,0.0,0.0,0.0,0.0,0.0,0.0,0.0,0.0,0.0,0.0,0.0,0.0,0.0,0.0,0.0,0.0,0.0,0.0,0.0,0.0,0.0,0.0,0.0,0.0,0.0,0.7959,0.7823,0.5308,0.3781,0.3203,0.0,0.0,0.0,0.0,0.0,0.63,0.0,0.0,0.0,0.0,0.0,0.0,0.0,0.0,0.0,0.0,0.5674,0.5908,0.5922,0.0,0.0,0.0,0.0,0.0,1.1896,1.2197,1.1796,1.0458,1.0261,1.0258,0.9651,0.0,0.0,0.0,0.0,0.0,0.0,0.0,0.0,0.0,0.0,0.0,0.0,0.0,0.0,0.0,0.0,0.0,0.0,0.0,0.0,0.0,0.0,0.0,0.0,0.0,0.0,0.0,0.0,0.0,0.0,0.0,0.0,0.0,0.0,0.0,0.0,0.0,0.0,0.0,0.0,0.0,0.0,0.0,-0.0404,-0.126,-0.3215,-0.4468,-0.5322,-0.7282,-0.7132,-0.5727,0.0,0.0,0.0,0.0,0.0,0.0,0.0,0.0,0.0,0.0,0.0,0.0,0.0,0.0,0.0,0.0,0.0,0.0,0.0,0.0,0.0,0.0,0.0,0.0,0.0,0.0,0.8583,1.0013,0.9121,0.8282,0.7447,0.5584,0.4665,0.0,0.0,0.0,0.0,0.6084,0.6152,0.63,0.0,0.0,0.0,0.0,0.0,0.0,0.0,0.0,0.0,0.0,0.0,0.0,0.0,0.0,0.0,0.8324,0.8854,0.9574,1.1284,1.18,1.1974,1.2217,1.2003,1.1687,1.1651,0.0,0.0,0.0,0.0,0.0,0.0,0.0,0.0,0.0,0.0,0.0,0.0,0.0,0.0,0.0,0.0,0.0,0.0,0.0,0.0,0.0,0.0,0.0,0.0,0.0,0.0303,0.0,0.0,0.0,0.0,0.0,0.0,0.0,0.0,0.0,0.0,0.0,0.0,0.0,0.0,0.0,0.0,0.0,-0.0605,-0.1711,-0.3364,-0.502,-0.6581,-0.7637,-0.7132,-0.5827,0.0,0.0,0.0,0.0,0.0,0.0,0.0,0.0,0.0,0.0,0.0,0.0,0.0,0.0,0.0,0.0,0.0,0.0,0.0,0.0,0.0,0.0,0.0,0.0,0.0,0.8994,0.9983,1.2077,1.1206,0.9311,0.646,0.5399,0.4825,0.4675,0.0,0.0,0.0,0.0,0.6289,0.63,0.63,0.0,0.0,0.0,0.0,0.0,0.0,0.0,0.0,0.0,0.0,0.0,0.0,0.0,0.6368,0.7525,0.8347,0.9201,1.0816,1.1272,1.16,1.3089,1.2859,0.0,1.1652,1.0984,0.0,0.0,0.0,0.0,0.0,0.0,0.0,0.0,0.0,0.0,0.0,0.0,0.0,0.0,0.0,0.0,0.0,0.0,0.0,0.0,0.0,0.0,0.0,0.0,0.0,0.0051,0.0,0.0,0.0,0.0,0.0,0.0,0.0,0.0,0.0,0.0,0.0,0.0,0.0,0.0,0.0,0.0,-0.005,-0.0404,-0.3015,-0.557,-0.7889,-0.7988,-0.7132,-0.5827,0.0,0.0,0.0,0.0,0.0,0.0,0.0,0.0,0.0,0.0,0.0,0.0,0.0,0.0,0.0,0.0,0.0,0.0,0.0,0.0,0.0,0.0,0.0,0.4842,0.8833,0.9131,1.0213,1.2305,1.0706,0.9121,0.7481,0.5652,0.0,0.0,0.0,0.0,0.0,0.0,0.0,0.63,0.63,0.6132,0.0,0.0,0.0,0.0,0.0,0.0,0.0,0.0,0.5545,0.561,0.5722,0.5817,0.6059,0.6985,0.7463,0.814,1.0016,1.098,1.1842,1.3249,1.361,0.0,0.0,1.2989,1.2323,0.0,0.0,0.0,0.0,0.0,0.0,0.0,0.0,0.0,0.0,0.0,0.0,0.0,0.0,0.0,0.0,0.0,0.0,0.0,0.0,0.0,0.0,0.0,0.0,0.2514,0.1661,0.126,0.126,0.0404,0.0,0.0,0.0,0.0,0.0,0.0,0.0,0.0,0.0,0.0,0.0,0.0,0.0,-0.0252,-0.2964,-0.5083,-0.6721,-0.7654,-0.7576,-0.6707,0.0,0.0,0.0,0.0,0.0,0.0,0.0,0.0,0.0,0.0,0.0,0.0,0.0,0.0,0.0,0.0,0.0,0.0,0.0,0.0,0.0,0.0,0.0,0.4188,0.7843,0.8139,0.9543,1.2164,1.0237,0.9029,0.8471,0.0,0.0,0.0,0.0,0.0,0.0,0.0,0.0,0.0,0.63,0.6169,0.0,0.0,0.0,0.0,0.0,0.0,0.0,0.0,0.5504,0.5569,0.5627,0.5691,0.5828,0.6391,0.684,0.7565,0.9425,1.0378,1.1316,1.3149,0.0,0.0,1.4805,1.441,0.0,0.0,0.0,0.0,0.0,0.0,0.0,0.0,0.0,0.0,0.0,0.0,0.0,0.0,0.0,0.0,0.0,0.0,0.0,0.0,0.0,0.0,0.0,0.0,0.0,0.0,0.3115,0.2414,0.2013,0.1109,0.0404,0.0,0.0,0.0,0.0,0.0,0.0,0.0,0.0,0.0,0.0,0.0,-0.0252,-0.085,-0.3089,-0.4722,-0.596,-0.7368,-0.7773,-0.723,0.0,0.0,0.0,0.0,0.0,0.0,0.0,0.0,0.0,0.0,0.0,0.0,0.0,0.0,0.0,0.0,0.0,0.0,0.0,0.0,0.0,0.0,0.0,0.2966,0.593,0.6005,0.794,1.1906,1.0153,0.9296,0.9226,0.6143,0.0,0.0,0.0,0.0,0.0,0.0,0.0,0.0,0.63,0.6169,0.5979,0.0,0.0,0.0,0.0,0.0,0.0,0.0,0.5521,0.5446,0.5705,0.5701,0.5616,0.5755,0.6513,0.7636,0.907,0.9324,0.9837,0.0,0.0,0.0,1.4542,0.0,0.0,0.0,0.0,0.0,0.0,0.0,0.0,0.0,0.0,0.0,0.0,0.0,0.0,0.0,0.0,0.0,0.0,0.0,0.0,0.0,0.0,0.0,0.0,0.0,0.0,0.0,0.4016,0.3366,0.2063,0.2013,0.131,0.0,0.0,0.0,0.0,0.0,0.0,0.0,0.0,0.0,0.0,0.0,-0.0798,-0.2103,-0.3323,-0.4584,-0.5926,-0.712,-0.755,-0.7214,0.0,0.0,0.0,0.0,0.0,0.0,0.0,0.0,0.0,0.0,0.0,0.0,0.0,0.0,0.0,0.0,0.0,0.0,0.0,0.0,0.0,0.0,0.0,0.0,0.0,0.0,0.8264,1.1,1.0381,0.9846,0.0,0.0,0.0,0.6434,0.0,0.0,0.0,0.0,0.0,0.0,0.63,0.6272,0.6162,0.0,0.0,0.0,0.0,0.0,0.0,0.0,0.0,0.0,0.5498,0.5606,0.5705,0.5576,0.6859,0.8303,0.8042,0.9346,0.0,1.1147,0.0,0.0,0.0,0.0,0.0,0.0,0.0,0.0,0.0,0.0,0.0,0.0,0.0,0.0,0.0,0.0,0.0,0.0,0.0,0.0,0.0,0.0,0.0,0.0,0.0,0.0,0.0,0.0,0.0,0.0,0.5874,0.5225,0.4822,0.2967,0.1812,0.141,0.0454,0.0,0.0,0.0,0.0,0.0,0.0,0.0,0.0,0.0,-0.0247,-0.0734,-0.2026,-0.3219,-0.4326,-0.4861,-0.5503,-0.5697,0.0,0.0,0.0,0.0,0.0,0.0,0.0,0.0,0.0,0.0,0.0,0.5395,0.0,0.0,0.0,0.0,0.0,0.0,0.0,0.0,0.0,0.0,0.0,0.0,0.0,0.5607,0.77,0.0,0.0,0.0,0.0,0.0,0.0,0.6438,0.0,0.5433,0.0,0.0,0.0,0.0,0.673,0.673,0.67,0.0,0.0,0.0,0.0,0.0,0.0,0.0,0.0,0.0,0.5395,0.5518,0.5613,0.5586,0.6623,0.7792,0.7751,0.9034,0.0,1.06,1.1671,1.2834,0.0,0.0,0.0,0.0,0.0,0.0,0.0,0.0,0.0,0.0,0.0,0.0,0.0,0.0,0.0,0.0,0.0,0.0,0.0,0.0,0.0,0.0,0.0,0.0,0.0,0.0,0.0,0.0,0.7235,0.6531,0.6029,0.3869,0.2514,0.1963,0.0651,0.0,0.0,0.0,0.0,0.0,0.0,0.0,0.0,0.0,0.0,-0.0144,-0.1418,-0.232,-0.2962,-0.3598,-0.4515,-0.5055,0.0,0.0,0.9462,0.7783,0.0,0.0,0.0,0.0,0.0,0.0,0.5395,0.5395,0.0,0.0,0.0,0.2967,0.0,0.0,0.0,0.0,0.0,0.0,0.0,0.0,0.0,0.0,0.0,0.0,0.0,0.0,0.0,0.0,0.664,0.6577,0.0,0.5526,0.0,0.0,0.0,0.0,0.7351,0.7355,0.7339,0.6194,0.0,0.0,0.0,0.0,0.0,0.0,0.0,0.0,0.5412,0.5426,0.5484,0.5691,0.607,0.6702,0.7882,0.0,0.0,1.0546,1.0966,0.0,0.0,0.0,0.0,0.0,0.0,0.0,0.0,0.0,0.0,0.0,0.0,0.0,0.0,0.0,0.0,0.0,0.0,0.0,0.0,0.0,0.0,0.0,0.0,0.0,0.0,0.0,0.0,0.0,0.7988,0.7434,0.6179,0.4862,0.3507,0.0,0.0789,0.0098,0.0,0.0,0.0,0.0,0.0,0.0,0.0,0.0,0.0,-0.0139,-0.1337,-0.1866,-0.2102,-0.3213,-0.4283,-0.4912,0.0,0.0,0.8734,0.769,0.0,0.0,0.0,0.0,0.5395,0.5395,0.5395,0.5395,0.5395,0.5254,0.0,0.3653,0.2944,0.0,0.0,0.0,0.0,0.0,0.0,0.0,0.0,0.0,0.0,0.0,0.0,0.0,0.0,0.0,0.0,0.7455,0.0,0.6395,0.0,0.0,0.0,0.8153,0.7414,0.7172,0.708,0.6039,0.5616,0.0,0.0,0.0,0.0,0.0,0.0,0.0,0.5535,0.5616,0.5674,0.5539,0.6442,0.7349,0.6676,0.7483,0.0,0.0,0.0,0.0,0.0,0.0,0.0,0.0,0.0,0.0,0.0,0.0,0.0,0.0,0.0,0.0,0.0,0.0,0.0,0.0,0.0,0.0,0.0,0.0,0.0,0.0,0.0,0.0,0.0,0.0,0.0,0.7988,0.7988,0.7839,0.7587,0.6134,0.4814,0.0,0.2125,0.0911,0.0,0.0,0.0,0.0,0.0,0.0,0.0,0.0,0.0,-0.0139,-0.1315,-0.2379,-0.326,-0.3525,-0.3748,-0.3794,0.0,0.0,0.0,0.0,0.0,0.0,0.0,0.0,0.5556,0.5416,0.5395,0.5365,0.5257,0.5179,0.0,0.0,0.2953,0.2111,0.0,0.0,0.0,0.0,0.0,0.0,0.0,0.0,0.0,0.0,0.0,0.0,0.0,0.0,0.0,0.787,0.0,0.726,0.0,0.0,0.791,0.8354,0.7845,0.7398,0.6976,0.5995,0.5545,0.5504,0.5423,0.0,0.0,0.0,0.0,0.0,0.0,0.0,0.4957,0.4979,0.5906,0.6855,0.6429,0.0,0.0,0.0,0.0,0.0,0.0,0.0,0.0,0.0,0.0,0.0,0.0,0.0,0.0,0.0,0.0,0.0,0.0,0.0,0.0,0.0,0.0,0.0,0.0,0.0,0.0,0.0,0.0,0.0,0.0,0.7988,0.7988,0.7988,0.7988,0.7955,0.788,0.6525,0.5153,0.3904,0.246,0.1168,0.0,0.0,0.0,0.0,0.0,0.0,0.0,0.0,-0.0319,-0.091,-0.1573,-0.2547,-0.3525,-0.2948,-0.3126,-0.3347,0.0,0.0,0.0,0.0,0.0,0.0,0.0,0.0,0.0,0.5426,0.5395,0.5337,0.5117,0.4981,0.4531,0.0,0.0,0.0,0.1157,0.0,0.0,0.0,0.0,0.0,0.0,0.0,0.0,0.0,0.0,0.0,0.0,0.0,0.0,0.8461,0.0,0.0,0.0,0.0,0.8441,0.8536,0.8273,0.7707,0.6929,0.5956,0.5504,0.5395,0.5395,0.5395,0.5399,0.5426,0.0,0.0,0.0,0.0,0.4017,0.4164,0.4918,0.5775,0.0,0.0,0.0,0.0,0.0,0.0,0.0,0.0,0.0,0.0,0.0,0.0,0.0,0.0,0.0,0.0,0.0,0.0,0.0,0.0,0.0,0.0,0.0,0.0,0.0,0.0,0.0,0.0,0.0,0.0,0.7988,0.7988,0.7978,0.7951,0.7951,0.7877,0.7777,0.6633,0.542,0.4107,0.2548,0.1185,0.0,0.0,0.0,0.0,0.0,0.0,0.0,0.0,-0.0718,-0.1835,-0.2013,-0.286,-0.3794,-0.2771,-0.2904,-0.3304,0.0,0.0,0.0,0.0,0.0,0.0,0.0,0.0,0.0,0.0,0.5395,0.5337,0.5117,0.4422,0.3876,0.3607,0.2177,0.1226,0.0,0.0,0.0,0.0,0.0,0.0,0.0,0.0,0.0,0.0,0.0,0.0,0.0,0.0,0.0,1.0363,0.0,0.0,0.0,0.0,0.9159,0.9127,0.8333,0.7512,0.6659,0.5752,0.5412,0.5395,0.5395,0.5395,0.5416,0.5549,0.5403,0.0,0.0,0.0,0.0,0.3139,0.3657,0.4474,0.0,0.0,0.0,0.0,0.0,0.0,0.0,0.0,0.0,0.0,0.0,0.0,0.0,0.0,0.0,0.0,0.0,0.0,0.0,0.0,0.0,0.0,0.0,0.0,0.0,0.0,0.0,0.0,0.0,0.0,0.7988,0.7988,0.7928,0.7845,0.7841,0.7773,0.7631,0.7356,0.6584,0.532,0.2947,0.1168,0.0,0.0,0.0,0.0,0.0,0.0,0.0,0.0,-0.0718,-0.1924,-0.2948,-0.4105,-0.5134,-0.5001,-0.4374,-0.3392,0.0,0.0,0.0,0.0,0.0,0.0,0.0,0.0,0.0,0.0,0.0,0.5337,0.5117,0.4314,0.3734,0.3616,0.2077,0.0,0.0,0.0,0.0,0.0,0.0,0.0,0.0,0.0,0.0,0.0,0.0,0.0,0.0,1.031,1.1004,0.0,0.0,0.0,0.0,0.0,0.9083,0.8385,0.8104,0.7217,0.6041,0.5589,0.5498,0.562,0.5453,0.5395,0.5405,0.5474,0.5108,0.4461,0.3635,0.0,0.0,0.0,0.0,0.0,0.4551,0.0,0.0,0.0,0.0,0.0,0.0,0.0,0.0,0.0,0.0,0.0,0.0,0.0,0.0,0.0,0.0,0.0,0.0,0.0,0.0,0.0,0.0,0.0,0.0,0.0,0.0,0.0,0.0,0.7897,0.7985,0.7911,0.7882,0.7814,0.7733,0.7621,0.7472,0.745,0.6409,0.448,0.2649,0.1165,0.0,0.0,0.0,0.0,0.0,0.0,-0.0045,-0.0718,-0.1701,-0.2948,-0.4152,-0.4912,-0.5314,-0.4641,-0.3616,-0.2413,0.0,0.0,0.0,0.0,0.0,0.0,0.0,0.0,0.0,0.0,0.0,0.5337,0.5117,0.0,0.0,0.0,0.1964,0.0,0.0,0.0,0.0,0.0,0.0,0.0,0.0,0.0,0.0,0.0,0.0,0.0,0.7947,1.0009,1.1492,0.0,1.2284,0.0,0.0,0.0,0.0,0.7982,0.8058,0.7123,0.564,0.5638,0.576,0.5878,0.5614,0.5508,0.0,0.0,0.0,0.0,0.0,0.0,0.0,0.0,0.0,0.0,0.0,0.0,0.0,0.0,0.0,0.0,0.0,0.0,0.0,0.0,0.0,0.0,0.0,0.0,0.0,0.0,0.0,0.0,0.0,0.0,0.0,0.0,0.0,0.0,0.0,0.0,0.0,0.0,0.0,0.7824,0.7924,0.7838,0.774,0.7699,0.7597,0.7468,0.7316,0.7312,0.6209,0.4061,0.2815,0.1612,0.0449,0.0135,0.0,0.0,0.0,0.0,-0.009,-0.0986,-0.2236,-0.3703,-0.4596,-0.5134,-0.527,-0.4061,-0.2814,-0.1612,0.0,0.0,0.0,0.0,0.0,0.0,0.0,0.0,0.0,0.0,0.0,0.5337,0.5117,0.4314,0.3459,0.2616,0.1651,0.0,0.0,0.0,0.0,0.0,0.0,0.0,0.0,0.0,0.0,0.0,0.0,0.0,0.7236,1.0127,1.1948,1.2794,1.3044,1.2643,1.1799,0.0,0.0,0.8703,0.8469,0.7328,0.582,0.6143,0.6262,0.6235,0.5888,0.0,0.0,0.0,0.0,0.0,0.0,0.0,0.0,0.0,0.0,0.0,0.0,0.0,0.0,0.0,0.0,0.0,0.0,0.0,0.0,0.0,0.0,0.0,0.0,0.0,0.0,0.0,0.0,0.0,0.0,0.0,0.0,0.0,0.0,0.0,0.0,0.0,0.0,0.0,0.0,0.7675,0.7814,0.7689,0.7543,0.7446,0.7433,0.7309,0.7109,0.7109,0.6523,0.5314,0.4061,0.2858,0.1656,0.0539,0.0,0.0,0.0,0.0,0.0,-0.009,-0.1478,-0.3614,-0.3659,-0.4374,-0.527,-0.4061,-0.2814,-0.1612,0.0,0.0,0.0,0.0,0.0,0.0,0.0,0.0,0.0,0.0,0.0,0.0,0.0,0.3987,0.2968,0.2664,0.127,0.0,0.0,0.0,0.0,0.0,0.0,0.0,0.0,0.0,0.0,0.0,0.0,0.3093,0.573,0.8214,1.0107,1.1447,1.2647,1.2919,1.2422,1.171,0.0,0.8535,0.8639,0.7645,0.6146,0.6255,0.6419,0.6505,0.0,0.0,0.0,0.0,0.0,0.0,0.0,0.1992,0.2012,0.1118,0.107,0.0,0.0,0.0,0.0,0.0,0.0,0.0,0.0,0.0,0.0,0.0,0.0,0.0,0.0,0.0,0.0,0.0,0.0,0.0,0.0,0.0,0.0,0.0,0.0,0.0,0.0,0.0,0.0,0.0,0.0,0.0,0.7712,0.7536,0.7428,0.7419,0.7275,0.7152,0.7095,0.7095,0.6157,0.4239,0.3794,0.2547,0.0628,0.018,0.0,0.0,0.0,0.0,-0.0045,-0.0852,-0.1657,-0.2503,-0.3303,-0.3393,-0.304,-0.2592,-0.17,-0.0584,0.0,0.0,0.0,0.8565,0.0,0.8227,0.6544,0.5789,0.5416,0.5467,0.0,0.0,0.0,0.0,0.3385,0.3107,0.1747,0.0778,0.0456,0.0,0.0,0.0,0.0,0.0,0.0,0.0,0.0,0.0,0.0,0.0,0.0,0.6508,0.8287,0.9737,1.1403,1.234,0.0,0.0,0.0,0.8795,0.0,0.7905,0.6395,0.0,0.6722,0.6817,0.0,0.0,0.0,0.0,0.0,0.0,0.0,0.184,0.1685,0.1033,0.0868,0.0,0.1209,0.0,0.0,0.0,0.0,0.0,0.0,0.0,0.0,0.0,0.0,0.0,0.0,0.0,0.0,0.0,0.0,0.0,0.0,0.0,0.0,0.0,0.0,0.0,0.0,0.0,0.0,0.0,0.0,0.0,0.7605,0.7377,0.7292,0.7292,0.7149,0.7095,0.7095,0.7095,0.6113,0.4194,0.3813,0.2566,0.0577,0.0176,0.0,0.0,0.0,0.0,-0.0045,-0.0852,-0.1433,-0.1879,-0.2681,-0.2503,-0.179,-0.179,-0.1031,0.0,0.7731,0.8672,0.9268,0.9263,0.8995,0.8483,0.7464,0.6238,0.5494,0.5576,0.0,0.0,0.0,0.0,0.0,0.3855,0.3107,0.2308,0.1415,0.1322,0.0,0.0,0.0,0.0,0.0,0.0,0.0,0.0,0.0,0.0,0.0,0.0,0.6736,0.7847,0.9376,1.087,1.2228,0.0,1.1149,0.9458,0.0,0.8172,0.659,0.0,0.0,0.0,0.6943,0.6837,0.0,0.6369,0.0,0.0,0.0,0.1673,0.0,0.0,0.0,0.0,0.0,0.0,0.0,0.0,0.0,0.0,0.0,0.0,0.0,0.0,0.0,0.0,0.0,0.0,0.0,0.0,0.0,0.0,0.0,0.0,0.0,0.0,0.0,0.0,0.0,0.0,0.0,0.0,0.0,0.8528,0.7493,0.7217,0.7092,0.7095,0.7088,0.7085,0.7088,0.7085,0.6505,0.5304,0.415,0.2943,0.1687,0.0552,0.0,0.0,0.0,0.0,0.0,0.0,-0.0672,-0.1744,-0.1743,-0.1743,-0.1743,-0.1743,-0.0985,0.0,0.672,0.7649,0.8316,0.8221,0.8652,0.8645,0.7597,0.707,0.6526,0.0,0.0,0.0,0.5596,0.4815,0.3993,0.3202,0.2863,0.2604,0.2338,0.1665,0.12,0.0957,0.0091,-0.0577,0.0,0.0,0.0,0.0,0.0,0.0,0.0,0.0,0.0,0.0,0.864,0.9525,1.042,1.042,0.0,0.0,0.8482,0.7625,0.0,0.0,0.0,0.0,0.0,0.6947,0.6707,0.0,0.5698,0.5473,0.0,0.0,0.0,0.0,0.0,0.0,0.0281,0.0,0.0,0.0,0.0,0.0,0.0,0.0,0.0,0.0,0.0,0.0,0.0,0.0,0.0,0.0,0.0,0.0,0.0,0.0,0.0,0.0,0.0,0.0,0.0,0.0,0.0,0.0,1.0912,0.9646,0.8524,0.7498,0.6991,0.7092,0.6932,0.6875,0.6943,0.6878,0.5839,0.3881,0.3562,0.237,0.0467,0.0169,0.0,0.0,0.0,0.0,0.0,0.0,-0.0216,-0.0482,-0.0517,-0.0514,-0.0514,-0.0514,-0.0303,0.0,0.6317,0.7173,0.8043,0.8517,0.8496,0.8434,0.8416,0.7432,0.6522,0.0,0.0,0.0,0.5688,0.5136,0.4542,0.4061,0.389,0.3629,0.3202,0.266,0.201,0.1239,0.0743,0.0121,-0.063,0.0,0.0,0.0,0.0,0.0,0.0,0.0,0.0,0.0,0.7404,0.8028,0.8765,0.8404,0.0,0.0,0.8108,0.0,0.0,0.7041,0.7126,0.0,0.0,0.0,0.6917,0.6306,0.5984,0.0,0.0,0.1931,0.0589,0.0121,0.0248,0.0,0.0,0.0,0.0,0.0,0.0,0.0,0.0,0.0,0.0,0.0,0.0,0.0,0.0,0.0,0.0,0.0,0.0,0.0,0.0,0.0,0.0,0.0,0.0,0.0,0.0,0.0,0.0,1.2675,1.1332,0.9842,0.8135,0.7254,0.6871,0.691,0.679,0.6742,0.6831,0.6746,0.5565,0.335,0.3361,0.215,0.0,0.0,0.0,0.0,0.0,0.0,0.0,0.0,0.0,0.0,0.0,0.0,0.0,0.0,0.0,0.0,0.0,0.7022,0.8069,0.9467,0.8613,0.82,0.9516,0.7731,0.6293,0.0,0.6054,0.5874,0.5874,0.583,0.5755,0.5647,0.5501,0.4993,0.4069,0.3863,0.3088,0.1473,0.1217,0.0804,0.0123,0.0031,0.0,0.0,0.0,0.0,0.0,0.0,0.0,0.0,0.5961,0.6497,0.727,0.6476,0.0,0.7331,0.7762,0.7461,0.0,0.0,0.7248,0.0,0.7295,0.7258,0.7095,0.7078,0.6206,0.0,0.0,0.2495,0.154,0.035,0.0714,0.0,0.0262,0.0664,0.0,0.0,0.0,0.0,0.0,0.0,0.0,0.0,0.0,0.0,0.0,0.0,0.0,0.0,0.0,0.0,0.0,0.0,0.0,0.0,0.0,0.0,0.0,1.4108,1.3659,1.2631,1.1327,0.9561,0.7257,0.6835,0.6709,0.6725,0.6695,0.6675,0.6675,0.6661,0.5567,0.3366,0.338,0.218,0.0,0.0,0.0,0.0,0.0,0.0,0.0,0.0,0.0,0.0,0.0,0.0,0.0,0.0,0.0,0.0,0.63,0.6451,0.7266,0.935,0.9471,0.9384,0.9797,0.9448,0.8489,0.6848,0.6454,0.6381,0.6381,0.6017,0.584,0.5899,0.5586,0.5356,0.5248,0.4351,0.3638,0.3292,0.1867,0.1031,0.089,0.0304,0.0,0.0,0.0,0.0,0.0,0.0,0.0,0.0,0.5174,0.5414,0.612,0.5841,0.0,0.6004,0.6182,0.0,0.6852,0.6983,0.7024,0.7098,0.7129,0.7122,0.7078,0.0,0.6213,0.5119,0.0,0.0,0.0,0.0587,0.0,0.2354,0.0484,0.0739,0.1285,0.0247,0.0,0.0,0.0,0.0,0.0,0.0,0.0,0.0,0.0,0.0,0.0,0.0,0.0,0.0,0.0,0.0,0.0,0.0,0.0,0.0,0.0,1.4222,1.4097,1.4056,1.1827,0.9894,0.857,0.7348,0.6756,0.6836,0.6647,0.6555,0.6555,0.6443,0.5308,0.3168,0.3153,0.2047,0.0,0.0,0.0,0.0,0.0,0.0,0.0,0.0,0.0,0.0,0.0,0.0,0.0,0.0,0.0,0.0,0.63,0.63,0.7064,0.9533,0.9384,0.9453,1.0864,0.9998,0.88,0.7833,0.7114,0.6644,0.6528,0.6271,0.6105,0.5996,0.5752,0.5586,0.5515,0.4935,0.4344,0.3729,0.2484,0.1566,0.1112,0.0367,0.0,0.0,0.0,0.0,0.0,0.0,0.0,0.0,0.5456,0.5864,0.6717,0.0,0.6036,0.6241,0.6255,0.0,0.6831,0.6933,0.7034,0.7095,0.7095,0.7095,0.7075,0.6933,0.6525,0.0,0.0,0.4144,0.377,0.0,0.2747,0.3457,0.0,0.0,0.1885,0.0394,0.0,0.0,0.0,0.0,0.0,0.0,0.0,0.0,0.0,0.0,0.0,0.0,0.0,0.0,0.0,0.0,0.0,0.0,0.0,0.0,0.0,1.3284,1.3259,1.3397,1.153,0.9949,0.8871,0.7409,0.662,0.6698,0.6525,0.6405,0.6405,0.6334,0.5237,0.3085,0.3085,0.1994,0.0,0.0,0.0,0.0,0.0,0.0,0.0,0.0,0.0,0.0,0.0,0.0,0.0,0.0,0.0,0.0,0.6331,0.6451,0.727,0.9426,0.9303,0.956,1.164,1.0148,0.8674,0.8378,0.7543,0.6875,0.6627,0.0,0.0,0.0,0.0,0.58,0.0,0.0,0.5013,0.4025,0.3196,0.2335,0.1415,0.0651,0.0157,0.0,0.0,0.0,0.0,0.0,0.0,0.0,0.0,0.0,0.0,0.0,0.0,0.7014,0.0,0.6624,0.6607,0.6889,0.7011,0.7018,0.7075,0.7095,0.7075,0.6933,0.0,0.6542,0.5424,0.5151,0.0,0.0,0.0,0.0,0.0,0.0,0.0,0.0,0.0,0.0284,0.0,0.0,0.0,0.0,0.0,0.0,0.0,0.0,0.0,0.0,0.0,0.0,0.0,0.0,0.0,0.0,0.0,0.0,0.0,1.1876,1.2128,1.2181,1.1189,1.0083,0.901,0.7616,0.6739,0.6511,0.6402,0.6327,0.63,0.63,0.5315,0.3396,0.3202,0.2111,0.0314,0.0079,0.0,0.0,0.0,0.0,0.0,0.0,0.0,0.0,0.0,0.0,0.0,0.0,0.0,0.0,0.6423,0.7022,0.7807,0.8326,1.0006,1.1151,1.0684,1.035,0.9457,0.7389,0.0,0.0,0.0,0.0,0.0,0.0,0.0,0.0,0.6378,0.0,0.5508,0.5386,0.4273,0.3306,0.2521,0.1612,0.0782,0.0,0.0,0.0,0.0,0.0,0.3949,0.49,0.6093,0.0,0.0,0.0,0.7177,0.0,0.6784,0.6342,0.0,0.6586,0.6749,0.6783,0.7004,0.7095,0.7075,0.0,0.6873,0.6639,0.0,0.5665,0.0,0.0,0.0,0.0,0.0,0.0,0.0,0.0,0.1993,0.0,0.0,0.0,0.0,0.0,0.0,0.0,0.0,0.0,0.0,0.0,0.0,0.0,0.0,0.0,0.0,0.0,0.0,0.0,0.0,0.0,1.1457,1.1733,1.1344,1.0734,0.9806,0.8756,0.7651,0.6518,0.6497,0.6426,0.6303,0.63,0.5709,0.4491,0.3552,0.2501,0.1372,0.0432,0.0,0.0,0.0,0.0,0.0,0.0,0.0,0.0,0.0,0.0,0.0,0.0,0.0,0.0,0.6475,0.7099,0.7876,0.8142,0.9982,1.1362,1.1161,1.0726,0.9622,0.0,0.0,0.0,0.0,0.0,0.0,0.0,0.0,0.6685,0.0,0.0,0.0,0.5603,0.459,0.3815,0.3339,0.201,0.1094,0.0652,0.1019,0.0,0.0,0.0,0.4208,0.5178,0.6817,0.0,0.8243,0.0,0.0,0.0,0.0,0.0,0.0,0.6643,0.6913,0.6927,0.7051,0.7095,0.7075,0.0,0.6868,0.0,0.0,0.0,0.0,0.0,0.0,0.0,0.0,0.0,0.0,0.0,0.0,0.0,0.0697,0.0,0.0,0.0,0.0,0.0,0.0,0.0,0.0,0.0,0.0,0.0,0.0,0.0,0.0,0.0,0.0,0.0,0.0,0.0,0.0,0.0,0.0,1.019,0.9928,0.8819,0.7648,0.6555,0.6433,0.6361,0.63,0.63,0.5747,0.4686,0.3632,0.2579,0.1568,0.0471,0.0,0.0,0.0,0.0,0.0,0.0,0.0,0.0,0.0,0.0,0.0,0.0,0.0,0.0,0.6899,0.0,0.8166,0.8112,0.9818,1.1228,1.1266,1.0593,0.9407,0.0,0.0,0.0,0.7489,0.7356,0.0,0.0,0.7267,0.7112,0.0,0.0,0.6342,0.5911,0.5098,0.0,0.0,0.2523,0.1536,0.1159,0.148,0.0,0.0,0.0,0.0,0.5344,0.0,0.8201,0.8802,0.0,0.0,0.8639,0.7983,0.7099,0.623,0.6761,0.7024,0.7095,0.7095,0.7095,0.7075,0.6933,0.6854,0.0,0.6844,0.0,0.0,0.0,0.0,0.0,0.5388,0.0,0.0,0.0,0.0,0.0,0.0,0.0,0.0,0.0,0.0,0.0,0.0,0.0,0.0,0.0,0.0,0.0,0.0,0.0,0.0,0.0,0.0,0.0,0.0,0.0,0.0,0.0,0.0,0.0,0.9314,0.8528,0.7553,0.6493,0.6354,0.63,0.63,0.63,0.5906,0.5118,0.4062,0.3164,0.2426,0.1332,0.0706,0.0432,0.0432,0.0275,0.0,0.0,0.0,0.0,0.0,0.0,0.0,0.0,0.0,0.0,0.7893,0.858,0.0,0.0,0.9676,1.0965,1.0331,0.9602,0.8701,0.0,0.0,0.0,0.0,0.0,0.0,0.0,0.0,0.7516,0.7398,0.0,0.6685,0.6664,0.6064,0.5421,0.0,0.3486,0.234,0.1288,0.2089,0.2473,0.0,0.0,0.0,0.0,0.0,0.722,0.7464,0.8904,0.9089,0.8426,0.8366,0.7842,0.7024,0.0,0.6892,0.7095,0.7095,0.0,0.0,0.6933,0.6883,0.0,0.0,0.0,0.0,0.0,0.0,0.0,0.0,0.0,0.0,0.5772,0.0,0.0,0.0,0.0,0.0,0.0,0.0,0.0,0.0,0.0,0.0,0.0,0.0,0.0,0.0,0.0,0.0,0.0,0.0,0.0,0.0,0.0,0.0,0.0,0.0,0.0,0.7902,0.8082,0.7623,0.6349,0.6303,0.63,0.63,0.63,0.63,0.6219,0.5157,0.4649,0.4569,0.3476,0.2462,0.1568,0.1568,0.0941,0.0,0.0,0.0,0.0,0.0,0.0,0.0,0.0,0.0,0.0,0.0,0.0,0.0,0.0,0.0,1.1512,1.0243,0.9377,0.0,0.0,0.0,0.0,0.0,0.0,0.7821,0.0,0.0,0.7787,0.7539,0.7285,0.0,0.0,0.0,0.6038,0.0,0.0,0.3767,0.3103,0.3434,0.3531,0.0,0.0,0.0,0.0,0.0,0.7397,0.0,0.0,0.0,0.0,0.0,0.7211,0.7085,0.0,0.0,0.7095,0.7095,0.7095,0.0,0.7041,0.6896,0.6787,0.6834,0.6647,0.6457,0.6501,0.6446,0.0,0.0,0.0,0.6095,0.5287,0.0,0.0,0.0,0.0,0.0,0.0,0.0,0.0,0.0,0.0,0.0,0.0,0.0,0.0,0.0,0.0,0.0,0.0,0.0,0.0,0.0,0.0,0.0,0.0,0.0,0.0,0.0,0.788,0.7425,0.6338,0.63,0.63,0.63,0.63,0.63,0.63,0.5198,0.4688,0.4647,0.3593,0.254,0.1607,0.1607,0.098,0.0,0.0,0.0,0.0,0.0,0.0,0.0,0.0,0.0,0.0,1.0403,0.0,0.0,0.0,0.0,0.0,0.0,0.0,0.0,0.0,0.7814,0.0,0.7968,0.0,0.7884,0.0,0.7988,0.7867,0.7617,0.7506,0.0,0.7099,0.6797,0.0,0.0,0.0,0.4576,0.4167,0.4199,0.4087,0.0,0.0,0.0,0.0,0.0,0.0,0.0,0.0,0.9707,0.0,0.0,0.6927,0.0,0.0,0.7095,0.7095,0.0,0.7095,0.7088,0.7038,0.6896,0.679,0.6834,0.6614,0.6395,0.6484,0.6412,0.63,0.63,0.63,0.0,0.5344,0.487,0.0,0.3628,0.0,0.0,0.0,0.0,0.0,0.0,0.0,0.0,0.0,0.0,0.0,0.0,0.0,0.0,0.0,0.0,0.0,0.0,0.0,0.0906,0.4804,0.0,0.0,0.0,0.0,0.6788,0.5747,0.5747,0.555,0.5157,0.555,0.5747,0.5709,0.5434,0.5276,0.5237,0.4569,0.3673,0.2699,0.2309,0.1528,0.0549,0.0157,0.0,0.0,0.0,0.0,0.0,0.0,0.0,0.0,0.0,0.0,0.0,0.0,1.0508,0.0,0.0,0.0,0.7848,0.0,0.7982,0.7982,0.7988,0.7988,0.7988,0.7988,0.7988,0.0,0.7641,0.7614,0.0,0.0,0.7115,0.6913,0.6896,0.0,0.0,0.0,0.4388,0.4204,0.0,0.0,0.0,0.0,0.5447,0.0,0.5992,0.8857,0.8876,0.6982,0.7082,0.7095,0.7095,0.7095,0.7095,0.7095,0.7095,0.7092,0.7065,0.693,0.6876,0.6839,0.6736,0.6583,0.6501,0.6501,0.6405,0.63,0.63,0.63,0.6265,0.6078,0.0,0.0,0.0,0.0,0.3246,0.0,0.0,0.0,0.0,0.0,0.0,0.0,0.0,0.0,0.0,0.0,0.0,0.0,0.0,0.0,0.0,0.0,-0.0287,0.2863,0.3913,0.0,0.0,0.0,0.5825,0.4727,0.4688,0.4178,0.3124,0.41,0.4647,0.4727,0.5747,0.6261,0.63,0.63,0.5709,0.4647,0.3552,0.2542,0.1528,0.0432,0.0,0.0,0.0,0.0,0.0,0.0,0.0,0.0,1.2932,1.3477,1.3109,0.0,1.0364,1.0233,0.0,0.0,0.0,0.0,0.7891,0.7913,0.7978,0.7988,0.7988,0.7988,0.7988,0.0,0.0,0.0,0.0,0.7699,0.7522,0.7319,0.7048,0.661,0.0,0.5633,0.0,0.0,0.5054,0.0,0.0,0.0,0.0,0.0,0.606,0.7812,0.8426,0.816,0.7428,0.7095,0.0,0.0,0.7095,0.7095,0.7095,0.7028,0.6933,0.69,0.6776,0.6583,0.6542,0.647,0.6354,0.6354,0.6327,0.63,0.63,0.63,0.6289,0.6248,0.596,0.5641,0.0,0.0,0.0,0.0,0.0,0.0,0.0,0.0,0.0,0.0,0.0,0.0,0.0,0.0,0.0,0.0,0.0,0.0,0.0,-0.2052,-0.0289,0.2846,0.3313,0.0,0.0,0.0,0.0,0.4727,0.4688,0.4178,0.3124,0.3357,0.3904,0.4688,0.496,0.5512,0.63,0.63,0.5709,0.4647,0.3552,0.2542,0.1528,0.0432,0.0,0.0,0.0,0.0,0.0,0.0,0.0,0.0,1.3875,0.0,0.0,1.202,0.0,0.0,0.977,0.0,0.0,0.7906,0.7865,0.0,0.788,0.7948,0.7988,0.7988,0.7988,0.0,0.0,0.0,0.0,0.7814,0.7736,0.758,0.7301,0.7088,0.0,0.6132,0.0,0.0,0.5392,0.0,0.0,0.0,0.0,0.5637,0.0,0.6991,0.7923,0.8624,0.7512,0.0,0.0,0.7095,0.7058,0.7004,0.7004,0.6953,0.6866,0.6773,0.6614,0.6501,0.6439,0.6364,0.63,0.63,0.63,0.63,0.63,0.63,0.63,0.63,0.6235,0.6132,0.6132,0.6132,0.5977,0.0,0.0,0.0,0.0,0.0,0.0,0.0,0.0,0.0,0.0,0.0,0.0,0.0,0.0,0.0,0.0,-0.1724,-0.0212,0.279,0.3055,0.0,0.0,0.0,0.0,0.4062,0.3982,0.3281,0.176,0.2228,0.2969,0.4021,0.4491,0.5273,0.63,0.63,0.5983,0.5354,0.4256,0.3476,0.2854,0.18,0.137,0.137,0.137,0.137,0.137,0.137,0.0784,0.0,0.0,0.0,0.0,0.0,0.0,0.0,0.0,0.7921,0.0,0.7838,0.0,0.7841,0.7841,0.7911,0.7988,0.7988,0.0,0.7934,0.7848,0.7917,0.7931,0.7845,0.7841,0.7767,0.7604,0.7316,0.0,0.0,0.0,0.0,0.0,0.0,0.0,0.0,0.0,0.0,0.0,0.6403,0.7356,0.0,0.744,0.7082,0.7095,0.7075,0.6994,0.6879,0.6839,0.6868,0.6827,0.6563,0.6501,0.6463,0.6337,0.63,0.63,0.63,0.63,0.63,0.63,0.63,0.63,0.63,0.63,0.63,0.63,0.63,0.63,0.63,0.555,0.4882,0.0,0.0,0.0,0.0,0.0,0.0,0.0,0.0,0.0,0.0,0.0,0.0,0.0,-0.1221,0.0,0.2713,0.0,0.0,0.0,0.0,0.0,0.3341,0.3157,0.0,0.0236,0.0,0.1957,0.3124,0.4059,0.5118,0.63,0.63,0.63,0.6257,0.5157,0.4688,0.4608,0.3552,0.3085,0.3085,0.3085,0.3085,0.3085,0.3085,0.1955,0.0392,0.0,0.0,0.0,0.0,0.0,1.0104,0.9702,0.8564,0.7858,0.7934,0.7948,0.7948,0.7948,0.7975,0.7988,0.7988,0.7988,0.0,0.0,0.0,0.0,0.7951,0.7948,0.7875,0.7604,0.7424,0.7023,0.0,0.6105,0.58,0.0,0.0,0.0,0.0,0.0,0.0,0.5823,0.6221,0.0,0.7041,0.6945,0.6994,0.7085,0.6967,0.6906,0.6852,0.6644,0.6552,0.6546,0.6528,0.6433,0.6334,0.6306,0.63,0.63,0.63,0.63,0.63,0.63,0.63,0.63,0.63,0.63,0.63,0.63,0.63,0.63,0.63,0.6141,0.5747,0.4844,0.0,0.0,0.0,0.0,0.0,0.0,0.0,0.0,0.0,0.0,0.0,0.0,0.0,0.07,0.0,0.0,0.0,0.0,0.0,0.0,0.0,0.3515,0.0,0.0,0.0,0.1214,0.3085,0.3279,0.4414,0.63,0.63,0.63,0.6257,0.5157,0.4688,0.4608,0.3552,0.3085,0.3085,0.3085,0.3085,0.3085,0.3085,0.2851,0.2539,0.0,0.0,0.0,0.0,0.0,0.0,0.0,0.8364,0.0,0.7874,0.7874,0.7874,0.7874,0.7941,0.7988,0.7988,0.7988,0.7988,0.7988,0.7988,0.7988,0.7988,0.7988,0.0,0.7712,0.7563,0.716,0.6488,0.6261,0.5918,0.0,0.0,0.0,0.0,0.0,0.5667,0.0,0.0,0.0,0.6719,0.6903,0.7034,0.7082,0.694,0.6836,0.678,0.6552,0.6463,0.6402,0.6402,0.6358,0.63,0.63,0.63,0.63,0.63,0.63,0.63,0.63,0.6679,0.7061,0.7061,0.748,0.7706,0.7215,0.6988,0.6802,0.6398,0.6235,0.5854,0.4872,0.387,0.0,0.0,0.0,0.0,0.0,0.0,0.0,0.0,0.0,0.0,0.0,0.0,0.0,0.0,0.0,0.0,0.0,0.0,0.0,0.0,0.0,0.0,0.0,0.0,0.0,0.3085,0.3085,0.4217,0.63,0.63,0.63,0.6261,0.5747,0.5512,0.5473,0.496,0.4766,0.4766,0.4766,0.4766,0.4766,0.4766,0.4766,0.4608,0.0,1.5588,0.0,0.0,1.1848,0.0,0.8726,0.8184,0.7944,0.7875,0.7862,0.7862,0.7862,0.7917,0.7988,0.7988,0.7988,0.7988,0.7988,0.7988,0.7988,0.7988,0.7988,0.7917,0.7814,0.7672,0.7322,0.0,0.0,0.0,0.0,0.0,0.5487,0.5498,0.0,0.0,0.0,0.0,0.6614,0.6722,0.691,0.7021,0.7038,0.6893,0.6783,0.663,0.6521,0.6395,0.63,0.63,0.63,0.63,0.63,0.63,0.6338,0.6567,0.6602,0.6679,0.6872,0.7518,0.8122,0.8122,0.8732,0.9059,0.8217,0.775,0.7315,0.6638,0.6291,0.5771,0.4866,0.4688,0.0,0.0,0.0,0.0,0.0,0.0,0.0,0.0,0.0,0.0,0.0,0.0,0.0,0.0,0.0,0.0,0.0,0.0,0.0,0.0,0.0,0.1981,0.0623,0.0,0.1253,0.0,0.3318,0.4453,0.63,0.63,0.63,0.63,0.63,0.63,0.63,0.63,0.63,0.63,0.63,0.63,0.63,0.63,0.63,0.6064,0.0,0.0,0.0,0.0,0.0,0.0,0.0,0.8775,0.7985,0.7971,0.7968,0.7968,0.7968,0.7982,0.7988,0.7988,0.7988,0.7988,0.7988,0.7988,0.7988,0.7988,0.7988,0.7917,0.7814,0.7672,0.7373,0.0,0.0,0.0,0.0,0.0,0.5762,0.5762,0.0,0.0,0.0,0.603,0.6329,0.6702,0.6729,0.6824,0.6889,0.678,0.6627,0.6515,0.6371,0.631,0.63,0.63,0.63,0.63,0.63,0.63,0.649,0.7403,0.7668,0.7859,0.8765,0.9074,0.9145,0.9145,0.9221,0.9203,0.8803,0.8084,0.7462,0.7253,0.6711,0.5967,0.488,0.4688,0.4331,0.0,0.0,0.0,0.0,0.0,0.0,0.0,0.0,0.0,0.0,0.0,0.0,0.0,0.0,0.0,0.0,0.0,0.0,0.5496,0.0,0.2003,0.2613,0.1859,0.0,0.3124,0.41,0.5157,0.63,0.63,0.63,0.63,0.63,0.63,0.63,0.63,0.63,0.63,0.63,0.63,0.63,0.63,0.63,0.6261,0.0,0.0,0.0,0.0,0.0,0.0,0.0,0.8333,0.7988,0.7988,0.7988,0.7988,0.7988,0.7988,0.7988,0.7988,0.7988,0.7988,0.7988,0.7988,0.7988,0.7988,0.7988,0.7961,0.7901,0.7719,0.7465,0.0,0.0,0.0,0.0,0.0,0.0,0.0,0.0,0.6237,0.6308,0.6491,0.662,0.6709,0.68,0.682,0.6773,0.662,0.6566,0.6494,0.6351,0.63,0.63,0.63,0.63,0.63,0.63,0.63,0.649,0.7518,0.7783,0.8008,0.9031,0.9744,1.019,1.019,1.0645,1.092,1.0168,0.9523,0.876,0.7649,0.6659,0.5872,0.5455,0.5343,0.503,0.0,0.0,0.0,0.0,0.0,0.0,0.0,0.0,0.0,0.0,0.0,0.0,0.0,0.0,0.3242,0.4264,0.0,0.0,0.471,0.0,0.2566,0.2905,0.2627,0.3008,0.4062,0.4491,0.5273,0.63,0.63,0.63,0.63,0.63,0.63,0.63,0.63,0.63,0.63,0.63,0.63,0.63,0.63,0.63,0.63,1.5784,0.0,1.5099,0.0,1.2474,1.1745,0.9509,0.9167,0.9167,0.9167,0.9167,0.8871,0.8088,0.7988,0.7988,0.7988,0.7988,0.7988,0.7988,0.7988,0.7988,0.7988,0.7988,0.0,0.7988,0.775,0.7567,0.7502,0.6898,0.0,0.0,0.6318,0.0,0.0,0.6849,0.7057,0.7108,0.7636,0.7655,0.7313,0.7388,0.7155,0.6756,0.6647,0.6552,0.6501,0.6399,0.6361,0.6361,0.6361,0.6392,0.6416,0.6327,0.6327,0.6546,0.7531,0.8047,0.8496,0.9463,1.049,1.1236,1.1236,1.171,1.1989,1.1273,1.0539,0.9477,0.7695,0.6701,0.6122,0.5835,0.58,0.5594,0.5024,0.0,0.0,0.0,0.0,0.0,0.0,0.0,0.2555,0.0,0.0,0.0,0.0,0.0,0.3545,0.4294,0.0,0.0,0.0,0.0,0.0,0.0,0.3511,0.3943,0.4688,0.5002,0.555,0.63,0.63,0.63,0.63,0.63,0.63,0.63,0.63,0.63,0.63,0.63,0.63,0.63,0.63,0.63,0.63,1.5784,1.5784,1.5391,1.4118,1.3878,1.344,1.2042,1.1848,1.1848,1.1848,1.1848,1.0872,0.8283,0.7988,0.7988,0.7988,0.7988,0.7988,0.7988,0.7988,0.7988,0.0,0.0,0.7988,0.7988,0.775,0.7665,0.7804,0.0,0.0,0.7078,0.6827,0.6695,0.6736,0.7869,0.8397,0.8438,0.9669,0.9591,0.8687,0.8692,0.7978,0.6883,0.6879,0.6736,0.6511,0.6511,0.6511,0.6511,0.6511,0.6569,0.6644,0.6392,0.6399,0.6679,0.7529,0.8599,0.9676,1.0547,1.1502,1.2261,1.2261,1.2084,1.1913,1.1877,1.0757,0.9181,0.7282,0.6989,0.6829,0.5943,0.58,0.585,0.5966,0.0,0.0,0.0,0.0,0.0,0.0,0.0,0.482,0.5656,0.0,0.0,0.0,0.0,0.0,0.467,0.0,0.0,0.5946,0.4108,0.0,0.4477,0.463,0.4686,0.4727,0.5786,0.63,0.63,0.63,0.63,0.63,0.63,0.63,0.63,0.63,0.63,0.63,0.63,0.63,0.63,0.63,0.63,0.63,1.5784,1.5784,1.5391,1.4118,1.3926,1.3445,1.2091,1.1896,1.1896,1.1896,1.1896,1.1556,1.0725,0.9899,0.9019,0.0,0.7988,0.7988,0.0,0.7988,0.7988,0.7988,0.7988,0.7988,0.7988,0.7845,0.7719,0.7665,0.0,0.0,0.0,0.6859,0.6866,0.7043,0.8197,0.8751,0.8837,0.9979,1.0226,0.9774,0.9025,0.8405,0.784,0.7063,0.6712,0.6627,0.6627,0.6627,0.6627,0.6627,0.6661,0.6685,0.659,0.659,0.6822,0.7773,0.8731,0.9712,1.0687,1.1615,1.2305,1.2305,1.2231,1.2111,1.1953,1.0751,0.9516,0.8935,0.784,0.6925,0.6836,0.6262,0.585,0.5969,0.5725,0.0,0.0,0.0,0.0,0.0,0.0,0.473,0.0,0.4402,0.0,0.0,0.0,0.0,0.0,0.0,0.0,0.0,0.4405,0.0,0.5501,0.5717,0.5786,0.5786,0.6141,0.63,0.63,0.63,0.63,0.63,0.63,0.63,0.63,0.63,0.63,0.63,0.63,0.63,0.63,0.63,0.63,0.63,1.5784,1.5784,1.554,1.4752,1.4609,1.4316,1.3499,1.3355,1.3355,1.3355,1.3355,1.3156,1.2716,1.1507,0.0,0.8871,0.8283,0.7988,0.7988,0.7988,0.7988,0.7988,0.7988,0.7988,0.7988,0.0,0.0,0.7763,0.7461,0.7162,0.6964,0.6964,0.7011,0.7183,0.8798,0.9536,0.9623,1.1219,1.1603,1.1032,1.0356,0.9728,0.9155,0.8451,0.812,0.8101,0.8101,0.8101,0.8101,0.8101,0.8104,0.8161,0.8161,0.8161,0.8094,0.7759,0.8563,0.9721,1.0261,1.133,1.2305,1.2305,1.2218,1.2064,1.177,1.1088,1.0393,0.995,0.8929,0.794,0.7398,0.6789,0.6277,0.604,0.5993,0.6084,0.6279,0.0,0.0,0.0,0.0,0.0,0.0,0.513,0.0,0.0,0.0,0.0,0.0,0.0,0.0,0.5007,0.5196,0.0,0.6115,0.6252,0.63,0.63,0.63,0.63,0.63,0.63,0.63,0.63,0.63,0.63,0.63,0.63,0.63,0.63,0.63,0.63,0.63,0.63,0.63,0.63,1.5784,1.5784,0.0,0.0,1.5784,0.0,1.5784,1.5784,1.5784,1.5784,1.5784,1.5343,1.4166,1.2861,1.1556,1.0386,0.0,0.0,0.0,0.7988,0.7988,0.7988,0.7988,0.7988,0.7988,0.7899,0.7885,0.7961,0.7723,0.7431,0.7095,0.7105,0.7105,0.7183,0.9483,1.0524,1.074,1.2997,1.3379,1.2413,1.2242,1.1595,1.0697,1.0524,1.0436,1.0423,1.0423,1.0423,1.0423,1.0423,1.0519,1.0611,1.0611,1.0611,1.01,0.7682,0.8357,0.9802,0.9696,1.0974,1.2325,1.2305,1.2084,1.1832,1.1516,1.1657,1.1552,1.0457,1.0165,0.9567,0.7779,0.7392,0.7057,0.6169,0.601,0.6095,0.6279,0.0,0.0,0.0,0.0,0.0,0.0,0.601,0.6105,0.0,0.0,0.0,0.0,0.0,0.6074,0.6177,0.6261,0.63,0.63,0.63,0.63,0.63,0.63,0.63,0.63,0.63,0.63,0.63,0.63,0.63,0.63,0.63,0.6306,0.6313,0.6313,0.6313,0.6313,0.6313,0.631,0.63,0.0,0.0,1.5784,1.5784,1.5784,1.5784,1.5784,1.5784,1.5784,1.5784,1.5784,1.5683,1.5391,1.422,1.3295,1.3,0.994,0.7988,0.7988,0.7988,0.7988,0.7988,0.7988,0.7988,0.7988,0.7955,0.7843,0.7702,0.7516,0.7329,0.7098,0.7261,0.7255,0.7183,0.8623,0.9792,1.0697,1.2114,1.3069,1.3512,1.1735,1.1338,1.1724,0.9966,0.9803,1.053,1.053,1.053,1.053,1.053,1.0565,1.0611,1.0611,1.0611,1.0461,0.9843,1.0501,1.1349,1.1095,1.1834,1.2623,1.2358,1.2084,1.1886,1.1819,1.1643,1.15,1.1484,1.0859,1.0018,0.903,0.8206,0.7362,0.6391,0.6245,0.6255,0.6293,0.63,0.0,0.0,0.6245,0.6245,0.6245,0.6245,0.6259,0.0,0.0,0.0,0.0,0.6108,0.587,0.5118,0.5867,0.63,0.63,0.63,0.63,0.63,0.63,0.63,0.63,0.63,0.63,0.63,0.63,0.63,0.63,0.63,0.6364,0.6463,0.6463,0.6463,0.6463,0.6463,0.6395,0.63,1.5784,1.5784,1.5784,1.5784,1.5784,1.5784,1.5784,1.5784,1.5784,1.5784,1.5784,1.5784,1.5784,1.4657,1.3926,1.3926,1.0818,0.892,0.892,0.8333,0.7988,0.7988,0.7988,0.7988,0.7988,0.7988,0.7877,0.7695,0.7611,0.7461,0.7248,0.7333,0.7288,0.7139,0.8364,0.9536,1.0654,1.1809,1.2984,1.3997,1.2693,1.2248,1.2242,1.1526,1.1305,1.1472,1.1992,1.2217,1.2217,1.2217,1.2217,1.2217,1.2217,1.2217,1.2217,1.2217,1.2073,1.1875,1.1735,1.2228,1.2717,1.2378,1.2184,1.2064,1.2064,1.1944,1.187,1.2037,1.1653,1.0998,1.013,0.9183,0.8161,0.7138,0.6606,0.63,0.63,0.63,0.0,0.63,0.63,0.63,0.63,0.63,0.63,0.63,0.0,0.0,0.63,0.63,0.6025,0.5431,0.5983,0.63,0.63,0.63,0.63,0.63,0.63,0.63,0.63,0.63,0.63,0.63,0.63,0.63,0.63,0.63,0.6344,0.6422,0.6487,0.6474,0.6422,0.6487,0.6422,0.63,1.5784,1.5784,1.5784,1.5784,1.5784,1.5784,1.5784,1.5784,1.5784,1.5784,1.5784,1.5784,1.5784,1.4848,1.4166,1.4166,1.1984,1.0435,1.0047,0.8726,0.7988,0.7988,0.7988,0.7988,0.7988,0.7968,0.7989,0.8097,0.7907,0.7672,0.7453,0.7453,0.7322,0.7173,0.8201,0.9362,1.0654,1.1638,1.2875,1.4148,1.3926,1.3362,1.2735,1.3576,1.3332,1.2729,1.3783,1.4122,1.4088,1.4088,1.4088,1.4088,1.4088,1.4088,1.4088,1.4088,1.3213,1.2206,1.217,1.2498,1.2784,1.2445,1.2371,1.2358,1.2311,1.2305,1.2305,1.2305,1.2305,1.1996,1.0975,1.0115,0.9145,0.7974,0.7099,0.649,0.6338,0.0,0.63,0.63,0.63,0.63,0.63,0.63,0.63,0.63,0.63,0.63,0.0,0.63,0.63,0.63,0.63,0.63,0.63,0.63,0.63,0.63,0.63,0.63,0.63,0.63,0.63,0.63,0.63,0.63,0.63,0.63,0.6327,0.6378,0.6501,0.6487,0.6416,0.6538,0.6474,0.633,1.5784,1.5784,1.5784,1.5784,1.5784,1.5784,1.5784,1.5784,1.5784,1.5784,1.5784,1.5784,1.5784,1.5635,1.5486,1.5486,1.4172,1.2377,1.0145,0.8726,0.7988,0.7988,0.7988,0.7988,0.7988,0.7913,0.836,0.9479,0.8334,0.7726,0.7563,0.7563,0.7482,0.7374,0.7375,0.8575,1.0611,1.0778,1.2247,1.4342,1.3077,1.3206,1.4089,1.328,1.3361,1.3854,1.4276,1.4295,1.4088,1.4088,1.4088,1.4088,1.4088,1.4088,1.4088,1.4088,1.3922,1.3703,1.3413,1.3233,1.3066,1.279,1.2717,1.265,1.2358,1.2305,1.2305,1.2305,1.2305,1.1996,1.0975,1.0671,0.9965,0.8084,0.7668,0.7288,0.6416,0.0,0.63,0.63,0.63,0.63,0.63,0.63,0.63,0.63,0.63,0.63,0.63,0.63,0.63,0.63,0.63,0.63,0.63,0.63,0.63,0.63,0.63,0.63,0.63,0.63,0.63,0.63,0.63,0.63,0.63,0.63,0.6446,0.6634,0.6658,0.6729,0.6827,0.6851,0.6681,0.6477,1.592,1.5784,1.5784,1.5784,1.5784,1.5784,1.5784,1.5784,1.5784,1.5784,1.5784,1.5784,1.5784,1.5784,1.5784,1.5784,1.4657,1.3392,1.2183,1.0186,0.8775,0.8038,0.8676,0.941,1.0096,1.0055,0.9959,0.9915,0.9291,0.8531,0.7712,0.7712,0.7634,0.7492,0.7421,0.8333,0.9939,1.0657,1.202,1.3697,1.3743,1.3774,1.3805,1.3932,1.3812,1.3724,1.4482,1.4676,1.4599,1.4599,1.4599,1.4529,1.4369,1.4322,1.4289,1.4135,1.4088,1.4021,1.3686,1.3507,1.3333,1.3073,1.2911,1.275,1.261,1.2583,1.2583,1.2583,1.2672,1.2632,1.2196,1.165,1.0979,1.0048,0.9282,0.0,0.0,0.7196,0.7099,0.7099,0.7099,0.7326,0.7859,0.7442,0.7099,0.7099,0.6606,0.63,0.63,0.63,0.63,0.63,0.63,0.63,0.63,0.63,0.63,0.63,0.63,0.63,0.63,0.63,0.63,0.6303,0.6381,0.6416,0.6419,0.6504,0.6576,0.6709,0.6793,0.6817,0.6817,0.6856,0.6787,0.6597,1.648,1.6244,1.6157,1.5825,1.5784,1.5784,1.5784,1.5784,1.5784,1.5784,1.5784,1.5784,1.5784,1.5784,1.5784,1.5784,1.4902,1.422,1.392,1.2037,1.0288,0.897,0.9899,1.1068,1.2334,1.2042,1.1414,1.0435,1.0145,0.9245,0.7865,0.7828,0.7753,0.7648,0.7614,0.8243,0.9389,1.0726,1.1997,1.3191,1.4475,1.4495,1.3814,1.4741,1.4469,1.3728,1.476,1.5068,1.5008,1.5008,1.5008,1.4968,1.4696,1.4623,1.4563,1.4275,1.4142,1.4041,1.3808,1.3706,1.364,1.3347,1.3133,1.2978,1.2904,1.2891,1.2891,1.2891,1.3046,1.3213,1.3213,1.2559,1.1988,1.1742,0.0,0.0,0.0,0.8319,0.8161,0.8161,0.8161,0.8466,0.9221,0.8618,0.8046,0.7821,0.7099,0.6567,0.63,0.63,0.63,0.63,0.6528,0.6756,0.6984,0.6756,0.6644,0.6644,0.6412,0.63,0.63,0.63,0.63,0.6306,0.645,0.6511,0.6525,0.6637,0.6722,0.6766,0.6839,0.6836,0.6817,0.6893,0.6861,0.6705,1.7824,1.7552,1.7178,1.6015,1.5784,1.5784,1.5784,1.5784,1.5784,1.5784,1.5784,1.5784,1.5784,1.5784,1.5784,1.5784,1.573,1.5146,1.3974,1.3728,1.3006,1.1653,1.1702,1.2382,1.3728,1.2528,1.1848,1.1755,1.0583,0.9308,0.7971,0.7879,0.7804,0.779,0.7658,0.8243,0.9389,1.0726,1.2094,1.349,1.4553,1.5078,1.5272,1.5318,1.5152,1.4907,1.5264,1.519,1.5008,1.5008,1.5008,1.5008,1.4981,1.4975,1.4914,1.4576,1.4295,1.4082,1.4062,1.4055,1.3981,1.3646,1.3553,1.3467,1.324,1.3173,1.3173,1.3173,1.32,1.3213,1.3213,1.3134,1.2764,1.1868,0.0,0.0,0.9742,0.9361,0.9183,0.9183,0.9183,0.9221,0.9296,0.9221,0.8803,0.7859,0.7744,0.7288,0.6338,0.63,0.63,0.63,0.7215,0.8122,0.9069,0.8161,0.7706,0.7668,0.6756,0.63,0.63,0.63,0.63,0.6306,0.645,0.6511,0.6525,0.6637,0.6783,0.6869,0.6879,0.696,0.7065,0.7078,0.6903,0.6722,1.9039,1.8411,1.7824,1.7131,1.7171,1.6983,1.5967,1.5784,1.5784,1.5784,1.5784,1.5784,1.5784,1.5784,1.5784,1.5784,1.5784,1.5581,1.5092,1.5092,1.4513,1.3199,1.3151,1.3734,1.5045,1.4561,1.3499,1.1896,1.1414,1.0096,0.7988,0.7931,0.7904,0.7901,0.7847,0.8542,0.9834,1.112,1.2453,1.3815,1.5018,1.5565,1.5665,1.5665,1.5591,1.5518,1.5625,1.5591,1.5504,1.5504,1.5504,1.5471,1.5291,1.5231,1.5177,1.4883,1.4583,1.4355,1.4355,1.4222,1.4062,1.3948,1.374,1.3573,1.346,1.344,1.344,1.344,1.3627,1.3754,1.3754,1.3601,1.3312,1.2941,0.0,1.1812,1.0762,1.0389,1.0228,1.0228,1.0228,1.049,1.1099,1.0608,1.0078,0.9696,0.9102,0.858,0.8199,0.8161,0.8461,0.9054,0.947,0.8945,0.7442,0.7668,0.748,0.6872,0.649,0.63,0.63,0.63,0.63,0.6345,0.7111,0.7123,0.6665,0.7439,0.7478,0.7014,0.7014,0.7048,0.7095,0.7095,0.7024,0.694,2.0331,1.9625,1.9039,1.8365,1.8187,1.7723,1.6574,1.6062,1.5784,1.5784,1.5784,1.5784,1.5784,1.5784,1.5784,1.5784,1.5784,1.5784,1.5784,1.5784,1.5391,1.4507,1.4507,1.4902,1.5784,1.5784,1.4711,1.2528,1.2528,1.1214,0.8627,0.8627,0.8382,0.8041,0.8432,0.9118,1.0096,1.1799,1.3054,1.4022,1.5289,1.5784,1.5784,1.5784,1.5784,1.5784,1.5784,1.5784,1.5784,1.5784,1.5784,1.5792,1.5591,1.5471,1.5357,1.5157,1.4823,1.4522,1.4522,1.4309,1.4088,1.4088,1.3935,1.374,1.374,1.374,1.374,1.374,1.3948,1.4088,1.4088,1.3841,1.3633,1.3726,1.3239,1.2614,1.2008,1.1562,1.131,1.1433,1.1328,1.1539,1.2224,1.1694,1.1124,1.082,1.0153,0.9631,0.9334,0.9296,0.9631,1.0303,1.0721,0.9774,0.741,0.8018,0.7828,0.683,0.6521,0.6368,0.6364,0.632,0.63,0.6345,0.7501,0.7717,0.7281,0.8076,0.8123,0.7621,0.7228,0.7095,0.7095,0.7095,0.7068,0.7038,2.1651,2.1346,2.0935,1.9716,1.8503,1.7738,1.7738,1.6622,1.5825,1.5825,1.5832,1.5784,1.5784,1.5784,1.5784,1.5784,1.5784,1.5784,1.5784,1.5784,1.5784,1.5784,1.5784,1.5784,1.5784,1.5784,1.5194,1.3926,1.3926,1.2571,0.9998,0.9998,0.9316,0.8088,0.941,0.9998,1.019,1.2807,1.3926,1.4022,1.5289,1.5784,1.5784,1.5784,1.5784,1.5784,1.5784,1.5784,1.5784,1.5784,1.5784,1.5784,1.5784,1.5631,1.5398,1.5398,1.4983,1.4529,1.4529,1.4315,1.4088,1.4088,1.4088,1.4088,1.4088,1.4088,1.4088,1.4088,1.4088,1.4088,1.4088,1.38,1.3693,1.4035,1.3373,1.2991,1.3513,1.2834,1.2418,1.275,1.2485,1.2305,1.2305,1.2305,1.1885,1.0901,1.082,1.0378,0.9372,0.9334,0.9334,0.9334,1.0555,1.0723,0.9742,0.9576,0.9026,0.8005,0.6984,0.6511,0.6504,0.6364,0.63,0.6384,0.7541,0.819,0.8414,0.8405,0.8592,0.8759,0.7577,0.7095,0.7095,0.7095,0.7007,0.6906,2.3204,2.3028,2.2565,2.1033,2.0486,1.9943,1.9085,1.7902,1.7131,1.7131,1.6339,1.5784,1.5784,1.5784,1.5784,1.5784,1.5784,1.5784,1.5784,1.5784,1.5784,1.5784,1.5784,1.5784,1.5784,1.5784,1.5194,1.3926,1.3926,1.2571,0.9998,0.9998,0.9801,0.941,0.9801,1.1019,1.2807,1.3584,1.4411,1.5289,1.5635,1.5784,1.5784,1.5784,1.5784,1.5784,1.5784,1.5784,1.5784,1.5784,1.5784,1.5784,1.5784,1.5772,1.5698,1.5698,1.5431,1.513,1.513,1.477,1.4342,1.4135,1.4088,1.4088,1.4088,1.4088,1.4088,1.4088,1.4088,1.4088,1.4088,1.3674,1.3393,1.3686,1.3239,1.2924,1.328,1.2919,1.2683,1.277,1.2485,1.2305,1.2305,1.2305,1.2187,1.1885,1.1848,1.1731,1.1434,1.1403,1.1403,1.1403,1.2011,1.1812,1.0762,1.0931,1.0055,0.8132,0.7815,0.7205,0.6404,0.7242,0.752,0.745,0.9412,0.9939,0.9457,0.9365,0.9147,0.8759,0.7577,0.7095,0.7095,0.7095,0.7068,0.7041,2.3867,2.3652,2.3216,2.2211,2.1614,2.1069,2.0305,1.9177,1.8234,1.7777,1.7037,1.6339,1.5825,1.5784,1.5784,1.5784,1.5784,1.5784,1.5784,1.5784,1.5784,1.5784,1.5784,1.5784,1.5784,1.5784,1.5439,1.4657,1.4657,1.359,1.1551,1.1551,1.1263,1.0779,1.1312,1.2425,1.3926,1.4459,1.5099,1.5784,1.5784,1.5784,1.5784,1.5784,1.5784,1.5784,1.5784,1.5784,1.5784,1.5784,1.5784,1.5784,1.5784,1.5784,1.5784,1.5784,1.5625,1.5398,1.5398,1.5057,1.4656,1.4519,1.4262,1.4088,1.4088,1.4088,1.4088,1.4088,1.4088,1.4088,1.4088,1.3701,1.344,1.3768,1.332,1.3119,1.35,1.3193,1.3012,1.3086,1.277,1.2516,1.2516,1.2516,1.2532,1.2652,1.2665,1.2665,1.2665,1.2665,1.2665,1.2665,1.2946,1.2766,1.1986,1.2444,1.1375,0.8875,0.8875,0.8418,0.7581,0.8316,0.8349,0.7906,0.9723,1.034,0.9994,0.9434,0.933,0.9405,0.7749,0.7095,0.7095,0.7095,0.7095,0.7095,2.3935,2.3525,2.3188,2.311,2.2164,2.148,2.148,2.044,1.9268,1.8187,1.7824,1.7271,1.6109,1.5872,1.5784,1.5784,1.5784,1.5784,1.5784,1.5784,1.5784,1.5784,1.5784,1.5784,1.5784,1.5784,1.5784,1.5784,1.5784,1.5146,1.3926,1.3926,1.3253,1.2139,1.3343,1.3968,1.4172,1.5289,1.5784,1.5784,1.5784,1.5784,1.5784,1.5784,1.5784,1.5784,1.5784,1.5784,1.5784,1.5784,1.5784,1.5784,1.5784,1.5784,1.5784,1.5784,1.5645,1.5438,1.5438,1.5224,1.5048,1.5048,1.4583,1.4162,1.4128,1.4108,1.4088,1.4088,1.4088,1.4088,1.4088,1.3841,1.37,1.4041,1.3614,1.3447,1.4008,1.3607,1.3347,1.3573,1.314,1.2831,1.2831,1.2831,1.2931,1.3153,1.32,1.3213,1.3213,1.3213,1.3213,1.3213,1.3453,1.3473,1.3253,1.3808,1.2719,1.006,1.006,0.9877,0.9556,0.952,0.9014,0.8223,0.9267,1.0031,1.037,0.9001,0.9269,1.0351,0.8009,0.7095,0.7095,0.7095,0.7095,0.7095,2.4434,2.4199,2.3881,2.3208,2.2862,2.2721,2.2721,2.1667,2.08,2.0567,1.8864,1.7591,1.7318,1.6386,1.5784,1.5784,1.5784,1.5784,1.5784,1.5784,1.5784,1.5784,1.5784,1.5784,1.5784,1.5784,1.5784,1.5784,1.5784,1.5146,1.3926,1.3926,1.3734,1.3494,1.3776,1.4459,1.5391,1.5683,1.5784,1.5784,1.5784,1.5784,1.5784,1.5784,1.5784,1.5784,1.5784,1.5784,1.5784,1.5784,1.5784,1.5784,1.5784,1.5784,1.5784,1.5784,1.5738,1.5684,1.5684,1.5524,1.5304,1.5304,1.5082,1.4754,1.4476,1.4249,1.4088,1.4088,1.4088,1.4088,1.4088,1.3841,1.37,1.4041,1.3788,1.3633,1.4035,1.3774,1.3533,1.3593,1.3327,1.3113,1.3113,1.3113,1.3033,1.2898,1.3073,1.3213,1.3213,1.3213,1.3213,1.3213,1.3453,1.3573,1.3507,1.3908,1.3153,1.1295,1.1295,1.086,1.0084,1.0835,1.1056,1.0869,1.1225,1.1945,1.2631,0.9639,0.9269,1.0351,0.8009,0.7095,0.7095,0.7095,0.7095,0.7095,2.4814,2.456,2.4219,2.3564,2.3447,2.3379,2.312,2.2536,2.1943,2.1391,2.0215,1.9001,1.7824,1.7131,1.648,1.5825,1.5784,1.5784,1.5784,1.5784,1.5784,1.5784,1.5784,1.5784,1.5784,1.5784,1.5784,1.5784,1.5784,1.5439,1.48,1.48,1.48,1.48,1.48,1.5194,1.5784,1.5784,1.5784,1.5784,1.5784,1.5784,1.5784,1.5784,1.5784,1.5784,1.5784,1.5784,1.5784,1.5784,1.5784,1.5784,1.5784,1.5784,1.5784,1.5784,1.5784,1.5784,1.5784,1.5718,1.5605,1.5605,1.5384,1.5057,1.4623,1.4402,1.4255,1.4115,1.4088,1.4088,1.4088,1.3961,1.3908,1.4062,1.3955,1.3908,1.4068,1.3955,1.3854,1.3854,1.3553,1.3373,1.3373,1.3373,1.3407,1.3427,1.354,1.3627,1.3627,1.3627,1.3627,1.3627,1.3774,1.3746,1.36,1.3941,1.3605,1.2588,1.2496,1.2148,1.1656,1.2045,1.2024,1.1714,1.184,1.2288,1.2643,0.9809,0.9397,1.0351,0.8009,0.7445,0.7885,0.7316,0.7095,0.7095,2.5135,2.4775,2.4375,2.3877,2.3789,2.3643,2.3159,2.3091,2.2721,2.1756,2.1426,2.044,1.8234,1.7638,1.6943,1.5872,1.5784,1.5784,1.5784,1.5784,1.5784,1.5784,1.5784,1.5784,1.5784,1.5784,1.5784,1.5784,1.5784,1.5784,1.5784,1.5784,1.5784,1.5784,1.5784,1.5784,1.5784,1.5784,1.5784,1.5784,1.5784,1.5784,1.5784,1.5784,1.5784,1.5784,1.5784,1.5784,1.5784,1.5784,1.5784,1.5784,1.5784,1.5784,1.5784,1.5784,1.5784,1.5784,1.5784,1.5784,1.5784,1.5784,1.5651,1.5331,1.4796,1.4629,1.4529,1.4289,1.4195,1.4162,1.4162,1.4122,1.4088,1.4088,1.4088,1.4088,1.4088,1.4088,1.4088,1.4088,1.3868,1.366,1.3606,1.3646,1.3801,1.4001,1.4055,1.4088,1.4088,1.4088,1.4088,1.4088,1.4088,1.3968,1.368,1.3968,1.3968,1.3673,1.3387,1.3313,1.3347,1.3079,1.2622,1.2093,1.2011,1.2147,1.2254,1.0072,0.9879,1.0692,0.8532,0.8317,0.9061,0.8053,0.7705,0.7661,2.5194,2.5067,2.4727,2.3926,2.3789,2.3643,2.3159,2.3091,2.3047,2.2862,2.1943,2.08,1.9405,1.7343,1.5967,1.5825,1.5784,1.5784,1.5784,1.5784,1.5784,1.5784,1.5784,1.5784,1.5784,1.5784,1.5784,1.5784,1.5784,1.5784,1.5784,1.5784,1.5784,1.5784,1.5784,1.5784,1.5784,1.5784,1.5784,1.5784,1.5784,1.5784,1.5784,1.5784,1.5784,1.5784,1.5784,1.5784,1.5784,1.5784,1.5784,1.5784,1.5784,1.5784,1.5784,1.5784,1.5784,1.5784,1.5784,1.5784,1.5784,1.5784,1.5751,1.5638,1.5351,1.5084,1.4941,1.4901,1.4643,1.4462,1.4462,1.4255,1.4088,1.4088,1.4088,1.4088,1.4088,1.4088,1.4088,1.4088,1.4048,1.3928,1.3626,1.3874,1.3935,1.368,1.3941,1.4088,1.4088,1.4088,1.4088,1.4088,1.4088,1.4068,1.4028,1.4068,1.4068,1.4021,1.3686,1.3721,1.3961,1.3661,1.3605,1.371,1.2699,1.2844,1.3643,1.1338,1.1037,1.1938,1.0649,1.0221,1.0351,1.0178,1.0135,1.0005,2.5478,2.5439,2.5166,2.4297,2.4141,2.3916,2.3198,2.3091,2.3091,2.3091,2.2633,2.1578,1.9724,1.7296,1.5784,1.5784,1.5784,1.5784,1.5784,1.5784,1.5784,1.5784,1.5784,1.5784,1.5784,1.5784,1.5784,1.5784,1.5784,1.5784,1.5784,1.5784,1.5784,1.5784,1.5784,1.5784,1.5784,1.5784,1.5784,1.5784,1.5784,1.5784,1.5784,1.5784,1.5784,1.5784,1.5784,1.5784,1.5784,1.5784,1.5784,1.5784,1.5784,1.5784,1.5784,1.5784,1.5784,1.5784,1.5784,1.5784,1.5784,1.5784,1.5784,1.5751,1.5665,1.5538,1.5357,1.5075,1.473,1.4522,1.4522,1.4282,1.4088,1.4088,1.4088,1.4088,1.4088,1.4088,1.4088,1.4088,1.4088,1.4035,1.3901,1.4008,1.4035,1.3901,1.4015,1.4088,1.4088,1.4088,1.4088,1.4088,1.4088,1.4088,1.4088,1.4088,1.4088,1.4088,1.3955,1.3961,1.4075,1.3614,1.3654,1.4075,1.3345,1.3448,1.3955,1.2248,1.1852,1.2194,1.1042,1.0611,1.0697,1.1295,1.1166,1.0524]}]]